[[{"header":{"parameterUnit":"m.s-1","parameterCategory":1,"la1":31.0,"la2":29.5877,"lo1":-88.7671,"lo2":-86.6584,"dy":0.0162,"dx":0.0185,"nx":115,"ny":88,"refTime":"2023-04-13T12:00:00:Z","depth":0,"parameterNumber":2,"parameterNumberName":"U-component_of_WINDS"},"data":[0.0,0.0,0.0,0.0,0.0,0.0,0.0,0.0,0.0,0.0,0.0,0.0,0.0,0.0,0.0,0.0,0.0,0.0,0.0,0.0,0.0,0.0,0.0,0.0,0.0,0.0,0.0,0.0,0.0,0.0,0.0,0.0,0.0,0.0,0.0,0.0,0.0,0.0,0.0,0.0,0.0,0.0,0.0,0.0,0.0,0.0,0.0,0.0,0.0,0.0,0.0,0.0,0.0,0.0,0.0,0.0,0.0,0.0,0.0,0.0,0.0,0.0,0.0,0.0,0.0,0.0,0.0,0.0,0.0,0.0,0.0,0.0,0.0,0.0,0.0,0.0,0.0,0.0,0.0,0.0,0.0,0.0,0.0,0.0,0.0,0.0,0.0,0.0,0.0,0.0,0.0,0.0,0.0,0.0,0.0,0.0,0.0,0.0,0.0,0.0,0.0,0.0,0.0,0.0,0.0,0.0,0.0,0.0,0.0,0.0,0.0,0.0,0.0,0.0,0.0,0.0,0.0,0.0,0.0,0.0,0.0,0.0,0.0,0.0,0.0,0.0,0.0,0.0,0.0,0.0,0.0,0.0,0.0,0.0,0.0,0.0,0.0,0.0,0.0,0.0,0.0,0.0,0.0,0.0,0.0,0.0,0.0,0.0,0.0,0.0,0.0,0.0,0.0,0.0,0.0,0.0,0.0,0.0,0.0,0.0,0.0,0.0,0.0,0.0,0.0,0.0,0.0,0.0,0.0,0.0,0.0,0.0,0.0,0.0,0.0,0.0,0.0,0.0,0.0,0.0,0.0,0.0,0.0,0.0,0.0,0.0,0.0,0.0,0.0,0.0,0.0,0.0,0.0,0.0,0.0,0.0,0.0,0.0,0.0,0.0,0.0,0.0,0.0,0.0,0.0,0.0,0.0,0.0,0.0,0.0,0.0,0.0,0.0,0.0,0.0,0.0,0.0,0.0,0.0,0.0,0.0,0.0,0.0,0.0,0.0,0.0,0.0,0.0,0.0,0.0,0.0,0.0,0.0,0.0,0.0,0.0,0.0,0.0,0.0,0.0,0.0,0.0,0.0,0.0,0.0,0.0,0.0,0.0,0.0,0.0,0.0,0.0,0.0,0.0,0.0,0.0,0.0,0.0,0.0,0.0,0.0,0.0,0.0,0.0,0.0,0.0,0.0,0.0,0.0,0.0,0.0,0.0,0.0,0.0,0.0,0.0,0.0,0.0,0.0,0.0,0.0,0.0,0.0,0.0,0.0,0.0,0.0,0.0,0.0,0.0,0.0,0.0,0.0,0.0,0.0,0.0,0.0,0.0,0.0,0.0,0.0,0.0,0.0,0.0,0.0,0.0,0.0,0.0,0.0,0.0,0.0,0.0,0.0,0.0,0.0,0.0,0.0,0.0,0.0,0.0,0.0,0.0,0.0,0.0,0.0,0.0,0.0,0.0,0.0,0.0,0.0,0.0,0.0,0.0,0.0,0.0,0.0,0.0,0.0,0.0,0.0,0.0,0.0,0.0,0.0,0.0,0.0,0.0,0.0,0.0,0.0,0.0,0.0,0.0,0.0,0.0,0.0,0.0,0.0,0.0,0.0,0.0,0.0,0.0,0.0,0.0,0.0,0.0,0.0,0.0,0.0,0.0,0.0,0.0,0.0,0.0,0.0,0.0,0.0,0.0,0.0,0.0,0.0,0.0,0.0,0.0,0.0,0.0,0.0,0.0,0.0,0.0,0.0,0.0,0.0,0.0,0.0,0.0,0.0,0.0,0.0,0.0,0.0,0.0,0.0,0.0,0.0,0.0,0.0,0.0,0.0,0.0,0.0,0.0,0.0,0.0,0.0,0.0,0.0,0.0,0.0,0.0,0.0,0.0,0.0,0.0,0.0,0.0,0.0,0.0,0.0,0.0,0.0,0.0,0.0,0.0,0.0,0.0,0.0,0.0,0.0,0.0,0.0,0.0,0.0,0.0,0.0,0.0,0.0,0.0,0.0,0.0,0.0,0.0,0.0,0.0,0.0,0.0,0.0,0.0,0.0,0.0,0.0,0.0,0.0,0.0,0.0,0.0,0.0,0.0,0.0,0.0,0.0,0.0,0.0,0.0,0.0,0.0,0.0,0.0,0.0,0.0,0.0,0.0,0.0,0.0,0.0,0.0,0.0,0.0,0.0,0.0,0.0,0.0,0.0,0.0,0.0,0.0,0.0,0.0,0.0,0.0,0.0,0.0,0.0,0.0,0.0,0.0,0.0,0.0,0.0,0.0,0.0,0.0,0.0,0.0,0.0,0.0,0.0,0.0,0.0,0.0,0.0,0.0,0.0,0.0,0.0,0.0,0.0,0.0,0.0,0.0,0.0,0.0,0.0,0.0,0.0,0.0,0.0,0.0,0.0,0.0,0.0,0.0,0.0,0.0,0.0,0.0,0.0,0.0,0.0,0.0,0.0,0.0,0.0,0.0,0.0,0.0,0.0,0.0,0.0,0.0,0.0,0.0,0.0,0.0,0.0,0.0,0.0,0.0,0.0,0.0,0.0,0.0,0.0,0.0,0.0,0.0,0.0,0.0,0.0,0.0,0.0,0.0,0.0,0.0,0.0,0.0,0.0,0.0,0.0,0.0,0.0,0.0,0.0,0.0,0.0,0.0,0.0,0.0,0.0,0.0,0.0,0.0,0.0,0.0,0.0,0.0,0.0,0.0,0.0,0.0,0.0,0.0,0.0,0.0,0.0,0.0,0.0,0.0,0.0,0.0,0.0,0.0,0.0,0.0,0.0,0.0,0.0,0.0,0.0,0.0,0.0,0.0,0.0,0.0,0.0,0.0,0.0,0.0,0.0,0.0,0.0,0.0,0.0,0.0,0.0,0.0,0.0,0.0,0.0,0.0,0.0,0.0,0.0,0.0,0.0,0.0,0.0,0.0,0.0,0.0,0.0,0.0,0.0,0.0,0.0,0.0,0.0,0.0,0.0,0.0,0.0,0.0,0.0,0.0,0.0,0.0,0.0,0.0,0.0,0.0,0.0,0.0,0.0,0.0,0.0,0.0,0.0,0.0,0.0,0.0,0.0,0.0,0.0,0.0,0.0,0.0,0.0,0.0,0.0,0.0,0.0,0.0,0.0,0.0,0.0,0.0,0.0,0.0,0.0,0.0,0.0,0.0,0.0,0.0,0.0,0.0,0.0,0.0,0.0,0.0,0.0,0.0,0.0,0.0,0.0,0.0,0.0,0.0,0.0,0.0,0.0,0.0,0.0,0.0,0.0,0.0,0.0,0.0,0.0,0.0,0.0,0.0,0.0,0.0,0.0,0.0,0.0,0.0,0.0,0.0,0.0,0.0,0.0,0.0,0.0,0.0,0.0,0.0,0.0,0.0,0.0,0.0,0.0,0.0,0.0,0.0,0.0,0.0,0.0,0.0,0.0,0.0,0.0,0.0,0.0,0.0,0.0,0.0,0.0,0.0,0.0,0.0,0.0,0.0,0.0,0.0,0.0,0.0,0.0,0.0,0.0,0.0,0.0,0.0,0.0,0.0,0.0,0.0,0.0,0.0,0.0,0.0,0.0,0.0,0.0,0.0,0.0,0.0,0.0,0.0,0.0,0.0,0.0,0.0,0.0,0.0,0.0,0.0,0.0,0.0,0.0,0.0,0.0,0.0,0.0,0.0,0.0,0.0,0.0,0.0,0.0,0.0,0.0,0.0,0.0,0.0,0.0,0.0,0.0,0.0,0.0,0.0,0.0,0.0,0.0,0.0,0.0,0.0,0.0,0.0,0.0,0.0,0.0,0.0,0.0,0.0,0.0,0.0,0.0,0.0,0.0,0.0,0.0,0.0,0.0,0.0,0.0,0.0,0.0,0.0,0.0,0.0,0.0,0.0,0.0,0.0,0.0,0.0,0.0,0.0,0.0,0.0,0.0,0.0,0.0,0.0,0.0,0.0,0.0,0.0,0.0,0.0,0.0,0.0,0.0,0.0,0.0,0.0,0.0,0.0,0.0,0.0,0.0,0.0,0.0,0.0,0.0,0.0,0.0,0.0,0.0,0.0,0.0,0.0,0.0,0.0,0.0,0.0,0.0,0.0,0.0,0.0,0.0,0.0,0.0,0.0,0.0,0.0,0.0,0.0,0.0,0.0,0.0,0.0,0.0,0.0,0.0,0.0,0.0,0.0,0.0,0.0,0.0,0.0,0.0,0.0,0.0,0.0,0.0,0.0,0.0,0.0,0.0,0.0,0.0,0.0,0.0,0.0,0.0,0.0,0.0,0.0,0.0,0.0,3.6776,0.0,0.0,0.0,0.0,0.0,0.0,0.0,0.0,0.0,0.0,0.0,0.0,0.0,0.0,0.0,0.0,0.0,0.0,0.0,0.0,0.0,0.0,0.0,0.0,0.0,0.0,0.0,0.0,0.0,0.0,0.0,0.0,0.0,0.0,0.0,0.0,0.0,0.0,0.0,0.0,0.0,0.0,0.0,0.0,0.0,0.0,0.0,0.0,0.0,0.0,0.0,0.0,0.0,0.0,0.0,0.0,0.0,0.0,0.0,0.0,0.0,0.0,0.0,0.0,0.0,0.0,0.0,0.0,0.0,0.0,0.0,0.0,0.0,0.0,0.0,0.0,0.0,0.0,0.0,0.0,0.0,0.0,0.0,0.0,0.0,0.0,0.0,0.0,0.0,0.0,0.0,0.0,0.0,0.0,0.0,0.0,0.0,0.0,0.0,0.0,0.0,0.0,0.0,0.0,0.0,0.0,0.0,0.0,0.0,0.0,3.8789,3.871,3.8214,3.7639,3.7011,0.0,0.0,0.0,0.0,0.0,0.0,0.0,0.0,0.0,0.0,0.0,0.0,0.0,0.0,0.0,0.0,0.0,0.0,0.0,0.0,0.0,0.0,0.0,0.0,0.0,0.0,0.0,0.0,0.0,0.0,0.0,0.0,0.0,0.0,0.0,0.0,0.0,0.0,0.0,0.0,0.0,0.0,0.0,0.0,0.0,0.0,0.0,0.0,0.0,0.0,0.0,0.0,0.0,0.0,0.0,0.0,0.0,0.0,0.0,0.0,0.0,0.0,0.0,0.0,0.0,0.0,0.0,0.0,0.0,0.0,0.0,0.0,0.0,0.0,0.0,0.0,0.0,0.0,0.0,0.0,0.0,0.0,0.0,0.0,0.0,0.0,0.0,0.0,0.0,0.0,0.0,0.0,0.0,0.0,0.0,0.0,0.0,0.0,0.0,0.0,0.0,0.0,0.0,0.0,0.0,0.0,0.0,0.0,0.0,0.0,0.0,0.0,3.8841,3.8187,3.7037,0.0,0.0,0.0,0.0,0.0,0.0,0.0,0.0,0.0,0.0,0.0,0.0,0.0,0.0,0.0,0.0,0.0,0.0,0.0,0.0,0.0,0.0,0.0,0.0,0.0,0.0,0.0,0.0,0.0,0.0,0.0,0.0,0.0,0.0,0.0,0.0,0.0,0.0,0.0,0.0,0.0,0.0,0.0,0.0,0.0,0.0,0.0,0.0,0.0,0.0,0.0,0.0,0.0,0.0,0.0,0.0,0.0,0.0,0.0,0.0,0.0,0.0,0.0,0.0,0.0,0.0,0.0,0.0,0.0,0.0,0.0,0.0,0.0,0.0,0.0,0.0,0.0,0.0,0.0,0.0,0.0,0.0,0.0,0.0,0.0,0.0,0.0,0.0,0.0,0.0,0.0,0.0,0.0,0.0,0.0,0.0,0.0,0.0,0.0,0.0,0.0,0.0,0.0,0.0,0.0,0.0,0.0,0.0,0.0,0.0,3.9808,4.0226,3.9259,0.0,3.7063,0.0,0.0,0.0,0.0,0.0,0.0,0.0,0.0,0.0,0.0,0.0,0.0,0.0,0.0,0.0,0.0,0.0,0.0,0.0,0.0,0.0,0.0,0.0,0.0,0.0,0.0,0.0,0.0,0.0,0.0,0.0,0.0,0.0,0.0,0.0,0.0,0.0,0.0,0.0,0.0,0.0,0.0,0.0,0.0,0.0,0.0,0.0,0.0,0.0,0.0,0.0,0.0,0.0,0.0,0.0,0.0,0.0,0.0,0.0,0.0,0.0,0.0,0.0,0.0,0.0,0.0,0.0,0.0,0.0,0.0,0.0,0.0,0.0,0.0,0.0,0.0,0.0,0.0,0.0,0.0,0.0,0.0,0.0,0.0,0.0,0.0,0.0,0.0,0.0,0.0,0.0,0.0,0.0,0.0,0.0,0.0,0.0,0.0,0.0,0.0,0.0,0.0,0.0,0.0,0.0,0.0,0.0,0.0,0.0,0.0,4.054,4.0409,3.9311,3.8187,0.0,0.0,0.0,0.0,0.0,0.0,0.0,0.0,0.0,0.0,0.0,0.0,0.0,0.0,0.0,0.0,0.0,0.0,0.0,0.0,0.0,0.0,0.0,0.0,0.0,0.0,0.0,0.0,0.0,0.0,0.0,0.0,0.0,0.0,0.0,0.0,0.0,0.0,0.0,0.0,0.0,0.0,0.0,0.0,0.0,0.0,0.0,0.0,0.0,0.0,0.0,0.0,0.0,0.0,0.0,0.0,0.0,0.0,0.0,0.0,0.0,0.0,0.0,0.0,0.0,0.0,0.0,0.0,0.0,0.0,0.0,0.0,0.0,0.0,0.0,0.0,0.0,0.0,0.0,0.0,0.0,0.0,0.0,0.0,0.0,0.0,0.0,0.0,0.0,0.0,0.0,0.0,0.0,0.0,0.0,0.0,0.0,0.0,0.0,0.0,0.0,0.0,0.0,0.0,0.0,0.0,0.0,0.0,0.0,0.0,4.1005,4.1057,4.02,3.9233,3.8266,3.7273,0.0,0.0,0.0,0.0,0.0,0.0,0.0,0.0,0.0,0.0,0.0,0.0,0.0,0.0,0.0,0.0,0.0,0.0,0.0,0.0,0.0,0.0,0.0,0.0,0.0,0.0,0.0,0.0,0.0,0.0,0.0,0.0,0.0,0.0,0.0,0.0,0.0,0.0,0.0,0.0,0.0,0.0,0.0,0.0,0.0,0.0,0.0,0.0,0.0,0.0,0.0,0.0,0.0,0.0,0.0,0.0,0.0,0.0,0.0,0.0,0.0,0.0,0.0,0.0,0.0,0.0,0.0,0.0,0.0,0.0,0.0,0.0,0.0,0.0,0.0,0.0,0.0,0.0,0.0,0.0,0.0,0.0,0.0,0.0,0.0,0.0,0.0,0.0,0.0,0.0,0.0,0.0,0.0,0.0,0.0,0.0,0.0,0.0,0.0,0.0,0.0,0.0,0.0,0.0,0.0,0.0,0.0,0.0,4.0008,4.109,4.1044,3.9677,3.905,3.8449,0.0,0.0,0.0,0.0,0.0,0.0,0.0,0.0,0.0,0.0,0.0,0.0,0.0,0.0,0.0,0.0,0.0,0.0,0.0,0.0,0.0,0.0,0.0,0.0,0.0,0.0,0.0,0.0,0.0,0.0,0.0,0.0,0.0,0.0,0.0,0.0,0.0,0.0,0.0,0.0,0.0,0.0,0.0,0.0,0.0,0.0,0.0,0.0,0.0,0.0,0.0,0.0,0.0,0.0,0.0,0.0,0.0,0.0,0.0,0.0,0.0,0.0,0.0,0.0,0.0,0.0,0.0,0.0,0.0,0.0,0.0,0.0,0.0,0.0,0.0,0.0,0.0,0.0,0.0,0.0,0.0,0.0,0.0,0.0,0.0,0.0,0.0,0.0,0.0,0.0,0.0,0.0,0.0,0.0,0.0,0.0,0.0,0.0,0.0,0.0,0.0,0.0,0.0,0.0,0.0,0.0,0.0,0.0,0.0,4.0145,4.0447,4.0096,3.9265,3.8909,3.8449,0.0,0.0,0.0,0.0,0.0,0.0,0.0,0.0,0.0,0.0,0.0,0.0,0.0,0.0,0.0,0.0,0.0,0.0,0.0,0.0,0.0,0.0,0.0,0.0,0.0,0.0,0.0,0.0,0.0,0.0,0.0,0.0,0.0,0.0,0.0,0.0,0.0,0.0,0.0,0.0,0.0,0.0,0.0,0.0,0.0,0.0,0.0,0.0,0.0,0.0,0.0,0.0,0.0,0.0,0.0,0.0,0.0,0.0,0.0,0.0,0.0,0.0,0.0,0.0,0.0,0.0,0.0,0.0,0.0,0.0,0.0,0.0,0.0,0.0,0.0,0.0,0.0,0.0,0.0,0.0,0.0,0.0,0.0,0.0,0.0,0.0,0.0,0.0,0.0,0.0,0.0,0.0,0.0,0.0,0.0,0.0,0.0,0.0,0.0,0.0,0.0,0.0,0.0,0.0,0.0,0.0,0.0,0.0,0.0,4.0668,0.0,3.9865,3.9401,3.9002,3.8542,0.0,0.0,0.0,0.0,0.0,0.0,0.0,0.0,0.0,0.0,0.0,0.0,0.0,0.0,0.0,0.0,0.0,0.0,0.0,0.0,0.0,0.0,0.0,0.0,0.0,0.0,0.0,0.0,0.0,0.0,0.0,0.0,0.0,0.0,0.0,0.0,0.0,0.0,0.0,0.0,0.0,0.0,0.0,0.0,0.0,0.0,0.0,0.0,0.0,0.0,0.0,0.0,0.0,0.0,0.0,0.0,0.0,0.0,0.0,0.0,0.0,0.0,0.0,0.0,0.0,0.0,0.0,0.0,0.0,0.0,0.0,0.0,0.0,0.0,0.0,0.0,0.0,0.0,0.0,0.0,0.0,0.0,0.0,0.0,0.0,0.0,0.0,0.0,0.0,0.0,0.0,0.0,0.0,0.0,0.0,0.0,0.0,0.0,0.0,0.0,0.0,0.0,0.0,0.0,0.0,0.0,0.0,0.0,4.0665,4.1489,4.0695,4.0239,3.9955,3.9374,3.8727,0.0,0.0,0.0,0.0,0.0,0.0,0.0,0.0,0.0,0.0,0.0,0.0,0.0,0.0,0.0,0.0,0.0,0.0,0.0,0.0,0.0,0.0,0.0,0.0,0.0,0.0,0.0,0.0,0.0,0.0,0.0,0.0,0.0,0.0,0.0,0.0,0.0,0.0,0.0,0.0,0.0,0.0,0.0,0.0,0.0,0.0,0.0,0.0,0.0,0.0,0.0,0.0,0.0,0.0,0.0,0.0,0.0,0.0,0.0,0.0,0.0,0.0,0.0,0.0,0.0,0.0,0.0,0.0,0.0,0.0,0.0,0.0,0.0,0.0,0.0,0.0,0.0,0.0,0.0,0.0,0.0,0.0,0.0,0.0,0.0,0.0,0.0,0.0,0.0,0.0,0.0,0.0,0.0,0.0,0.0,0.0,0.0,0.0,0.0,0.0,0.0,0.0,0.0,0.0,0.0,0.0,0.0,0.0,0.0,4.126,4.0817,4.0522,4.0401,3.9561,3.8978,0.0,0.0,0.0,0.0,0.0,0.0,0.0,0.0,0.0,0.0,0.0,0.0,0.0,0.0,0.0,0.0,0.0,0.0,0.0,0.0,0.0,0.0,0.0,0.0,0.0,0.0,0.0,0.0,0.0,0.0,0.0,0.0,0.0,0.0,0.0,0.0,0.0,0.0,0.0,0.0,0.0,0.0,0.0,0.0,0.0,0.0,0.0,0.0,0.0,0.0,0.0,0.0,0.0,0.0,0.0,0.0,0.0,0.0,0.0,0.0,0.0,0.0,0.0,0.0,0.0,0.0,0.0,0.0,0.0,0.0,0.0,0.0,0.0,0.0,0.0,0.0,0.0,0.0,0.0,0.0,0.0,0.0,0.0,0.0,0.0,0.0,0.0,0.0,0.0,0.0,0.0,0.0,0.0,0.0,0.0,0.0,0.0,0.0,0.0,0.0,0.0,0.0,0.0,0.0,0.0,0.0,0.0,0.0,0.0,4.2086,4.1464,4.1127,4.1032,4.028,3.96,3.9084,0.0,0.0,0.0,0.0,0.0,0.0,0.0,0.0,0.0,0.0,0.0,0.0,0.0,0.0,0.0,0.0,0.0,0.0,0.0,0.0,0.0,0.0,0.0,0.0,0.0,0.0,0.0,0.0,0.0,0.0,0.0,0.0,0.0,0.0,0.0,0.0,0.0,0.0,0.0,0.0,0.0,0.0,0.0,0.0,0.0,0.0,0.0,0.0,0.0,0.0,0.0,0.0,0.0,0.0,0.0,0.0,0.0,0.0,0.0,0.0,0.0,0.0,0.0,0.0,0.0,0.0,0.0,0.0,0.0,0.0,0.0,0.0,0.0,0.0,0.0,0.0,0.0,0.0,0.0,0.0,0.0,0.0,0.0,0.0,0.0,0.0,0.0,0.0,0.0,0.0,0.0,0.0,0.0,0.0,0.0,0.0,0.0,0.0,0.0,0.0,0.0,0.0,0.0,0.0,0.0,0.0,0.0,0.0,4.3868,4.2711,4.2072,4.1758,4.1486,4.0638,0.0,0.0,0.0,0.0,0.0,0.0,0.0,0.0,0.0,0.0,0.0,0.0,0.0,0.0,0.0,0.0,0.0,0.0,0.0,0.0,0.0,0.0,0.0,0.0,0.0,0.0,0.0,0.0,0.0,0.0,0.0,0.0,0.0,0.0,0.0,0.0,0.0,0.0,0.0,0.0,0.0,0.0,0.0,0.0,0.0,0.0,0.0,0.0,0.0,0.0,0.0,0.0,0.0,0.0,0.0,0.0,0.0,0.0,0.0,0.0,0.0,0.0,0.0,0.0,0.0,0.0,0.0,0.0,0.0,0.0,0.0,0.0,0.0,0.0,0.0,0.0,0.0,0.0,0.0,0.0,0.0,0.0,0.0,0.0,0.0,0.0,0.0,0.0,0.0,0.0,0.0,0.0,0.0,0.0,0.0,0.0,0.0,0.0,0.0,0.0,0.0,0.0,0.0,0.0,0.0,0.0,0.0,0.0,0.0,4.4092,4.4201,4.4157,4.3859,4.2797,4.17,0.0,0.0,0.0,0.0,0.0,0.0,0.0,0.0,0.0,0.0,0.0,0.0,0.0,0.0,0.0,0.0,0.0,0.0,0.0,0.0,0.0,0.0,0.0,0.0,0.0,0.0,0.0,0.0,0.0,0.0,0.0,0.0,0.0,0.0,0.0,0.0,0.0,0.0,0.0,0.0,0.0,0.0,0.0,0.0,0.0,0.0,0.0,0.0,0.0,0.0,0.0,0.0,0.0,0.0,0.0,0.0,0.0,0.0,0.0,0.0,0.0,0.0,0.0,0.0,0.0,0.0,0.0,0.0,0.0,0.0,0.0,0.0,0.0,0.0,0.0,0.0,0.0,0.0,0.0,0.0,0.0,0.0,0.0,0.0,0.0,0.0,0.0,0.0,0.0,0.0,0.0,0.0,0.0,0.0,0.0,0.0,0.0,0.0,0.0,0.0,0.0,0.0,0.0,0.0,0.0,0.0,0.0,0.0,4.5117,4.5313,4.5915,4.6113,4.5831,4.3949,4.2467,0.0,0.0,0.0,0.0,0.0,0.0,0.0,0.0,0.0,0.0,0.0,0.0,0.0,0.0,0.0,0.0,0.0,0.0,0.0,0.0,0.0,0.0,0.0,0.0,0.0,0.0,0.0,0.0,0.0,0.0,0.0,0.0,0.0,0.0,0.0,0.0,0.0,0.0,0.0,0.0,0.0,0.0,0.0,0.0,0.0,0.0,0.0,0.0,0.0,0.0,0.0,0.0,0.0,0.0,0.0,0.0,0.0,0.0,0.0,0.0,0.0,0.0,0.0,0.0,0.0,0.0,0.0,0.0,0.0,0.0,0.0,0.0,0.0,0.0,0.0,0.0,0.0,0.0,0.0,0.0,0.0,0.0,0.0,0.0,0.0,0.0,0.0,0.0,0.0,0.0,0.0,0.0,0.0,0.0,0.0,0.0,0.0,0.0,0.0,0.0,0.0,0.0,0.0,0.0,0.0,0.0,0.0,0.0,4.6054,4.6977,4.7636,4.7725,4.7296,4.5002,4.3218,0.0,0.0,0.0,0.0,0.0,0.0,0.0,0.0,0.0,0.0,0.0,0.0,0.0,0.0,0.0,0.0,0.0,0.0,0.0,0.0,0.0,0.0,0.0,0.0,0.0,0.0,0.0,0.0,0.0,0.0,0.0,0.0,0.0,0.0,0.0,0.0,0.0,0.0,0.0,0.0,0.0,0.0,0.0,0.0,0.0,0.0,0.0,0.0,0.0,0.0,0.0,0.0,0.0,0.0,0.0,0.0,0.0,0.0,0.0,0.0,0.0,0.0,0.0,0.0,0.0,0.0,0.0,0.0,0.0,0.0,0.0,0.0,0.0,0.0,0.0,0.0,0.0,0.0,0.0,0.0,0.0,0.0,0.0,0.0,0.0,0.0,0.0,0.0,0.0,0.0,0.0,0.0,0.0,0.0,0.0,0.0,0.0,0.0,0.0,0.0,0.0,0.0,0.0,0.0,0.0,0.0,0.0,0.0,4.6974,4.7184,4.8232,4.8349,4.7457,4.6401,4.4846,0.0,0.0,0.0,0.0,0.0,0.0,0.0,0.0,0.0,0.0,0.0,0.0,0.0,0.0,0.0,0.0,0.0,0.0,0.0,0.0,0.0,0.0,0.0,0.0,0.0,0.0,0.0,0.0,0.0,0.0,0.0,0.0,0.0,0.0,0.0,0.0,0.0,0.0,0.0,0.0,0.0,0.0,0.0,0.0,0.0,0.0,0.0,0.0,3.2282,0.0,0.0,0.0,0.0,0.0,0.0,0.0,0.0,0.0,0.0,0.0,0.0,0.0,0.0,0.0,0.0,0.0,0.0,0.0,0.0,0.0,0.0,0.0,0.0,0.0,0.0,0.0,0.0,0.0,0.0,0.0,0.0,0.0,0.0,0.0,0.0,0.0,0.0,0.0,0.0,0.0,0.0,0.0,0.0,0.0,0.0,0.0,0.0,0.0,0.0,0.0,0.0,0.0,0.0,0.0,0.0,0.0,0.0,0.0,4.7364,4.8116,4.8948,4.8954,4.8192,4.7622,4.611,0.0,0.0,0.0,0.0,0.0,0.0,0.0,0.0,0.0,0.0,0.0,0.0,0.0,0.0,0.0,0.0,0.0,0.0,0.0,0.0,0.0,0.0,0.0,0.0,0.0,0.0,0.0,0.0,0.0,0.0,0.0,0.0,0.0,0.0,0.0,0.0,0.0,0.0,0.0,0.0,0.0,0.0,0.0,0.0,0.0,0.0,0.0,0.0,0.0,0.0,0.0,0.0,0.0,0.0,0.0,0.0,0.0,0.0,0.0,0.0,0.0,0.0,0.0,0.0,0.0,0.0,0.0,0.0,0.0,0.0,0.0,0.0,0.0,0.0,0.0,0.0,0.0,0.0,0.0,0.0,0.0,0.0,0.0,0.0,0.0,0.0,0.0,0.0,0.0,0.0,0.0,0.0,0.0,0.0,0.0,0.0,0.0,0.0,0.0,0.0,0.0,0.0,0.0,0.0,0.0,0.0,0.0,4.674,4.7632,4.9028,4.9502,4.9583,4.9142,4.8545,4.7054,4.4576,0.0,0.0,0.0,0.0,0.0,0.0,0.0,0.0,0.0,0.0,0.0,0.0,0.0,0.0,0.0,0.0,0.0,0.0,0.0,0.0,0.0,0.0,0.0,0.0,0.0,0.0,0.0,0.0,0.0,0.0,0.0,0.0,0.0,0.0,0.0,0.0,0.0,0.0,3.0422,3.0905,0.0,0.0,0.0,0.0,0.0,0.0,0.0,0.0,3.3292,0.0,0.0,0.0,0.0,0.0,0.0,0.0,0.0,0.0,0.0,0.0,0.0,0.0,0.0,0.0,0.0,0.0,0.0,0.0,0.0,0.0,0.0,0.0,0.0,0.0,0.0,0.0,0.0,0.0,0.0,0.0,0.0,0.0,0.0,0.0,0.0,0.0,0.0,0.0,0.0,0.0,0.0,0.0,0.0,0.0,0.0,0.0,0.0,0.0,0.0,0.0,0.0,0.0,0.0,0.0,0.0,4.6307,4.7577,4.8597,4.9083,4.9886,4.9993,4.9142,4.8545,4.7351,4.5403,0.0,0.0,0.0,0.0,0.0,0.0,0.0,0.0,0.0,0.0,0.0,0.0,0.0,0.0,0.0,0.0,0.0,0.0,0.0,0.0,0.0,0.0,0.0,0.0,0.0,0.0,0.0,0.0,0.0,0.0,0.0,0.0,0.0,0.0,0.0,0.0,0.0,0.0,0.0,3.1915,3.2443,0.0,0.0,0.0,0.0,0.0,0.0,0.0,0.0,3.3292,0.0,0.0,0.0,0.0,0.0,0.0,0.0,0.0,0.0,0.0,0.0,0.0,0.0,0.0,0.0,0.0,0.0,0.0,0.0,0.0,0.0,0.0,0.0,0.0,0.0,0.0,0.0,0.0,0.0,0.0,0.0,0.0,0.0,0.0,0.0,0.0,0.0,0.0,0.0,0.0,0.0,0.0,0.0,0.0,0.0,0.0,0.0,0.0,0.0,0.0,0.0,0.0,0.0,0.0,0.0,4.6335,4.7671,4.8581,4.9111,4.9858,5.0014,4.9576,4.8707,4.7541,0.0,0.0,0.0,0.0,0.0,0.0,0.0,0.0,0.0,0.0,0.0,0.0,0.0,0.0,0.0,0.0,0.0,0.0,0.0,0.0,0.0,0.0,0.0,0.0,0.0,0.0,0.0,0.0,0.0,0.0,0.0,0.0,0.0,0.0,0.0,0.0,0.0,0.0,0.0,0.0,3.2328,3.2673,3.3201,0.0,0.0,0.0,0.0,0.0,0.0,3.3292,3.3361,0.0,0.0,0.0,0.0,0.0,0.0,0.0,0.0,0.0,0.0,0.0,0.0,0.0,0.0,0.0,0.0,0.0,0.0,0.0,0.0,0.0,0.0,0.0,0.0,0.0,0.0,0.0,0.0,0.0,0.0,0.0,0.0,0.0,0.0,0.0,0.0,0.0,0.0,0.0,0.0,0.0,0.0,0.0,0.0,0.0,0.0,0.0,0.0,0.0,0.0,0.0,0.0,0.0,0.0,0.0,4.6335,4.7577,4.8586,4.9111,4.9719,5.001,4.9983,4.887,4.7676,0.0,0.0,0.0,0.0,0.0,0.0,0.0,0.0,0.0,0.0,0.0,0.0,0.0,0.0,0.0,0.0,0.0,0.0,0.0,0.0,0.0,0.0,0.0,0.0,0.0,0.0,0.0,0.0,0.0,0.0,0.0,0.0,0.0,0.0,0.0,0.0,0.0,0.0,0.0,0.0,0.0,3.281,3.3224,3.3292,0.0,0.0,0.0,0.0,3.3292,3.3269,0.0,0.0,0.0,0.0,0.0,0.0,0.0,0.0,0.0,0.0,0.0,0.0,0.0,0.0,0.0,0.0,0.0,0.0,0.0,0.0,0.0,0.0,0.0,0.0,0.0,0.0,0.0,0.0,0.0,0.0,0.0,0.0,0.0,0.0,0.0,0.0,0.0,0.0,0.0,0.0,0.0,0.0,0.0,0.0,0.0,0.0,0.0,0.0,0.0,0.0,0.0,0.0,0.0,0.0,0.0,0.0,4.6364,4.8124,4.9028,4.9138,4.9719,5.001,4.9983,4.887,4.7703,0.0,0.0,0.0,0.0,0.0,0.0,0.0,0.0,0.0,0.0,0.0,0.0,0.0,0.0,0.0,0.0,0.0,0.0,0.0,0.0,0.0,0.0,0.0,0.0,0.0,0.0,0.0,0.0,0.0,0.0,0.0,0.0,0.0,0.0,0.0,0.0,0.0,0.0,0.0,0.0,0.0,3.3224,3.3269,3.3292,3.3292,0.0,0.0,3.3292,3.3292,3.3092,0.0,0.0,0.0,0.0,0.0,0.0,0.0,0.0,0.0,0.0,0.0,0.0,0.0,0.0,0.0,0.0,0.0,0.0,0.0,0.0,0.0,0.0,0.0,0.0,0.0,0.0,0.0,0.0,0.0,0.0,0.0,0.0,0.0,0.0,0.0,0.0,0.0,0.0,0.0,0.0,0.0,0.0,0.0,0.0,0.0,0.0,0.0,0.0,0.0,0.0,0.0,0.0,0.0,0.0,0.0,4.6307,4.6364,4.8284,4.9218,4.9138,4.9858,5.015,5.001,4.887,4.7676,0.0,0.0,0.0,0.0,0.0,0.0,0.0,0.0,0.0,0.0,0.0,0.0,0.0,0.0,0.0,0.0,0.0,0.0,0.0,0.0,0.0,0.0,0.0,0.0,0.0,0.0,0.0,0.0,0.0,0.0,0.0,0.0,0.0,0.0,0.0,0.0,0.0,0.0,0.0,0.0,0.0,0.0,3.3292,3.3292,0.0,0.0,0.0,3.3384,3.366,0.0,0.0,0.0,0.0,0.0,0.0,0.0,0.0,0.0,0.0,0.0,0.0,0.0,0.0,0.0,0.0,0.0,0.0,0.0,0.0,0.0,0.0,0.0,0.0,0.0,0.0,0.0,0.0,0.0,0.0,0.0,0.0,0.0,0.0,0.0,0.0,0.0,0.0,0.0,0.0,0.0,0.0,0.0,0.0,0.0,0.0,0.0,0.0,0.0,0.0,0.0,0.0,0.0,0.0,0.0,0.0,0.0,4.656,4.8471,4.938,4.9359,5.005,5.0375,4.9983,4.887,0.0,0.0,0.0,0.0,0.0,0.0,0.0,0.0,0.0,0.0,0.0,0.0,0.0,0.0,0.0,0.0,0.0,0.0,0.0,0.0,0.0,0.0,0.0,0.0,0.0,0.0,0.0,3.1342,0.0,0.0,0.0,0.0,0.0,0.0,0.0,0.0,0.0,0.0,0.0,0.0,0.0,0.0,3.3292,3.3292,3.3292,3.3338,0.0,0.0,3.3637,3.4016,3.3902,3.3862,0.0,0.0,0.0,0.0,0.0,0.0,0.0,0.0,0.0,0.0,0.0,0.0,0.0,0.0,0.0,0.0,0.0,0.0,0.0,0.0,0.0,0.0,0.0,0.0,0.0,0.0,0.0,0.0,0.0,0.0,0.0,0.0,0.0,0.0,0.0,0.0,0.0,0.0,0.0,0.0,0.0,0.0,0.0,0.0,0.0,0.0,0.0,0.0,0.0,0.0,0.0,0.0,0.0,0.0,0.0,4.7207,4.8694,4.9709,4.9939,5.027,5.0375,4.9983,4.887,4.7948,0.0,0.0,0.0,0.0,0.0,0.0,0.0,0.0,0.0,0.0,0.0,0.0,0.0,0.0,0.0,0.0,0.0,0.0,0.0,0.0,0.0,0.0,0.0,0.0,0.0,0.0,0.0,0.0,0.0,0.0,0.0,0.0,0.0,0.0,0.0,0.0,0.0,0.0,0.0,0.0,0.0,3.3292,3.3292,3.3292,3.3453,0.0,3.3958,3.4039,3.423,3.411,3.3972,3.4247,0.0,0.0,0.0,0.0,0.0,0.0,0.0,0.0,0.0,0.0,0.0,0.0,0.0,0.0,0.0,0.0,0.0,0.0,0.0,0.0,0.0,0.0,0.0,0.0,0.0,0.0,0.0,0.0,0.0,0.0,0.0,0.0,0.0,0.0,0.0,0.0,0.0,0.0,0.0,0.0,0.0,0.0,0.0,0.0,0.0,0.0,0.0,0.0,0.0,0.0,0.0,0.0,0.0,4.6588,4.7207,4.8902,4.9923,5.0212,5.0602,5.0599,5.0263,4.898,4.7948,0.0,0.0,0.0,0.0,0.0,0.0,0.0,0.0,0.0,0.0,0.0,0.0,0.0,0.0,0.0,0.0,0.0,0.0,0.0,0.0,0.0,0.0,0.0,0.0,0.0,0.0,0.0,0.0,3.1825,3.1811,3.2007,0.0,0.0,0.0,0.0,0.0,0.0,0.0,0.0,0.0,0.0,3.2858,3.3175,3.322,0.0,0.0,3.3967,3.402,3.4387,3.4263,3.4225,3.4626,3.4472,0.0,0.0,0.0,0.0,0.0,0.0,0.0,0.0,0.0,0.0,0.0,0.0,0.0,0.0,0.0,0.0,0.0,0.0,0.0,0.0,0.0,0.0,0.0,0.0,0.0,0.0,0.0,0.0,0.0,0.0,0.0,0.0,0.0,0.0,0.0,0.0,0.0,0.0,0.0,0.0,0.0,0.0,0.0,0.0,0.0,0.0,0.0,0.0,0.0,0.0,0.0,0.0,4.6785,4.774,4.9202,5.0247,5.0708,5.0933,5.0934,5.046,4.9091,4.8165,0.0,0.0,0.0,0.0,0.0,0.0,0.0,0.0,0.0,0.0,0.0,0.0,0.0,0.0,0.0,0.0,0.0,0.0,0.0,0.0,0.0,0.0,0.0,0.0,0.0,0.0,0.0,0.0,3.2225,3.204,3.1891,0.0,0.0,0.0,0.0,0.0,0.0,0.0,0.0,0.0,0.0,3.2801,3.3137,3.3317,3.3586,3.4078,3.4146,3.4218,3.4687,3.4558,3.4582,3.4803,0.0,0.0,0.0,0.0,0.0,0.0,0.0,0.0,0.0,0.0,0.0,0.0,0.0,0.0,0.0,0.0,0.0,0.0,0.0,0.0,0.0,0.0,0.0,0.0,0.0,0.0,0.0,0.0,0.0,0.0,4.4879,0.0,0.0,0.0,0.0,0.0,0.0,0.0,0.0,0.0,0.0,0.0,0.0,0.0,0.0,0.0,0.0,0.0,0.0,0.0,0.0,0.0,0.0,4.7178,4.8977,4.9623,5.0444,5.132,5.1376,5.1072,5.0487,4.931,4.8545,4.8165,0.0,0.0,0.0,0.0,0.0,0.0,0.0,0.0,0.0,0.0,0.0,0.0,0.0,0.0,0.0,0.0,0.0,0.0,0.0,0.0,0.0,0.0,0.0,0.0,0.0,0.0,3.2846,3.2319,3.1891,0.0,0.0,0.0,0.0,0.0,0.0,0.0,0.0,0.0,0.0,3.2869,3.3182,3.3227,3.363,3.3994,3.4549,3.4531,3.4709,3.4869,3.4958,3.4869,0.0,0.0,0.0,0.0,0.0,0.0,0.0,0.0,0.0,0.0,0.0,0.0,0.0,0.0,0.0,0.0,0.0,0.0,0.0,0.0,0.0,0.0,0.0,0.0,0.0,0.0,0.0,4.7908,4.7437,0.0,0.0,0.0,0.0,0.0,0.0,0.0,0.0,0.0,0.0,0.0,4.6095,4.6292,0.0,0.0,0.0,0.0,0.0,0.0,0.0,0.0,0.0,0.0,0.0,0.0,4.7178,4.8949,4.9623,5.055,5.1649,5.1514,5.1155,5.0795,4.9803,4.8599,4.7106,0.0,0.0,0.0,0.0,0.0,0.0,0.0,0.0,0.0,0.0,0.0,0.0,0.0,0.0,0.0,0.0,0.0,0.0,0.0,0.0,0.0,0.0,0.0,0.0,0.0,3.317,0.0,0.0,0.0,0.0,0.0,0.0,0.0,0.0,0.0,0.0,0.0,3.2443,3.2443,3.284,3.3259,3.359,3.3766,3.4053,0.0,0.0,0.0,0.0,0.0,0.0,0.0,0.0,0.0,0.0,0.0,0.0,0.0,0.0,3.0039,2.9922,2.945,2.8975,2.8975,0.0,0.0,0.0,0.0,0.0,0.0,0.0,0.0,0.0,0.0,0.0,0.0,0.0,0.0,4.9434,0.0,4.8326,0.0,0.0,0.0,0.0,0.0,0.0,0.0,0.0,4.6571,4.6686,4.6616,4.6841,4.6813,0.0,4.6616,4.6083,0.0,0.0,0.0,0.0,0.0,0.0,0.0,0.0,4.7712,4.9286,4.9932,5.0775,5.1731,5.1486,5.1266,5.0878,4.9776,4.83,4.6509,4.543,4.4334,0.0,0.0,0.0,0.0,0.0,0.0,0.0,0.0,0.0,0.0,0.0,0.0,0.0,0.0,0.0,0.0,0.0,0.0,0.0,0.0,0.0,0.0,0.0,3.2869,0.0,0.0,0.0,0.0,0.0,0.0,0.0,0.0,0.0,3.1957,3.2306,3.2634,3.2612,3.3027,3.3442,3.3748,0.0,0.0,0.0,0.0,0.0,0.0,0.0,3.4311,3.3974,3.3974,3.3791,3.3485,3.2827,3.2113,3.1407,0.0,0.0,2.9861,2.9331,2.8993,2.8874,2.8517,2.8277,2.79,2.7521,2.7297,0.0,0.0,0.0,0.0,0.0,0.0,0.0,0.0,4.9942,4.9704,0.0,4.9163,0.0,0.0,0.0,0.0,0.0,4.7148,0.0,0.0,4.7109,4.7291,4.7347,4.7909,4.7881,4.7319,4.7319,4.701,4.6448,4.642,0.0,0.0,0.0,0.0,0.0,0.0,4.8752,4.996,5.055,5.1197,5.1787,5.1514,5.1266,5.0878,4.9228,4.7758,4.6591,4.56,4.4533,4.3131,4.2722,0.0,0.0,0.0,0.0,0.0,0.0,0.0,0.0,0.0,0.0,0.0,0.0,0.0,0.0,0.0,0.0,0.0,0.0,0.0,0.0,3.2969,0.0,0.0,0.0,0.0,0.0,0.0,0.0,0.0,0.0,0.0,3.2503,3.2831,3.3093,3.3093,0.0,0.0,0.0,0.0,3.4401,3.4423,3.4423,3.4444,3.4108,3.4129,3.4038,3.3678,0.0,0.0,3.3348,3.2933,3.2473,3.2129,3.1482,3.0785,2.9774,2.9287,2.8911,2.8553,2.8313,2.7917,2.7539,2.7384,2.7158,5.4791,0.0,0.0,0.0,0.0,5.3253,5.3377,5.3193,5.2915,5.2362,5.16,5.0683,0.0,0.0,0.0,0.0,0.0,0.0,4.807,4.7756,4.8668,4.9174,4.9174,4.937,4.9342,4.9174,4.9174,4.9061,4.8921,4.8921,4.8021,4.6335,0.0,0.0,0.0,0.0,4.8949,5.0522,5.0803,5.1393,5.2433,5.171,5.1183,5.0599,4.9499,4.8517,4.7758,4.6409,4.5311,4.4223,4.3118,0.0,0.0,0.0,0.0,0.0,0.0,0.0,0.0,0.0,0.0,0.0,0.0,0.0,0.0,0.0,0.0,0.0,0.0,0.0,3.3515,3.3186,3.2981,0.0,0.0,0.0,0.0,0.0,0.0,0.0,0.0,0.0,3.3074,3.3378,3.3465,0.0,0.0,3.3982,3.3647,3.3754,3.3861,3.384,3.414,0.0,3.424,3.4517,3.4614,3.401,3.354,3.313,3.2894,3.2534,3.2027,3.1539,3.1172,3.0709,3.0137,2.972,2.9313,2.9053,2.8689,2.8323,2.7957,2.7919,2.786,5.7623,5.6084,5.5407,5.473,5.4176,5.4576,5.4636,5.4449,5.4165,5.3637,5.3054,5.2187,5.1416,5.0618,4.9852,0.0,0.0,0.0,4.9348,4.8893,4.9623,4.996,4.996,4.996,4.996,4.996,4.996,4.996,4.996,4.996,4.923,4.7797,0.0,0.0,4.8836,4.9089,4.9876,5.1169,5.1478,5.2096,5.3051,5.2045,5.1293,5.0703,4.9688,4.8843,4.8246,4.6894,4.5768,4.4729,4.3623,4.2735,0.0,0.0,0.0,0.0,0.0,0.0,0.0,0.0,0.0,0.0,0.0,3.694,3.6747,0.0,0.0,0.0,3.502,3.4495,3.3788,3.3524,0.0,0.0,0.0,0.0,0.0,0.0,0.0,3.3355,3.3573,3.3634,3.3634,3.3634,3.3634,3.3412,3.3669,3.3861,3.3636,0.0,3.3912,3.3912,3.4295,3.4477,3.4244,3.4475,3.4407,3.3694,3.3236,3.2871,3.2647,3.2396,3.2037,3.1539,3.129,3.1058,3.0806,3.0332,2.9879,2.9241,2.8977,2.873,2.8216,2.8157,2.8186,5.9993,5.9716,5.7223,5.5776,5.5068,5.5037,5.5068,5.4974,5.45,5.4279,5.4218,5.3579,5.3,5.2317,5.1816,0.0,5.0823,5.0852,5.0597,5.0101,5.0157,5.0213,5.0241,5.0269,5.0241,5.0269,5.0241,5.0241,5.0269,5.0269,5.0269,5.0241,5.0241,5.0213,5.0129,5.0663,5.1281,5.1927,5.2489,5.3079,5.3641,5.2573,5.156,5.0878,4.982,4.8979,4.8245,4.7189,4.6008,4.4889,4.423,4.3518,4.2656,0.0,0.0,0.0,0.0,0.0,0.0,0.0,0.0,0.0,0.0,0.0,0.0,0.0,0.0,0.0,3.5121,0.0,3.4448,3.4178,0.0,0.0,0.0,3.318,3.318,3.3573,3.3857,3.3857,0.0,0.0,3.4038,3.3834,3.3629,3.3629,3.3586,3.3565,3.3565,3.3989,3.4286,3.417,3.4529,3.4686,3.4113,3.4056,3.3758,3.3296,3.2927,3.2688,3.2584,3.2478,3.2256,3.1982,3.191,3.1763,3.1506,3.1029,3.0591,2.9619,2.9261,2.8993,2.849,2.8306,2.8357,6.1779,6.1286,6.0609,5.9378,5.7839,5.7808,5.7709,5.7511,5.7242,5.6637,5.5922,5.514,5.3863,5.2317,5.1614,5.1104,5.0823,5.11,5.1236,5.1393,5.1843,5.2321,5.277,5.2798,5.2798,5.2798,5.2798,5.2798,5.2798,5.2798,5.2798,5.277,5.2798,5.2321,5.1393,5.1506,5.2124,5.322,5.336,5.3275,5.2931,5.3148,5.2526,5.0932,5.0634,4.9983,4.8952,4.7806,4.6807,4.6061,4.4651,4.3701,4.3251,4.2497,0.0,0.0,0.0,0.0,0.0,0.0,0.0,0.0,0.0,3.7926,3.7805,0.0,3.7191,0.0,3.5329,3.4808,3.468,3.4577,0.0,0.0,3.4273,3.4185,3.4185,3.4272,3.4248,3.4026,3.4118,3.4168,3.3895,3.398,3.3859,3.3623,3.3663,3.3665,3.3455,3.3617,3.3788,3.3829,3.394,3.4085,3.3882,3.3653,3.346,3.3355,3.2826,3.2524,3.2524,3.2218,3.2038,3.191,3.1653,3.1506,3.1377,3.1286,3.1084,3.0591,3.0102,2.9506,2.9142,2.9094,2.9042,6.3533,6.3102,6.2517,6.1489,6.031,5.942,5.8868,5.839,5.7952,5.7432,5.6998,5.6123,5.5042,5.3921,5.3192,5.2693,5.2509,5.2528,5.265,5.263,5.2995,5.3332,5.3669,5.3669,5.3669,5.3669,5.3669,5.3669,5.3669,5.3669,5.3669,5.3669,5.3669,5.3445,5.3051,5.277,5.3107,5.4063,5.4344,5.4139,5.3558,5.3613,5.2966,5.1367,5.1041,5.0335,4.9169,4.802,4.71,4.6488,4.5046,4.4144,4.4037,4.3063,4.246,0.0,0.0,0.0,0.0,0.0,0.0,0.0,0.0,0.0,0.0,0.0,3.7263,3.6637,3.5931,3.5451,3.5451,3.5165,3.4997,3.4997,3.4692,3.46,3.4797,3.4727,3.4701,3.469,3.4465,3.4286,3.3914,3.3886,3.3714,3.3475,3.3653,3.3669,3.3407,3.3475,3.3639,3.3659,3.3902,3.3937,3.3689,3.3387,3.3184,3.2931,3.2549,3.2166,3.2166,3.191,3.1653,3.1653,3.1506,3.1377,3.1377,3.1377,3.1377,3.1083,3.057,2.993,2.9655,2.9422,2.9299,6.5165,6.5042,6.3749,6.2948,6.2517,6.0577,5.9417,5.8777,5.817,5.7737,5.7453,5.6716,5.6124,5.582,5.5198,5.4759,5.4537,5.4232,5.3951,5.3782,5.3782,5.3838,5.3894,5.3922,5.3894,5.3894,5.3894,5.3894,5.3894,5.3894,5.3894,5.3922,5.3894,5.4175,5.4653,5.4175,5.4175,5.4709,5.5215,5.5172,5.4607,5.4055,5.3241,5.1964,5.1339,5.0498,4.9413,4.8181,4.726,4.6727,4.552,4.4853,4.4826,4.3764,4.3131,0.0,4.1613,0.0,0.0,0.0,0.0,0.0,0.0,0.0,0.0,3.7536,3.7274,3.6712,3.6495,3.6254,3.6254,3.5798,3.5512,3.5512,3.5001,3.4862,3.5255,3.5114,3.5035,3.5445,3.4922,3.4491,3.4134,3.3817,3.3638,3.3357,3.3496,3.3556,3.3276,3.3496,3.386,3.3737,3.3933,3.3737,3.3379,3.3038,3.2676,3.2422,3.2038,3.1782,3.1782,3.1635,3.1377,3.1377,3.1377,3.1396,3.1433,3.1469,3.1488,3.145,3.0947,3.0502,2.997,2.9613,2.9384,6.6519,6.6457,6.5402,6.4504,6.3923,6.2455,6.1478,6.0814,6.0193,5.9027,5.7642,5.6966,5.6347,5.5713,5.4979,5.4537,5.4426,5.4007,5.4064,5.4428,5.44,5.4681,5.5131,5.5159,5.5159,5.5159,5.5159,5.5159,5.5159,5.5159,5.5159,5.5159,5.5159,5.5215,5.5327,0.0,0.0,0.0,5.544,5.5172,5.4607,5.4497,5.3755,5.2561,5.1964,0.0,5.058,4.8986,4.8033,4.79,4.6336,0.0,0.0,0.0,0.0,0.0,0.0,0.0,0.0,0.0,0.0,0.0,3.9411,3.8776,3.8262,3.7402,3.6712,3.6386,3.6363,3.6254,3.6277,3.6092,3.5983,3.6005,3.5795,3.5736,3.5823,3.5591,3.5285,3.5115,3.51,3.4852,3.4389,3.4432,3.4409,3.3749,3.3618,3.3281,3.3058,3.3473,3.3783,3.3572,3.3107,3.2804,3.2549,3.2313,3.2204,3.191,3.1653,3.1525,3.1561,3.1543,3.1396,3.1414,3.1377,3.1506,3.1818,3.1891,3.1851,3.1896,3.155,3.1123,3.0389,2.9969,2.9795,6.7151,0.0,6.604,6.5353,0.0,6.3894,6.3069,6.245,6.1134,5.9874,5.8667,5.8009,5.7353,5.6669,5.582,5.5367,5.5254,5.4798,5.4737,5.5046,5.5046,5.5187,5.5496,5.5496,5.5496,5.5524,5.5805,5.5945,5.5973,5.6283,5.6423,5.6423,5.6451,5.6423,5.6423,5.6423,5.6283,5.5945,5.5945,5.5591,5.5049,5.5049,5.4369,5.275,5.2425,0.0,0.0,0.0,0.0,0.0,0.0,0.0,0.0,0.0,0.0,4.472,4.3587,4.2774,4.2528,4.1662,4.1076,4.0559,3.9604,3.8836,3.8342,3.7618,3.7234,3.7012,3.7035,3.7012,3.7035,3.6703,3.6521,3.6521,3.617,3.6042,3.6282,3.5972,3.5703,3.5678,3.5286,3.482,3.4472,3.4386,3.4153,3.3544,3.3292,3.3058,3.2804,3.2912,3.3038,3.2912,3.2657,3.2369,3.2429,3.2337,3.2171,3.2189,3.2114,3.1983,3.1983,3.1983,3.1983,3.1983,3.1983,3.2074,3.2221,3.2162,3.1951,3.1998,3.1666,3.1173,3.0751,3.0438,3.0155,6.7561,6.7382,6.6391,6.5884,6.5618,6.4838,6.4038,6.3328,0.0,0.0,0.0,5.9041,5.8464,5.7945,5.7081,5.6506,5.6301,5.595,5.5833,5.5833,5.5833,5.5833,5.5833,5.5833,5.5833,5.5861,5.6339,5.6592,5.662,5.7126,5.7378,5.7378,5.7378,5.7378,5.7378,5.7378,5.7182,5.676,5.6648,5.6233,5.5657,5.5546,5.4781,5.3049,5.2805,5.2235,5.1258,5.0432,4.9496,4.8592,4.7755,4.7073,4.663,4.6124,4.5731,4.5565,4.4411,4.3512,4.3094,4.2462,4.1801,4.0903,4.0012,3.9128,3.8341,3.7952,3.7793,3.7793,3.7793,3.7793,3.7679,3.7313,3.7036,3.692,3.6523,3.6391,3.6762,3.6209,3.5976,3.6215,3.5603,3.4919,3.4544,3.4392,3.3906,3.3289,3.3219,3.2886,3.2501,3.2483,3.2611,3.2558,3.2485,3.2412,3.2525,3.2487,3.2504,3.2611,3.2551,3.2606,3.2606,3.2606,3.2606,3.2533,3.2588,3.2606,3.2545,3.2295,3.2043,3.198,3.159,3.1216,3.1062,3.0789,3.0617,6.8145,6.7877,6.6852,6.6341,6.6311,6.5024,6.3831,6.2641,6.1263,6.0354,5.9682,5.9045,5.8782,5.8665,5.7961,5.7548,5.7576,5.7218,5.7126,5.7126,5.7126,5.7126,5.7126,5.7126,5.7126,5.7126,5.721,5.7238,5.7266,5.735,5.7378,5.7407,5.7378,5.7407,5.7378,5.7378,5.7603,5.7997,5.7519,5.6903,5.6265,5.5767,5.5166,5.4216,5.3239,5.2642,5.2452,5.1647,5.073,4.9764,4.8974,4.81,4.7257,4.6627,4.6114,4.5591,4.4411,4.3684,4.361,4.302,4.2377,4.173,4.1275,4.0287,3.8712,3.8045,3.7793,3.7793,3.7885,3.7679,3.7474,3.7537,3.7456,3.7244,3.7176,3.7221,3.7309,3.6703,3.638,3.6486,3.5894,3.5387,3.5027,3.4903,3.4713,3.412,3.3612,3.3313,3.2728,3.2524,3.26,3.2861,3.2821,3.2593,3.2629,3.2648,3.2703,3.257,3.2643,3.2698,3.2698,3.2698,3.2698,3.2625,3.268,3.2637,3.2621,3.2539,3.2391,3.2069,3.1861,3.1739,3.146,3.1337,3.1251,6.8365,6.8183,6.7185,6.6672,6.6368,6.5074,6.3965,6.3105,6.1779,6.0874,6.0146,5.9562,5.9061,5.8703,5.8121,5.7712,5.762,5.7499,5.7378,5.7378,5.7378,5.7378,5.7378,5.7378,5.7378,5.7407,5.7744,5.7884,5.7912,5.8221,5.8362,5.8362,5.839,5.8362,5.839,5.839,5.8502,5.8783,5.8071,5.7366,5.6872,5.65,5.5826,5.5003,5.4107,5.351,5.3212,5.2496,5.1546,5.0484,5.0073,4.9429,4.8747,4.8066,4.7452,4.6975,4.571,4.4741,4.4151,4.3143,4.228,4.1821,4.1555,4.0912,3.9859,3.9584,3.9423,3.9423,3.9446,3.9304,3.9209,3.8935,3.8685,3.8586,3.8297,3.816,3.8037,3.7541,3.7167,3.7042,3.6349,3.5706,3.5469,3.5091,3.4707,3.4068,3.3539,3.3081,3.29,3.2924,3.2892,3.2873,3.2721,3.2698,3.2881,3.2936,3.3028,3.3211,3.3248,3.3266,3.3266,3.3248,3.3112,3.2993,3.2993,3.2911,3.2677,3.2418,3.221,3.2158,3.1982,3.17,3.17,3.1559,3.1508,6.8602,6.8298,6.7418,6.6748,6.6198,6.5198,6.4268,6.3531,6.2514,6.1566,6.0811,6.0036,5.9451,5.8937,5.8362,5.8015,5.78,5.78,5.78,5.78,5.78,5.78,5.78,5.78,5.78,5.7856,5.8278,5.8502,5.8559,5.898,5.9205,5.9205,5.9205,5.9205,5.9205,5.9205,5.9205,5.9177,5.8383,5.7758,5.7508,5.6993,5.644,5.5627,5.5003,5.4487,5.4026,5.3429,5.2593,5.1522,5.1123,5.0751,5.0018,4.9637,4.9064,4.8212,4.7157,4.6044,4.4988,4.3577,4.2682,4.2315,4.1953,4.1538,4.1168,4.1168,4.1053,4.0869,4.0732,4.0755,4.0464,4.014,3.9814,3.969,3.9214,3.8772,3.869,3.8186,3.7806,3.7678,3.6738,3.6042,3.5912,3.5468,3.4887,3.4127,3.3285,3.301,3.3285,3.3358,3.3211,3.2991,3.2863,3.301,3.3303,3.3358,3.3468,3.378,3.378,3.3743,3.3743,3.378,3.3539,3.3345,3.3224,3.2927,3.2684,3.2386,3.2088,3.1965,3.1841,3.1559,3.1559,3.1559,3.1559,6.89,6.7986,6.7647,6.676,6.563,6.5387,6.4629,6.3573,6.3331,6.2578,6.1358,6.0279,5.9645,5.9645,5.9161,5.898,5.898,5.9036,5.9008,5.9008,5.9036,5.9036,5.898,5.9008,5.9036,5.9008,5.9064,5.9064,5.9064,5.9177,5.9233,5.9205,5.9205,5.9261,5.9233,5.9261,5.9233,5.9205,5.8522,5.8115,5.8088,5.7212,5.6658,5.6224,5.5627,5.5301,5.5193,5.465,5.3904,5.2971,5.2527,5.1803,5.059,5.0933,5.0594,4.8897,4.823,4.7283,4.628,4.5062,4.4199,4.3843,4.3168,4.2557,4.2201,4.2201,4.1788,4.1168,4.0892,4.0769,4.0432,4.013,3.9824,3.9597,3.9176,3.8816,3.8777,3.8186,3.7806,3.7806,3.7177,3.6618,3.6395,3.6216,3.5801,3.4812,3.4109,3.3578,3.367,3.3688,3.3688,3.3651,3.367,3.367,3.3725,3.3762,3.3743,3.3817,3.3817,3.3817,3.3817,3.3539,3.3278,3.3278,3.2981,3.2561,3.2263,3.2105,3.1965,3.1841,3.17,3.1559,3.1559,3.1559,3.1559,6.9393,6.878,6.7909,6.6723,6.5533,6.5094,6.4595,6.408,6.3293,6.2594,6.2025,6.0949,6.0259,5.9865,5.9402,5.9205,5.9205,5.9205,5.9205,5.9205,5.9205,5.9205,5.9205,5.9205,5.9205,5.9205,5.9205,5.9205,5.9205,5.9205,5.9402,5.9711,5.9767,5.9935,6.0301,6.0329,6.0329,6.0329,5.9662,5.911,5.8567,5.7633,5.6949,5.6766,5.6251,5.5952,5.5871,5.5355,5.4797,5.4154,5.3512,5.289,5.1962,5.1747,5.0935,4.9512,4.8109,4.7055,4.6421,4.5718,4.5214,4.4572,4.4255,4.3881,4.3211,4.3211,4.3005,4.2614,4.2063,4.1594,4.1445,4.0964,4.0583,4.0456,4.0074,3.9689,3.9689,3.9024,3.8635,3.8527,3.7888,3.7217,3.6817,3.6285,3.5724,3.4921,3.4508,3.4131,3.3835,3.3817,3.3817,3.3817,3.3817,3.3817,3.3817,3.3817,3.3817,3.3817,3.3817,3.3817,3.3678,3.3539,3.3278,3.2999,3.2561,3.2263,3.1841,3.1841,3.17,3.1559,3.1559,3.1559,3.1559,3.1559,3.1559,6.9853,6.9238,6.7864,6.6559,6.5484,6.4798,6.4354,6.4037,6.3192,6.2762,6.2575,6.1751,6.1088,6.061,5.9992,5.9739,5.9739,5.9739,5.9739,5.9739,5.9739,5.9739,5.9739,5.9739,5.9739,5.9739,5.9767,5.9739,5.9739,5.9739,5.9964,6.0329,6.0413,6.0638,6.1031,6.1088,6.1088,6.1088,6.0413,5.9903,5.9358,5.84,5.7656,5.7201,5.6766,5.6549,5.6522,5.598,5.5528,5.5249,5.45,5.3827,5.3382,5.2514,5.1562,5.0332,4.8582,4.7415,4.7012,4.648,4.5892,4.5243,4.5018,4.4641,4.394,4.3808,4.3808,4.3716,4.3165,4.2729,4.2601,4.2108,4.1719,4.1719,4.1066,4.0672,4.0672,4.0123,3.9747,3.9481,3.8812,3.7983,3.7441,3.6524,3.5735,3.5319,3.5003,3.4566,3.4287,3.4183,3.4165,3.4147,3.4165,3.4055,3.389,3.3817,3.3817,3.3817,3.3817,3.3817,3.3678,3.34,3.2981,3.2544,3.2263,3.1982,3.17,3.17,3.1559,3.1559,3.1559,3.1559,3.1559,3.1559,3.1277,7.0241,6.9139,6.7225,6.6054,6.5289,6.4771,6.4095,6.3545,6.3357,6.3122,6.2745,6.224,6.1959,6.1846,6.1256,6.1003,6.0975,6.0919,6.0891,6.0891,6.0919,6.0975,6.1031,6.1003,6.0975,6.0835,6.0835,6.0891,6.0919,6.0975,6.1031,6.1059,6.1059,6.1088,6.12,6.1228,6.1144,6.1228,6.084,6.044,5.9966,5.9545,5.8707,5.7391,5.7174,5.7146,5.7092,5.6577,5.6251,5.6251,5.5653,5.5076,5.4373,5.3681,5.2621,5.1434,5.0006,4.8993,4.8371,4.7385,4.6442,4.5715,4.5254,4.4687,4.4101,4.3969,4.3969,4.3854,4.3831,4.3739,4.3739,4.3122,4.2592,4.2615,4.197,4.168,4.1568,4.1234,4.0958,4.0507,4.0035,3.9151,3.8404,3.7367,3.6566,3.6142,3.5755,3.5309,3.4986,3.4899,3.488,3.488,3.4844,3.4697,3.4037,3.4,3.3963,3.389,3.3945,3.3714,3.3278,3.2981,3.2561,3.2263,3.1982,3.17,3.1559,3.1559,3.1559,3.1559,3.1559,3.1559,3.1418,3.1277,3.0993,6.988,6.8605,6.7479,6.6417,6.5376,6.465,6.4074,6.3442,6.3178,6.3046,6.2886,6.2689,6.2605,6.2577,6.238,6.1846,6.1144,6.1088,6.1088,6.1088,6.1088,6.1088,6.1088,6.1088,6.1088,6.1088,6.1088,6.1088,6.1088,6.1088,6.1312,6.165,6.1678,6.1846,6.2183,6.2268,6.2268,6.2268,6.1873,6.1413,6.0601,6.0309,5.9527,5.8395,5.796,5.7743,5.7743,5.7174,5.6875,5.6875,5.6699,5.6068,5.4986,5.3556,5.2516,5.1918,5.0946,4.99,4.9141,4.8523,4.7593,4.6594,4.6139,4.5732,4.5198,4.493,4.4796,4.4773,4.4796,4.4796,4.4658,4.3845,4.3038,4.2794,4.2393,4.2012,4.1699,4.1451,4.1044,4.0635,3.995,3.9101,3.8606,3.7867,3.7164,3.6437,3.6029,3.5762,3.5171,3.5027,3.5064,3.5045,3.5027,3.4935,3.4715,3.4605,3.455,3.4312,3.4183,3.3915,3.3423,3.3071,3.2614,3.2192,3.1893,3.1559,3.1559,3.1559,3.1559,3.1559,3.1559,3.1418,3.1294,3.0993,3.071,6.9604,6.856,6.766,6.6711,6.5773,6.4813,6.3989,6.3565,6.3131,6.2914,6.2914,6.2914,6.2914,6.2914,6.2914,6.2521,6.1734,6.1706,6.1706,6.1706,6.1706,6.1678,6.1678,6.1706,6.1706,6.1706,6.1678,6.1706,6.1678,6.1706,6.1902,6.2296,6.2324,6.2521,6.2858,6.2914,6.2914,6.2781,6.2676,6.2159,6.1398,6.1048,6.0481,5.983,5.9097,5.8557,5.8367,5.7798,5.7472,5.7472,5.7162,5.6501,5.5181,5.3843,5.2899,5.2481,5.1657,5.0712,4.9865,4.9365,4.8681,4.7647,4.7028,4.6529,4.6122,4.5734,4.5506,4.537,4.537,4.537,4.5232,4.4592,4.3802,4.3399,4.3017,4.261,4.218,4.2065,4.1675,4.1124,4.0313,3.9573,3.897,3.8587,3.7896,3.6856,3.6713,3.6281,3.5702,3.5412,3.5412,3.5412,3.5449,3.5485,3.5412,3.5394,3.5082,3.4807,3.4463,3.4121,3.3675,3.3126,3.2756,3.2297,3.1945,3.1735,3.1559,3.1559,3.1559,3.1559,3.1418,3.1277,3.0993,3.0726,3.0425,6.9604,6.9086,6.7863,6.7035,6.6479,6.5135,6.4166,6.3645,6.3195,6.2998,6.2942,6.2914,6.2914,6.2914,6.2914,6.2886,6.2773,6.2717,6.2745,6.2745,6.2773,6.2773,6.2773,6.2717,6.2717,6.2745,6.2858,6.2858,6.2773,6.2802,6.2886,6.2914,6.2998,6.3083,6.2998,6.3111,6.3054,6.3083,6.3139,6.276,6.2409,6.1951,6.1491,6.1138,6.024,5.9589,5.9073,5.8422,5.8069,5.8015,5.7112,5.616,5.5339,5.4541,5.4066,5.3228,5.2481,5.153,5.0432,4.9952,4.9358,4.8458,4.7714,4.7068,4.6724,4.6011,4.5507,4.5461,4.5438,4.5393,4.5393,4.5255,4.4937,4.4366,4.3818,4.3404,4.3193,4.3119,4.2861,4.2052,4.1163,4.0555,3.9838,3.9306,3.8688,3.7982,3.7563,3.7085,3.6607,3.6165,3.6127,3.6127,3.5999,3.5907,3.6054,3.6127,3.5687,3.5284,3.4974,3.4648,3.3875,3.3446,3.2893,3.2377,3.1993,3.1765,3.1559,3.1559,3.1559,3.1418,3.1277,3.0993,3.071,3.0442,3.014,6.947,6.8934,6.7918,6.7301,6.6657,6.5685,6.4764,6.3813,6.3588,6.3307,6.297,6.2914,6.2914,6.2942,6.2914,6.2942,6.2914,6.2914,6.2942,6.297,6.2942,6.2914,6.2914,6.2942,6.2914,6.2914,6.2914,6.2942,6.3026,6.3335,6.3532,6.3588,6.3954,6.4178,6.415,6.4178,6.4178,6.4178,6.4207,6.3875,6.3078,6.2724,6.215,6.1329,6.0702,6.0403,6.0185,5.9263,5.8747,5.8693,5.7542,5.6531,5.5736,5.4939,5.4299,5.3766,5.3335,5.2402,5.0949,5.0578,5.0157,4.9019,4.8254,4.7769,4.7607,4.6889,4.6219,4.5967,4.5875,4.576,4.5461,4.537,4.5142,4.4411,4.4135,4.3858,4.3302,4.3023,4.2581,4.2018,4.1594,4.1046,4.031,3.9734,3.9301,3.8428,3.7843,3.7255,3.6812,3.6516,3.6201,3.6201,3.6201,3.6201,3.6201,3.6201,3.5981,3.5541,3.5394,3.4957,3.434,3.3727,3.3151,3.2636,3.2107,3.1885,3.1679,3.1559,3.1418,3.1277,3.0993,3.071,3.0299,3.0014,2.9855,6.947,6.8692,6.7982,6.7479,6.6971,6.6085,6.5246,6.4516,6.4235,6.3954,6.3673,6.3616,6.3616,6.3616,6.3616,6.3616,6.3588,6.3616,6.3588,6.3504,6.3054,6.2942,6.297,6.3167,6.3251,6.3307,6.3504,6.3616,6.3645,6.3954,6.415,6.4263,6.4572,6.474,6.4769,6.4769,6.4769,6.4769,6.474,6.4436,6.3855,6.3334,6.2729,6.2124,6.1465,6.1081,6.1,6.0158,5.9561,5.9075,5.7918,5.6771,5.6133,5.5229,5.4537,5.4132,5.37,5.3002,5.1743,5.1418,5.0881,4.9987,4.9078,4.8426,4.8239,4.7586,4.6841,4.6472,4.6403,4.6288,4.6012,4.5944,4.5644,4.5089,4.4613,4.4019,4.3324,4.3023,4.2581,4.2159,4.1735,4.1331,4.0453,4.0002,3.9425,3.8865,3.799,3.7402,3.696,3.6516,3.6367,3.6219,3.6201,3.6201,3.6201,3.6201,3.6201,3.5924,3.5649,3.5226,3.4622,3.3951,3.3482,3.2861,3.2296,3.2073,3.1867,3.1503,3.1294,3.101,3.0885,3.0425,2.9997,2.9728,2.9585,6.947,6.8692,6.7982,6.7679,6.7427,6.6282,6.5696,6.5527,6.505,6.474,6.4684,6.4572,6.4628,6.4684,6.4572,6.4544,6.4712,6.46,6.4572,6.4319,6.3701,6.3223,6.3307,6.3673,6.3841,6.3954,6.4375,6.4628,6.4572,6.474,6.4825,6.4825,6.4937,6.4909,6.505,6.4909,6.5021,6.505,6.4993,6.4965,6.4825,6.4082,6.3584,6.3474,6.234,6.1624,6.1434,6.0918,6.0375,5.9806,5.8134,5.7037,5.653,5.568,5.4775,5.4158,5.3997,5.3427,5.2604,5.1861,5.1558,5.1017,5.0002,4.9226,4.8756,4.8052,4.7374,4.6954,4.6908,4.6885,4.6793,4.6747,4.6607,4.6139,4.5017,4.4013,4.3324,4.3206,4.2851,4.2266,4.194,4.1699,4.0802,4.0205,3.977,3.9354,3.8495,3.7796,3.75,3.7092,3.6496,3.6384,3.6494,3.6439,3.6494,3.6439,3.6402,3.6034,3.5664,3.5163,3.4794,3.4154,3.3631,3.299,3.2552,3.233,3.1946,3.1616,3.1321,3.1019,3.07,3.0189,2.9728,2.9585,2.9473,6.947,6.8692,6.7982,6.7679,6.7512,6.6677,6.6089,6.5696,6.5527,6.5218,6.4881,6.4769,6.4825,6.4769,6.4797,6.4769,6.4825,6.4825,6.4769,6.4712,6.4488,6.4291,6.4291,6.4431,6.4516,6.4544,6.474,6.4769,6.4797,6.5246,6.5443,6.5471,6.5836,6.6061,6.6117,6.6033,6.6117,6.6117,6.6089,6.5836,6.5333,6.4722,6.4054,6.3473,6.2778,6.2058,6.1624,6.1081,6.0511,5.9941,5.8939,5.7863,5.701,5.6182,5.5221,5.4235,5.3997,5.3589,5.2629,5.2099,5.1656,5.1211,5.0362,4.9748,4.9321,4.8941,4.8233,4.7716,4.7436,4.7298,4.7,4.6908,4.6626,4.5924,4.5073,4.4162,4.3499,4.3468,4.3382,4.2714,4.2805,4.2499,4.1793,4.1081,4.062,4.0344,3.9434,3.8536,3.816,3.7727,3.7218,3.7044,3.7118,3.6934,3.6806,3.6732,3.6567,3.6125,3.5736,3.5121,3.4636,3.4267,3.3759,3.3203,3.2998,3.2775,3.2373,3.1989,3.1565,3.0982,3.0562,3.0049,2.9649,2.9329,2.9377,6.947,6.8692,6.7982,6.7679,6.7541,6.6847,6.637,6.6117,6.6061,6.5892,6.5583,6.5527,6.5527,6.5527,6.5527,6.5527,6.5527,6.5527,6.5555,6.5555,6.5555,6.5246,6.4937,6.4965,6.5134,6.519,6.5415,6.5527,6.5612,6.5892,6.6033,6.6117,6.6426,6.6595,6.6539,6.6595,6.6595,6.6567,6.6595,6.6398,6.6089,6.5361,6.4941,6.4245,6.3488,6.2546,6.1705,6.1298,6.0864,6.0212,5.9314,5.8449,5.781,5.6551,5.5507,5.4602,5.4286,5.3589,5.2904,5.2213,5.1656,5.1376,5.0813,5.0104,4.9652,4.9245,4.8794,4.8154,4.7964,4.7803,4.7597,4.7505,4.7105,4.6495,4.5774,4.499,4.396,4.4014,4.386,4.3536,4.3252,4.3297,4.2564,4.1677,4.1211,4.0893,3.9935,3.9182,3.8747,3.8366,3.7963,3.7693,3.7503,3.7301,3.7173,3.7099,3.6709,3.6249,3.5695,3.5078,3.4574,3.4122,3.385,3.3511,3.3374,3.3203,3.2634,3.2233,3.1446,3.0989,3.0373,3.0002,2.9824,2.9584,2.96,6.947,6.8799,6.8119,6.7679,6.7541,6.7014,6.6567,6.6567,6.6539,6.6511,6.6483,6.6539,6.6426,6.6595,6.6342,6.6511,6.6511,6.6398,6.6454,6.6426,6.637,6.5977,6.5274,6.5583,6.5752,6.5836,6.637,6.6454,6.6398,6.6511,6.6567,6.6511,6.6567,6.6595,6.6595,6.6595,6.6595,6.6595,6.6595,6.6567,6.6342,6.5778,6.5324,6.4929,6.398,6.2926,6.2139,6.1678,6.1325,6.0891,5.9609,5.8849,5.8472,5.6972,5.593,5.5313,5.4517,5.4014,5.3341,5.2352,5.182,5.1681,5.1119,5.0412,4.9652,4.9509,4.9054,4.8308,4.8377,4.8286,4.8263,4.8308,4.7957,4.7182,4.678,4.6,4.5134,4.4692,4.4525,4.4112,4.3675,4.3425,4.2837,4.2076,4.1373,4.1545,4.0597,4.0007,3.9395,3.8953,3.8471,3.7796,3.7723,3.7613,3.7539,3.7484,3.702,3.6558,3.5779,3.5033,3.4307,3.3988,3.3837,3.3751,3.3597,3.3327,3.2909,3.2209,3.1515,3.1055,3.0614,3.0351,3.0235,3.0076,3.0013,6.9604,6.9098,6.8421,6.7982,6.7679,6.7293,6.6875,6.6595,6.6595,6.6595,6.6595,6.6595,6.6595,6.6595,6.6595,6.6595,6.6595,6.6595,6.6595,6.6595,6.6595,6.6483,6.6173,6.6314,6.6342,6.6398,6.6511,6.6595,6.6595,6.6595,6.6595,6.6595,6.6595,6.6595,6.6595,6.6595,6.6595,6.6595,6.6595,6.6455,6.6173,6.5775,6.5347,6.4978,6.4055,6.336,6.2926,6.2112,6.1457,6.0935,6.0034,5.9083,5.8408,5.7676,5.6686,5.5598,5.504,5.4347,5.3442,5.2491,5.182,5.1681,5.1119,5.0412,4.9652,4.9509,4.9078,4.8523,4.8377,4.8377,4.8377,4.8377,4.8163,4.7736,4.7276,4.6815,4.6242,4.5515,4.5048,4.4629,4.4549,4.4336,4.3886,4.307,4.2464,4.2068,4.1436,4.0859,4.0202,3.9523,3.8981,3.8264,3.8126,3.8034,3.7888,3.7641,3.7195,3.6696,3.5914,3.5041,3.4295,3.3837,3.3837,3.3837,3.3785,3.3381,3.2978,3.2526,3.1811,3.1397,3.0868,3.0687,3.0521,3.0442,3.0458,6.9869,6.9203,6.8799,6.8256,6.7679,6.7293,6.7014,6.6595,6.6595,6.6595,6.6595,6.6595,6.6595,6.6595,6.6595,6.6595,6.6595,6.6595,6.6595,6.6595,6.6595,6.6595,6.6595,6.6595,6.6595,6.6595,6.6595,6.6595,6.6595,6.6595,6.6595,6.6595,6.6595,6.6595,6.6595,6.6595,6.6595,6.6595,6.6595,6.6455,6.6031,6.5633,6.5204,6.4717,6.4129,6.374,6.3333,6.2432,6.1555,6.073,5.9827,5.9122,5.8639,5.807,5.7077,5.5986,5.522,5.4474,5.3493,5.2491,5.182,5.182,5.1119,5.0388,4.9818,4.9509,4.9078,4.8667,4.8377,4.8377,4.8377,4.8377,4.8232,4.8086,4.7479,4.7186,4.6847,4.608,4.5653,4.523,4.4934,4.472,4.4352,4.3615,4.2984,4.2362,4.1922,4.117,4.0394,3.9888,3.9456,3.8966,3.8706,3.8493,3.831,3.7951,3.7366,3.6695,3.6012,3.5152,3.4366,3.4025,3.3837,3.3837,3.382,3.3365,3.2944,3.2508,3.2139,3.1517,3.1134,3.0871,3.0839,3.0902,3.0934,7.0002,6.9337,6.9068,6.8499,6.7816,6.7431,6.7014,6.6735,6.6595,6.6595,6.6595,6.6595,6.6595,6.6595,6.6595,6.6595,6.6595,6.6595,6.6595,6.6595,6.6595,6.6595,6.6595,6.6595,6.6595,6.6595,6.6595,6.6595,6.6595,6.6595,6.6595,6.6595,6.6595,6.6595,6.6595,6.6595,6.6595,6.6595,6.6455,6.6314,6.589,6.549,6.506,6.4428,6.4256,6.4039,6.3461,6.2722,6.1702,6.066,5.9678,5.922,5.8841,5.8245,5.7416,5.6426,5.5632,5.4679,5.367,5.259,5.182,5.1681,5.0978,5.0246,4.9652,4.9365,4.9101,4.8667,4.8377,4.8377,4.8377,4.8377,4.8377,4.8232,4.7648,4.7332,4.7038,4.6448,4.5959,4.581,4.5362,4.4955,4.4504,4.3919,4.3136,4.2524,4.2082,4.1618,4.0821,4.0197,3.9726,3.9272,3.8798,3.864,3.8493,3.8244,3.7831,3.7036,3.6177,3.5432,3.459,3.4213,3.4025,3.3871,3.3685,3.3365,3.3061,3.2657,3.2201,3.1686,3.1331,3.1157,3.122,3.1363,3.1331,7.0104,6.9737,6.9337,6.8799,6.8148,6.7707,6.7431,6.7014,6.6735,6.6595,6.6595,6.6595,6.6595,6.6595,6.6595,6.6595,6.6595,6.6595,6.6595,6.6595,6.6595,6.6595,6.6595,6.6595,6.6595,6.6595,6.6595,6.6595,6.6595,6.6595,6.6595,6.6595,6.6595,6.6595,6.6595,6.6595,6.6595,6.6595,6.6314,6.6031,6.5633,6.5176,6.4745,6.431,6.431,6.4229,6.3921,6.3118,6.2265,6.1247,6.0233,5.9447,5.8743,5.8392,5.7744,5.6892,5.6044,5.4898,5.3696,5.2461,5.173,5.1236,5.0672,5.0104,4.9652,4.9245,4.898,4.8523,4.8377,4.8377,4.8377,4.8377,4.8377,4.8232,4.7794,4.7186,4.7038,4.6596,4.6002,4.6002,4.5555,4.5106,4.4654,4.4201,4.3594,4.283,4.237,4.1927,4.1152,4.0509,3.9726,3.943,3.8956,3.8798,3.8603,3.8408,3.8104,3.7202,3.6375,3.5729,3.502,3.4607,3.4248,3.3974,3.3685,3.3365,3.3061,3.274,3.2146,3.1533,3.1549,3.1395,3.1395,3.1395,3.1395,7.0528,7.0134,6.9737,6.9203,6.8528,6.7953,6.7569,6.7154,6.6735,6.6595,6.6595,6.6595,6.6595,6.6595,6.6595,6.6595,6.6595,6.6595,6.6595,6.6595,6.6595,6.6595,6.6595,6.6595,6.6595,6.6595,6.6595,6.6595,6.6595,6.6595,6.6595,6.6595,6.6595,6.6595,6.6595,6.6595,6.6595,6.6455,6.6173,6.5747,6.549,6.4889,6.4455,6.431,6.431,6.4165,6.3765,6.3016,6.2137,6.1118,6.0079,5.9241,5.8679,5.816,5.7837,5.6843,5.6136,5.5013,5.3618,5.2421,5.1681,5.1211,5.053,4.9961,4.9532,4.9245,4.8835,4.8546,4.8377,4.8377,4.8377,4.8377,4.8377,4.8232,4.7648,4.7332,4.7038,4.6448,4.6151,4.6002,4.5555,4.5256,4.4805,4.4352,4.3767,4.3289,4.2677,4.2062,4.1463,4.0841,4.004,3.943,3.8956,3.864,3.864,3.8621,3.8286,3.7417,3.6711,3.6062,3.5383,3.4796,3.4265,3.3922,3.3702,3.3534,3.3061,3.2588,3.2146,3.1686,3.1549,3.1395,3.1395,3.1395,3.1395,7.0789,7.0397,7.0002,6.947,6.877,6.8119,6.7569,6.7293,6.6875,6.6735,6.6595,6.6595,6.6595,6.6595,6.6595,6.6595,6.6595,6.6595,6.6595,6.6595,6.6595,6.6595,6.6595,6.6595,6.6595,6.6595,6.6595,6.6595,6.6595,6.6595,6.6595,6.6595,6.6595,6.6595,6.6595,6.6595,6.6595,6.6314,6.6173,6.5747,6.5204,6.46,6.431,6.431,6.431,6.4165,6.3673,6.3058,6.198,6.0935,6.0066,5.9255,5.8511,5.807,5.7435,5.6687,5.5906,5.4783,5.3487,5.2421,5.1541,5.1095,5.0388,4.9961,4.9532,4.9101,4.8691,4.8546,4.8377,4.8377,4.8377,4.8377,4.8377,4.8255,4.7794,4.7186,4.7038,4.6596,4.6151,4.5853,4.5704,4.5256,4.4955,4.4654,4.4201,4.3462,4.3004,4.2544,4.1927,4.1133,4.0353,3.9745,3.9114,3.8798,3.864,3.864,3.8145,3.7436,3.7082,3.6518,3.5661,3.4813,3.4436,3.4094,3.3854,3.3534,3.3061,3.2452,3.2146,3.184,3.1549,3.1395,3.1395,3.1395,3.1395,7.1018,7.0397,7.0002,6.9604,6.9203,6.8557,6.8011,6.7569,6.7293,6.6875,6.6595,6.6595,6.6595,6.6595,6.6595,6.6595,6.6595,6.6595,6.6595,6.6595,6.6595,6.6595,6.6595,6.6595,6.6595,6.6595,6.6595,6.6595,6.6595,6.6595,6.6595,6.6595,6.6595,6.6595,6.6595,6.6595,6.6455,6.6031,6.5747,6.5204,6.46,6.431,6.431,6.431,6.431,6.4019,6.358,6.3099,6.2179,6.0935,6.0315,5.9424,5.8304,5.7927,5.7498,5.6683,5.5786,5.4628,5.3384,5.2361,5.1401,5.0813,5.0104,4.9652,4.9221,4.8812,4.8546,4.84,4.8377,4.8377,4.8377,4.8377,4.8377,4.8086,4.7648,4.7332,4.7038,4.6448,4.6002,4.6002,4.5853,4.5405,4.4955,4.4805,4.4504,4.3767,4.3157,4.2697,4.2062,4.1288,4.0509,3.9902,3.9114,3.8798,3.864,3.864,3.8163,3.7525,3.7241,3.6746,3.5904,3.5035,3.4779,3.4453,3.4162,3.3619,3.3026,3.255,3.2178,3.184,3.1549,3.1395,3.1395,3.1395,3.1395,7.1307,7.0629,7.0134,6.9737,6.947,6.8692,6.8148,6.8011,6.7431,6.7182,6.6875,6.6735,6.6595,6.6595,6.6595,6.6595,6.6595,6.6595,6.6595,6.6595,6.6595,6.6595,6.6595,6.6595,6.6595,6.6595,6.6595,6.6595,6.6595,6.6595,6.6595,6.6595,6.6595,6.6595,6.6595,6.6595,6.6314,6.6031,6.5462,6.4889,6.4455,6.431,6.431,6.431,6.4019,6.3726,6.3433,6.299,6.2112,6.0776,6.0222,5.9528,5.8238,5.7641,5.721,5.641,5.5164,5.416,5.339,5.222,5.1241,5.053,4.9818,4.9365,4.8957,4.8667,4.8377,4.8377,4.8377,4.8377,4.8377,4.8377,4.8377,4.8232,4.7648,4.7355,4.7038,4.6448,4.6002,4.6002,4.6002,4.5555,4.5256,4.4805,4.4504,4.405,4.331,4.2851,4.2082,4.0977,4.0353,3.9902,3.9272,3.864,3.864,3.864,3.8163,3.7685,3.7365,3.6834,3.5919,3.5275,3.5035,3.4761,3.4453,3.3804,3.3072,3.2583,3.2315,3.184,3.1395,3.1395,3.1395,3.1395,3.1241,7.1594,7.1018,7.0265,7.0002,6.9869,6.8963,6.845,6.8176,6.7598,6.7293,6.7154,6.6735,6.6595,6.6595,6.6595,6.6595,6.6595,6.6595,6.6595,6.6595,6.6595,6.6595,6.6595,6.6595,6.6595,6.6595,6.6595,6.6595,6.6595,6.6595,6.6595,6.6595,6.6595,6.6595,6.6595,6.6595,6.6314,6.5747,6.5176,6.46,6.431,6.431,6.431,6.4165,6.3873,6.358,6.3111,6.2868,6.1869,6.0629,6.0076,5.9264,5.8017,5.7379,5.6801,5.5993,5.4733,5.3706,5.2956,5.2059,5.0934,5.0246,4.9675,4.9101,4.8523,4.8377,4.8377,4.8377,4.8377,4.8377,4.8377,4.8377,4.8377,4.8086,4.7648,4.7479,4.7038,4.6448,4.6002,4.6002,4.6002,4.5853,4.5555,4.5106,4.4654,4.4201,4.3615,4.3004,4.2082,4.0977,4.0372,3.9902,3.943,3.8798,3.864,3.8481,3.8163,3.7845,3.7525,3.7135,3.6251,3.5549,3.5309,3.5035,3.4779,3.4176,3.3453,3.2934,3.2452,3.184,3.1395,3.1395,3.1395,3.1395,3.1087,7.1692,7.1307,7.0658,7.0134,6.9869,6.947,6.8828,6.8313,6.7845,6.7431,6.7154,6.6735,6.6595,6.6595,6.6595,6.6595,6.6595,6.6595,6.6595,6.6595,6.6595,6.6595,6.6595,6.6595,6.6595,6.6595,6.6595,6.6595,6.6595,6.6595,6.6595,6.6595,6.6595,6.6595,6.6595,6.6455,6.6201,6.5633,6.4889,6.4455,6.431,6.431,6.431,6.4165,6.3873,6.358,6.3111,6.2641,6.1721,6.0274,5.9825,5.8946,5.7729,5.7116,5.651,5.553,5.4299,5.3348,5.2742,5.1892,5.091,5.0104,4.9389,4.8835,4.84,4.8377,4.8377,4.8377,4.8377,4.8377,4.8377,4.8377,4.8377,4.8232,4.7794,4.7332,4.7038,4.6448,4.6002,4.6002,4.6002,4.5853,4.5704,4.5256,4.4805,4.4352,4.3615,4.3004,4.2236,4.1288,4.0509,3.9902,3.9588,3.9114,3.864,3.8481,3.8322,3.7845,3.7685,3.7205,3.6654,3.6109,3.56,3.5429,3.5207,3.4581,3.3925,3.3404,3.2626,3.1783,3.1395,3.1395,3.1241,3.1241,3.0794,7.185,7.1692,7.1048,7.0367,6.9869,6.947,6.9098,6.8557,6.8284,6.7707,6.7182,6.6735,6.6595,6.6595,6.6595,6.6595,6.6595,6.6595,6.6595,6.6595,6.6595,6.6595,6.6595,6.6595,6.6595,6.6595,6.6595,6.6595,6.6595,6.6595,6.6595,6.6595,6.6595,6.6595,6.6595,6.6173,6.5775,6.549,6.4745,6.431,6.431,6.431,6.431,6.431,6.358,6.3286,6.291,6.2175,6.1153,6.0085,5.9497,5.8414,5.7269,5.6681,5.6047,5.5189,5.3814,5.3059,5.2357,5.1464,5.0578,4.9795,4.9101,4.8546,4.8377,4.8377,4.8377,4.8377,4.8377,4.8377,4.8377,4.8377,4.8377,4.8232,4.7794,4.7332,4.6891,4.6448,4.6002,4.6002,4.6002,4.6002,4.5704,4.5256,4.4955,4.4504,4.3767,4.3004,4.239,4.1598,4.0841,4.0059,3.9588,3.9114,3.864,3.8481,3.8481,3.8004,3.7685,3.7205,3.6885,3.6385,3.5874,3.5737,3.56,3.5095,3.4367,3.3735,3.2986,3.2119,3.1724,3.1395,3.1241,3.115,3.0779,7.2104,7.1977,7.1307,7.0629,7.0002,6.9604,6.9203,6.8963,6.845,6.7873,6.7154,6.6875,6.6735,6.6595,6.6595,6.6595,6.6595,6.6595,6.6595,6.6595,6.6595,6.6595,6.6595,6.6595,6.6595,6.6595,6.6595,6.6595,6.6595,6.6595,6.6595,6.6595,6.6595,6.6595,6.6455,6.589,6.549,6.5347,6.4745,6.431,6.431,6.431,6.4165,6.4019,6.3406,6.3138,6.2683,6.1922,6.0753,5.986,5.905,5.802,5.703,5.6168,5.5508,5.4549,5.3595,5.2671,5.1995,5.101,5.0128,4.9389,4.8812,4.8523,4.8377,4.8377,4.8377,4.8377,4.8377,4.8377,4.8377,4.8377,4.8377,4.8232,4.7648,4.7186,4.6891,4.6448,4.6151,4.6002,4.6002,4.6002,4.5704,4.5256,4.4654,4.4201,4.3615,4.3004,4.237,4.1753,4.0997,4.0372,3.9745,3.9272,3.864,3.864,3.8481,3.8322,3.7845,3.7365,3.7045,3.642,3.6097,3.596,3.5823,3.54,3.4878,3.4309,3.3378,3.244,3.2076,3.1744,3.1668,3.1606,3.1151,7.2231,7.2007,7.1564,7.1048,7.0397,7.0002,6.9604,6.9203,6.8557,6.7873,6.7293,6.7154,6.6875,6.6735,6.6595,6.6595,6.6595,6.6595,6.6595,6.6595,6.6595,6.6595,6.6595,6.6595,6.6595,6.6595,6.6595,6.6595,6.6595,6.6595,6.6595,6.6595,6.6595,6.6595,6.6455,6.5917,6.549,6.5347,6.46,6.431,6.431,6.431,6.4165,6.3726,6.3406,6.299,6.2429,6.1389,6.0371,5.9506,5.8774,5.7798,5.644,5.5729,5.4918,5.3863,5.3181,5.2477,5.1513,5.0246,4.9579,4.9124,4.8691,4.8377,4.8377,4.8377,4.8377,4.8377,4.8377,4.8377,4.8377,4.8377,4.8377,4.8086,4.7502,4.7038,4.6891,4.6448,4.6151,4.6002,4.6002,4.6002,4.5704,4.5256,4.4504,4.3898,4.331,4.2851,4.237,4.1907,4.1308,4.0372,3.9745,3.9272,3.8798,3.864,3.8481,3.8322,3.8004,3.7525,3.7045,3.6581,3.6258,3.608,3.6029,3.5731,3.5358,3.4775,3.4013,3.3097,3.2555,3.2253,3.2158,3.1999,3.1651,7.2357,7.1977,7.1564,7.1178,7.0629,7.0134,6.9737,6.9232,6.8557,6.8011,6.7569,6.7293,6.7014,6.6735,6.6595,6.6595,6.6595,6.6595,6.6595,6.6595,6.6595,6.6595,6.6595,6.6595,6.6595,6.6595,6.6595,6.6595,6.6595,6.6595,6.6595,6.6595,6.6595,6.6455,6.6173,6.5605,6.5347,6.5033,6.46,6.431,6.431,6.431,6.4165,6.3726,6.3259,6.2777,6.2043,6.0901,5.9834,5.8877,5.8294,5.7156,5.5951,5.5263,5.4525,5.3619,5.2962,5.1681,5.0651,4.9435,4.9147,4.8835,4.8691,4.8377,4.8377,4.8377,4.8377,4.8377,4.8377,4.8377,4.8377,4.8377,4.8377,4.7941,4.7502,4.7038,4.6743,4.6299,4.6002,4.6002,4.6002,4.5555,4.5256,4.5106,4.4504,4.3898,4.3462,4.3004,4.2524,4.2216,4.1753,4.0529,3.9745,3.9272,3.8956,3.8798,3.864,3.8481,3.8004,3.7525,3.7045,3.6563,3.642,3.608,3.6097,3.608,3.5511,3.512,3.444,3.3775,3.3146,3.2602,3.2555,3.2364,3.2013,7.2357,7.1977,7.1692,7.1307,7.0789,7.0134,6.9604,6.9068,6.8692,6.8119,6.7679,6.7431,6.7014,6.6735,6.6595,6.6595,6.6595,6.6595,6.6595,6.6595,6.6595,6.6595,6.6595,6.6595,6.6595,6.6595,6.6595,6.6595,6.6595,6.6595,6.6595,6.6595,6.6595,6.6314,6.589,6.549,6.5347,6.4889,6.46,6.431,6.431,6.4165,6.4019,6.3499,6.2925,6.2365,6.1448,6.0258,5.9024,5.8148,5.7404,5.6491,5.5657,5.4721,5.3959,5.3131,5.2043,5.0962,4.9864,4.9292,4.898,4.8691,4.8523,4.8377,4.8377,4.8377,4.8377,4.8377,4.8377,4.8377,4.8377,4.84,4.8232,4.7794,4.7502,4.7038,4.6596,4.6151,4.6002,4.6002,4.6002,4.5405,4.4955,4.4805,4.4504,4.405,4.3615,4.3157,4.2524,4.237,4.1907,4.0666,3.9902,3.943,3.9114,3.8798,3.864,3.864,3.8163,3.7525,3.7205,3.6885,3.6402,3.6097,3.6097,3.5935,3.5774,3.5237,3.4701,3.4132,3.3467,3.3113,3.2793,3.2616,3.2487,7.2608,7.1977,7.1977,7.1594,7.0919,7.0134,6.947,6.8828,6.8828,6.8392,6.7679,6.7679,6.7293,6.6735,6.6595,6.6595,6.6595,6.6595,6.6595,6.6595,6.6595,6.6595,6.6595,6.6595,6.6595,6.6595,6.6595,6.6595,6.6595,6.6595,6.6595,6.6595,6.6455,6.6173,6.5775,6.5347,6.5176,6.4745,6.4455,6.431,6.431,6.431,6.3873,6.3299,6.2712,6.1926,6.0839,5.9627,5.8791,5.802,5.748,5.6348,5.5386,5.4275,5.3373,5.2307,5.1082,5.0175,4.9556,4.9268,4.8835,4.8546,4.84,4.8377,4.8377,4.8377,4.8377,4.8377,4.8377,4.8377,4.8377,4.8232,4.8232,4.7794,4.7502,4.7061,4.6596,4.6299,4.6002,4.6002,4.6002,4.5704,4.4955,4.4654,4.4504,4.3898,4.3615,4.331,4.2851,4.2524,4.1907,4.0821,4.004,3.9745,3.9272,3.8798,3.864,3.864,3.8322,3.7685,3.7365,3.7045,3.6563,3.6258,3.6097,3.5935,3.5774,3.5433,3.4783,3.4197,3.3774,3.3433,3.3127,3.3206,3.3091,7.2608,7.1977,7.1977,7.1594,7.0889,7.0134,6.947,6.8828,6.8828,6.8392,6.7679,6.7679,6.7293,6.6595,6.6595,6.6595,6.6595,6.6595,6.6595,6.6595,6.6595,6.6595,6.6595,6.6595,6.6595,6.6595,6.6595,6.6595,6.6595,6.6595,6.6595,6.6595,6.6314,6.589,6.5633,6.5204,6.4889,6.46,6.431,6.431,6.431,6.431,6.37,6.3072,6.2499,6.1662,6.0326,5.9144,5.8191,5.7661,5.696,5.5953,5.5065,5.4251,5.3345,5.2307,5.0793,4.9652,4.9365,4.8957,4.8546,4.84,4.8377,4.8377,4.8377,4.8377,4.8377,4.8377,4.8377,4.8377,4.8377,4.8377,4.8086,4.7648,4.7208,4.6891,4.6448,4.6151,4.6002,4.6002,4.6002,4.5704,4.4955,4.4805,4.4504,4.3919,4.3462,4.331,4.3004,4.2524,4.2062,4.0977,4.0197,3.9745,3.943,3.8956,3.8798,3.8481,3.8322,3.7845,3.7525,3.7045,3.6563,3.6258,3.6097,3.6097,3.5935,3.5433,3.4946,3.4621,3.4229,3.3935,3.364,3.3476,3.3476,7.2483,7.1977,7.185,7.1307,7.0468,6.9706,6.9089,6.8614,6.8712,6.8392,6.7679,6.7679,6.7264,6.6735,6.6595,6.6595,6.6595,6.6595,6.6595,6.6595,6.6595,6.6595,6.6595,6.6595,6.6595,6.6595,6.6595,6.6595,6.6595,6.6595,6.6595,6.6595,6.6173,6.589,6.549,6.5176,6.4745,6.4455,6.431,6.431,6.431,6.4138,6.3619,6.2885,6.2113,6.0921,5.9789,5.8465,5.7713,5.7193,5.642,5.5831,5.4942,5.3984,5.3128,5.1969,5.0554,4.977,4.9365,4.8812,4.8523,4.8377,4.8377,4.8377,4.8377,4.8377,4.8377,4.8377,4.8377,4.8377,4.8377,4.8377,4.7794,4.7332,4.7038,4.6891,4.6448,4.6151,4.6002,4.6002,4.5853,4.5555,4.5256,4.4955,4.4504,4.3919,4.3615,4.331,4.3004,4.2677,4.2236,4.1463,4.0529,3.9745,3.943,3.9114,3.8798,3.864,3.8481,3.8163,3.7525,3.7205,3.6724,3.642,3.6097,3.6097,3.6097,3.5595,3.5271,3.4946,3.4458,3.3968,3.364,3.3476,3.3328,7.2357,7.1977,7.1503,7.0639,6.9825,6.9103,6.8444,6.787,6.8334,6.8219,6.7587,6.7564,6.7122,6.6538,6.6511,6.6595,6.6595,6.6595,6.6595,6.6595,6.6595,6.6595,6.6595,6.6595,6.6595,6.6595,6.6595,6.6595,6.6595,6.6595,6.6595,6.6595,6.6173,6.5747,6.549,6.5033,6.46,6.4455,6.431,6.431,6.4138,6.3765,6.3285,6.2312,6.1291,6.0224,5.8978,5.8079,5.7235,5.6757,5.6273,5.5732,5.4401,5.3375,5.2598,5.1777,5.0435,4.9817,4.9365,4.8812,4.8523,4.8377,4.8377,4.8377,4.8377,4.8377,4.8377,4.8377,4.8377,4.8377,4.8377,4.8232,4.7794,4.7332,4.7038,4.6743,4.6299,4.6002,4.6002,4.6002,4.6002,4.5555,4.5256,4.4955,4.4654,4.3919,4.3615,4.3462,4.3157,4.283,4.2236,4.1773,4.0841,4.0059,3.9745,3.9272,3.8798,3.864,3.8481,3.8322,3.7685,3.7365,3.7045,3.6563,3.6097,3.6097,3.6097,3.5757,3.5433,3.5109,3.4621,3.4131,3.3804,3.364,3.3492,7.2357,7.1819,7.0509,6.9524,6.9044,6.8165,6.7509,6.7144,6.7024,6.6682,6.6364,6.6435,6.6279,6.6059,6.6342,6.6511,6.6539,6.6567,6.6595,6.6595,6.6595,6.6595,6.6595,6.6595,6.6595,6.6595,6.6595,6.6595,6.6595,6.6595,6.6595,6.6455,6.6031,6.5633,6.5347,6.4889,6.4428,6.4201,6.4201,6.4147,6.4093,6.3388,6.2775,6.1939,6.0974,5.9765,5.8719,5.7976,5.7167,5.6415,5.5928,5.477,5.3321,5.2742,5.2115,5.1489,5.0364,4.9746,4.9365,4.8812,4.8523,4.8377,4.8377,4.8377,4.8377,4.8377,4.8377,4.8377,4.8377,4.8377,4.8377,4.8086,4.7794,4.7332,4.6891,4.6448,4.6002,4.6002,4.6002,4.6002,4.6002,4.5704,4.5256,4.4955,4.4504,4.4201,4.3767,4.3462,4.331,4.3004,4.2544,4.1927,4.0977,4.0353,3.9902,3.943,3.8956,3.864,3.864,3.8322,3.7845,3.7365,3.6885,3.642,3.6097,3.6097,3.6097,3.6097,3.5774,3.5271,3.4946,3.4458,3.3968,3.3804,3.364,7.1952,7.1238,6.9654,6.8713,6.8366,6.7389,6.6708,6.6157,6.5664,6.5125,6.4899,6.5447,6.5657,6.5359,6.5921,6.6202,6.6258,6.6483,6.6567,6.6595,6.6595,6.6595,6.6595,6.6595,6.6595,6.6595,6.6595,6.6595,6.6595,6.6595,6.6595,6.6314,6.5775,6.5347,6.5176,6.4573,6.4147,6.393,6.393,6.3794,6.3542,6.2983,6.2148,6.1342,6.0354,5.9255,5.8367,5.7508,5.6877,5.6047,5.5386,5.4327,5.3225,5.2548,5.2043,5.1393,5.0461,4.9509,4.9221,4.8957,4.8377,4.8377,4.8377,4.8377,4.8377,4.8377,4.8377,4.8377,4.8377,4.8377,4.8232,4.8086,4.7648,4.7355,4.6891,4.6448,4.6151,4.6002,4.6002,4.6002,4.6002,4.5853,4.5405,4.4955,4.4654,4.4201,4.3919,4.3615,4.3462,4.331,4.2697,4.2082,4.1288,4.0509,3.9902,3.9588,3.9114,3.8798,3.864,3.8322,3.8004,3.7205,3.6581,3.642,3.6258,3.6097,3.6097,3.6097,3.5935,3.5433,3.5109,3.4946,3.4458,3.3968,3.3804,7.1117,7.0163,6.887,6.8062,6.7717,6.6744,6.5938,6.5203,6.4352,6.3863,6.364,6.4575,6.4759,6.4961,6.5274,6.5499,6.5808,6.6145,6.637,6.6567,6.6595,6.6595,6.6595,6.6595,6.6595,6.6595,6.6595,6.6595,6.6595,6.6595,6.6455,6.6031,6.5605,6.5347,6.4861,6.4436,6.393,6.3605,6.336,6.298,6.2614,6.2185,6.147,6.0562,5.9684,5.8707,5.7821,5.7235,5.6656,5.5679,5.4745,5.3738,5.2984,5.2307,5.1826,5.1178,5.0198,4.9675,4.9365,4.8812,4.8523,4.8377,4.8377,4.8377,4.8377,4.8377,4.8377,4.84,4.84,4.8232,4.8232,4.7941,4.7502,4.7208,4.6743,4.6448,4.6151,4.6002,4.6002,4.6002,4.5853,4.5853,4.5555,4.5106,4.4654,4.4352,4.4071,4.3767,4.3615,4.3462,4.3004,4.2544,4.1907,4.1133,4.0216,3.9745,3.9272,3.8956,3.8798,3.8481,3.8004,3.7365,3.6885,3.6581,3.642,3.6258,3.6097,3.6097,3.5774,3.5595,3.5271,3.5109,3.4783,3.4294,3.3968,6.9903,6.9123,6.7805,6.7284,6.6941,6.5845,6.5042,6.4656,6.4181,6.3834,6.3498,6.3215,6.3504,6.401,6.4656,6.505,6.5415,6.5752,6.6202,6.6539,6.6426,6.6511,6.6567,6.6539,6.6567,6.6595,6.6595,6.6567,6.6426,6.6483,6.6398,6.5892,6.555,6.5237,6.4752,6.4191,6.3469,6.3143,6.279,6.2411,6.1696,6.136,6.0909,6.0111,5.9342,5.8421,5.7693,5.7405,5.651,5.5361,5.4032,5.3128,5.2451,5.197,5.1513,5.0962,5.0009,4.9699,4.9221,4.8812,4.8546,4.8377,4.8377,4.8377,4.8377,4.8377,4.84,4.84,4.84,4.8086,4.7941,4.7502,4.7208,4.6743,4.6299,4.6151,4.6002,4.6002,4.6002,4.6002,4.6002,4.5853,4.5853,4.5405,4.5106,4.4654,4.4201,4.405,4.3615,4.3462,4.331,4.2851,4.237,4.1598,4.0666,4.0059,3.9588,3.9272,3.8798,3.8481,3.8163,3.7667,3.7205,3.6885,3.6581,3.6258,3.6097,3.6097,3.6097,3.5774,3.5595,3.5271,3.4946,3.4621,3.4294]},{"header":{"parameterUnit":"m.s-1","parameterCategory":1,"la1":31.0,"la2":29.5877,"lo1":-88.7671,"lo2":-86.6584,"dy":0.0162,"dx":0.0185,"nx":115,"ny":88,"refTime":"2023-04-13T12:00:00:Z","depth":0,"parameterNumber":3,"parameterNumberName":"V-component_of_WINDS"},"data":[0.0,0.0,0.0,0.0,0.0,0.0,0.0,0.0,0.0,0.0,0.0,0.0,0.0,0.0,0.0,0.0,0.0,0.0,0.0,0.0,0.0,0.0,0.0,0.0,0.0,0.0,0.0,0.0,0.0,0.0,0.0,0.0,0.0,0.0,0.0,0.0,0.0,0.0,0.0,0.0,0.0,0.0,0.0,0.0,0.0,0.0,0.0,0.0,0.0,0.0,0.0,0.0,0.0,0.0,0.0,0.0,0.0,0.0,0.0,0.0,0.0,0.0,0.0,0.0,0.0,0.0,0.0,0.0,0.0,0.0,0.0,0.0,0.0,0.0,0.0,0.0,0.0,0.0,0.0,0.0,0.0,0.0,0.0,0.0,0.0,0.0,0.0,0.0,0.0,0.0,0.0,0.0,0.0,0.0,0.0,0.0,0.0,0.0,0.0,0.0,0.0,0.0,0.0,0.0,0.0,0.0,0.0,0.0,0.0,0.0,0.0,0.0,0.0,0.0,0.0,0.0,0.0,0.0,0.0,0.0,0.0,0.0,0.0,0.0,0.0,0.0,0.0,0.0,0.0,0.0,0.0,0.0,0.0,0.0,0.0,0.0,0.0,0.0,0.0,0.0,0.0,0.0,0.0,0.0,0.0,0.0,0.0,0.0,0.0,0.0,0.0,0.0,0.0,0.0,0.0,0.0,0.0,0.0,0.0,0.0,0.0,0.0,0.0,0.0,0.0,0.0,0.0,0.0,0.0,0.0,0.0,0.0,0.0,0.0,0.0,0.0,0.0,0.0,0.0,0.0,0.0,0.0,0.0,0.0,0.0,0.0,0.0,0.0,0.0,0.0,0.0,0.0,0.0,0.0,0.0,0.0,0.0,0.0,0.0,0.0,0.0,0.0,0.0,0.0,0.0,0.0,0.0,0.0,0.0,0.0,0.0,0.0,0.0,0.0,0.0,0.0,0.0,0.0,0.0,0.0,0.0,0.0,0.0,0.0,0.0,0.0,0.0,0.0,0.0,0.0,0.0,0.0,0.0,0.0,0.0,0.0,0.0,0.0,0.0,0.0,0.0,0.0,0.0,0.0,0.0,0.0,0.0,0.0,0.0,0.0,0.0,0.0,0.0,0.0,0.0,0.0,0.0,0.0,0.0,0.0,0.0,0.0,0.0,0.0,0.0,0.0,0.0,0.0,0.0,0.0,0.0,0.0,0.0,0.0,0.0,0.0,0.0,0.0,0.0,0.0,0.0,0.0,0.0,0.0,0.0,0.0,0.0,0.0,0.0,0.0,0.0,0.0,0.0,0.0,0.0,0.0,0.0,0.0,0.0,0.0,0.0,0.0,0.0,0.0,0.0,0.0,0.0,0.0,0.0,0.0,0.0,0.0,0.0,0.0,0.0,0.0,0.0,0.0,0.0,0.0,0.0,0.0,0.0,0.0,0.0,0.0,0.0,0.0,0.0,0.0,0.0,0.0,0.0,0.0,0.0,0.0,0.0,0.0,0.0,0.0,0.0,0.0,0.0,0.0,0.0,0.0,0.0,0.0,0.0,0.0,0.0,0.0,0.0,0.0,0.0,0.0,0.0,0.0,0.0,0.0,0.0,0.0,0.0,0.0,0.0,0.0,0.0,0.0,0.0,0.0,0.0,0.0,0.0,0.0,0.0,0.0,0.0,0.0,0.0,0.0,0.0,0.0,0.0,0.0,0.0,0.0,0.0,0.0,0.0,0.0,0.0,0.0,0.0,0.0,0.0,0.0,0.0,0.0,0.0,0.0,0.0,0.0,0.0,0.0,0.0,0.0,0.0,0.0,0.0,0.0,0.0,0.0,0.0,0.0,0.0,0.0,0.0,0.0,0.0,0.0,0.0,0.0,0.0,0.0,0.0,0.0,0.0,0.0,0.0,0.0,0.0,0.0,0.0,0.0,0.0,0.0,0.0,0.0,0.0,0.0,0.0,0.0,0.0,0.0,0.0,0.0,0.0,0.0,0.0,0.0,0.0,0.0,0.0,0.0,0.0,0.0,0.0,0.0,0.0,0.0,0.0,0.0,0.0,0.0,0.0,0.0,0.0,0.0,0.0,0.0,0.0,0.0,0.0,0.0,0.0,0.0,0.0,0.0,0.0,0.0,0.0,0.0,0.0,0.0,0.0,0.0,0.0,0.0,0.0,0.0,0.0,0.0,0.0,0.0,0.0,0.0,0.0,0.0,0.0,0.0,0.0,0.0,0.0,0.0,0.0,0.0,0.0,0.0,0.0,0.0,0.0,0.0,0.0,0.0,0.0,0.0,0.0,0.0,0.0,0.0,0.0,0.0,0.0,0.0,0.0,0.0,0.0,0.0,0.0,0.0,0.0,0.0,0.0,0.0,0.0,0.0,0.0,0.0,0.0,0.0,0.0,0.0,0.0,0.0,0.0,0.0,0.0,0.0,0.0,0.0,0.0,0.0,0.0,0.0,0.0,0.0,0.0,0.0,0.0,0.0,0.0,0.0,0.0,0.0,0.0,0.0,0.0,0.0,0.0,0.0,0.0,0.0,0.0,0.0,0.0,0.0,0.0,0.0,0.0,0.0,0.0,0.0,0.0,0.0,0.0,0.0,0.0,0.0,0.0,0.0,0.0,0.0,0.0,0.0,0.0,0.0,0.0,0.0,0.0,0.0,0.0,0.0,0.0,0.0,0.0,0.0,0.0,0.0,0.0,0.0,0.0,0.0,0.0,0.0,0.0,0.0,0.0,0.0,0.0,0.0,0.0,0.0,0.0,0.0,0.0,0.0,0.0,0.0,0.0,0.0,0.0,0.0,0.0,0.0,0.0,0.0,0.0,0.0,0.0,0.0,0.0,0.0,0.0,0.0,0.0,0.0,0.0,0.0,0.0,0.0,0.0,0.0,0.0,0.0,0.0,0.0,0.0,0.0,0.0,0.0,0.0,0.0,0.0,0.0,0.0,0.0,0.0,0.0,0.0,0.0,0.0,0.0,0.0,0.0,0.0,0.0,0.0,0.0,0.0,0.0,0.0,0.0,0.0,0.0,0.0,0.0,0.0,0.0,0.0,0.0,0.0,0.0,0.0,0.0,0.0,0.0,0.0,0.0,0.0,0.0,0.0,0.0,0.0,0.0,0.0,0.0,0.0,0.0,0.0,0.0,0.0,0.0,0.0,0.0,0.0,0.0,0.0,0.0,0.0,0.0,0.0,0.0,0.0,0.0,0.0,0.0,0.0,0.0,0.0,0.0,0.0,0.0,0.0,0.0,0.0,0.0,0.0,0.0,0.0,0.0,0.0,0.0,0.0,0.0,0.0,0.0,0.0,0.0,0.0,0.0,0.0,0.0,0.0,0.0,0.0,0.0,0.0,0.0,0.0,0.0,0.0,0.0,0.0,0.0,0.0,0.0,0.0,0.0,0.0,0.0,0.0,0.0,0.0,0.0,0.0,0.0,0.0,0.0,0.0,0.0,0.0,0.0,0.0,0.0,0.0,0.0,0.0,0.0,0.0,0.0,0.0,0.0,0.0,0.0,0.0,0.0,0.0,0.0,0.0,0.0,0.0,0.0,0.0,0.0,0.0,0.0,0.0,0.0,0.0,0.0,0.0,0.0,0.0,0.0,0.0,0.0,0.0,0.0,0.0,0.0,0.0,0.0,0.0,0.0,0.0,0.0,0.0,0.0,0.0,0.0,0.0,0.0,0.0,0.0,0.0,0.0,0.0,0.0,0.0,0.0,0.0,0.0,0.0,0.0,0.0,0.0,0.0,0.0,0.0,0.0,0.0,0.0,0.0,0.0,0.0,0.0,0.0,0.0,0.0,0.0,0.0,0.0,0.0,0.0,0.0,0.0,0.0,0.0,0.0,0.0,0.0,0.0,0.0,0.0,0.0,0.0,0.0,0.0,0.0,0.0,0.0,0.0,0.0,0.0,0.0,0.0,0.0,0.0,0.0,0.0,0.0,0.0,0.0,0.0,0.0,0.0,0.0,0.0,0.0,0.0,0.0,0.0,0.0,0.0,0.0,0.0,0.0,0.0,0.0,0.0,0.0,0.0,0.0,0.0,0.0,0.0,0.0,0.0,0.0,0.0,0.0,0.0,0.0,0.0,0.0,0.0,0.0,0.0,0.0,0.0,0.0,0.0,0.0,0.0,0.0,0.0,0.0,0.0,0.0,0.0,0.0,0.0,0.0,0.0,0.0,0.0,0.0,0.0,0.0,0.0,0.0,0.0,0.0,0.0,0.0,0.0,0.0,0.0,0.0,0.0,0.0,0.0,0.0,0.0,0.0,0.0,-4.0844,0.0,0.0,0.0,0.0,0.0,0.0,0.0,0.0,0.0,0.0,0.0,0.0,0.0,0.0,0.0,0.0,0.0,0.0,0.0,0.0,0.0,0.0,0.0,0.0,0.0,0.0,0.0,0.0,0.0,0.0,0.0,0.0,0.0,0.0,0.0,0.0,0.0,0.0,0.0,0.0,0.0,0.0,0.0,0.0,0.0,0.0,0.0,0.0,0.0,0.0,0.0,0.0,0.0,0.0,0.0,0.0,0.0,0.0,0.0,0.0,0.0,0.0,0.0,0.0,0.0,0.0,0.0,0.0,0.0,0.0,0.0,0.0,0.0,0.0,0.0,0.0,0.0,0.0,0.0,0.0,0.0,0.0,0.0,0.0,0.0,0.0,0.0,0.0,0.0,0.0,0.0,0.0,0.0,0.0,0.0,0.0,0.0,0.0,0.0,0.0,0.0,0.0,0.0,0.0,0.0,0.0,0.0,0.0,0.0,0.0,-4.3079,-4.2992,-4.244,-4.1802,-4.1105,0.0,0.0,0.0,0.0,0.0,0.0,0.0,0.0,0.0,0.0,0.0,0.0,0.0,0.0,0.0,0.0,0.0,0.0,0.0,0.0,0.0,0.0,0.0,0.0,0.0,0.0,0.0,0.0,0.0,0.0,0.0,0.0,0.0,0.0,0.0,0.0,0.0,0.0,0.0,0.0,0.0,0.0,0.0,0.0,0.0,0.0,0.0,0.0,0.0,0.0,0.0,0.0,0.0,0.0,0.0,0.0,0.0,0.0,0.0,0.0,0.0,0.0,0.0,0.0,0.0,0.0,0.0,0.0,0.0,0.0,0.0,0.0,0.0,0.0,0.0,0.0,0.0,0.0,0.0,0.0,0.0,0.0,0.0,0.0,0.0,0.0,0.0,0.0,0.0,0.0,0.0,0.0,0.0,0.0,0.0,0.0,0.0,0.0,0.0,0.0,0.0,0.0,0.0,0.0,0.0,0.0,0.0,0.0,0.0,0.0,0.0,0.0,-4.3137,-4.2411,-4.1134,0.0,0.0,0.0,0.0,0.0,0.0,0.0,0.0,0.0,0.0,0.0,0.0,0.0,0.0,0.0,0.0,0.0,0.0,0.0,0.0,0.0,0.0,0.0,0.0,0.0,0.0,0.0,0.0,0.0,0.0,0.0,0.0,0.0,0.0,0.0,0.0,0.0,0.0,0.0,0.0,0.0,0.0,0.0,0.0,0.0,0.0,0.0,0.0,0.0,0.0,0.0,0.0,0.0,0.0,0.0,0.0,0.0,0.0,0.0,0.0,0.0,0.0,0.0,0.0,0.0,0.0,0.0,0.0,0.0,0.0,0.0,0.0,0.0,0.0,0.0,0.0,0.0,0.0,0.0,0.0,0.0,0.0,0.0,0.0,0.0,0.0,0.0,0.0,0.0,0.0,0.0,0.0,0.0,0.0,0.0,0.0,0.0,0.0,0.0,0.0,0.0,0.0,0.0,0.0,0.0,0.0,0.0,0.0,0.0,0.0,-4.4211,-4.4676,-4.3602,0.0,-4.1163,0.0,0.0,0.0,0.0,0.0,0.0,0.0,0.0,0.0,0.0,0.0,0.0,0.0,0.0,0.0,0.0,0.0,0.0,0.0,0.0,0.0,0.0,0.0,0.0,0.0,0.0,0.0,0.0,0.0,0.0,0.0,0.0,0.0,0.0,0.0,0.0,0.0,0.0,0.0,0.0,0.0,0.0,0.0,0.0,0.0,0.0,0.0,0.0,0.0,0.0,0.0,0.0,0.0,0.0,0.0,0.0,0.0,0.0,0.0,0.0,0.0,0.0,0.0,0.0,0.0,0.0,0.0,0.0,0.0,0.0,0.0,0.0,0.0,0.0,0.0,0.0,0.0,0.0,0.0,0.0,0.0,0.0,0.0,0.0,0.0,0.0,0.0,0.0,0.0,0.0,0.0,0.0,0.0,0.0,0.0,0.0,0.0,0.0,0.0,0.0,0.0,0.0,0.0,0.0,0.0,0.0,0.0,0.0,0.0,0.0,-4.5024,-4.4879,-4.366,-4.2411,0.0,0.0,0.0,0.0,0.0,0.0,0.0,0.0,0.0,0.0,0.0,0.0,0.0,0.0,0.0,0.0,0.0,0.0,0.0,0.0,0.0,0.0,0.0,0.0,0.0,0.0,0.0,0.0,0.0,0.0,0.0,0.0,0.0,0.0,0.0,0.0,0.0,0.0,0.0,0.0,0.0,0.0,0.0,0.0,0.0,0.0,0.0,0.0,0.0,0.0,0.0,0.0,0.0,0.0,0.0,0.0,0.0,0.0,0.0,0.0,0.0,0.0,0.0,0.0,0.0,0.0,0.0,0.0,0.0,0.0,0.0,0.0,0.0,0.0,0.0,0.0,0.0,0.0,0.0,0.0,0.0,0.0,0.0,0.0,0.0,0.0,0.0,0.0,0.0,0.0,0.0,0.0,0.0,0.0,0.0,0.0,0.0,0.0,0.0,0.0,0.0,0.0,0.0,0.0,0.0,0.0,0.0,0.0,0.0,0.0,-4.5341,-4.5399,-4.4647,-4.3573,-4.2498,-4.1395,0.0,0.0,0.0,0.0,0.0,0.0,0.0,0.0,0.0,0.0,0.0,0.0,0.0,0.0,0.0,0.0,0.0,0.0,0.0,0.0,0.0,0.0,0.0,0.0,0.0,0.0,0.0,0.0,0.0,0.0,0.0,0.0,0.0,0.0,0.0,0.0,0.0,0.0,0.0,0.0,0.0,0.0,0.0,0.0,0.0,0.0,0.0,0.0,0.0,0.0,0.0,0.0,0.0,0.0,0.0,0.0,0.0,0.0,0.0,0.0,0.0,0.0,0.0,0.0,0.0,0.0,0.0,0.0,0.0,0.0,0.0,0.0,0.0,0.0,0.0,0.0,0.0,0.0,0.0,0.0,0.0,0.0,0.0,0.0,0.0,0.0,0.0,0.0,0.0,0.0,0.0,0.0,0.0,0.0,0.0,0.0,0.0,0.0,0.0,0.0,0.0,0.0,0.0,0.0,0.0,0.0,0.0,0.0,-4.3661,-4.4841,-4.4989,-4.4066,-4.3369,-4.2702,0.0,0.0,0.0,0.0,0.0,0.0,0.0,0.0,0.0,0.0,0.0,0.0,0.0,0.0,0.0,0.0,0.0,0.0,0.0,0.0,0.0,0.0,0.0,0.0,0.0,0.0,0.0,0.0,0.0,0.0,0.0,0.0,0.0,0.0,0.0,0.0,0.0,0.0,0.0,0.0,0.0,0.0,0.0,0.0,0.0,0.0,0.0,0.0,0.0,0.0,0.0,0.0,0.0,0.0,0.0,0.0,0.0,0.0,0.0,0.0,0.0,0.0,0.0,0.0,0.0,0.0,0.0,0.0,0.0,0.0,0.0,0.0,0.0,0.0,0.0,0.0,0.0,0.0,0.0,0.0,0.0,0.0,0.0,0.0,0.0,0.0,0.0,0.0,0.0,0.0,0.0,0.0,0.0,0.0,0.0,0.0,0.0,0.0,0.0,0.0,0.0,0.0,0.0,0.0,0.0,0.0,0.0,0.0,0.0,-4.3428,-4.3947,-4.395,-4.3227,-4.3023,-4.2702,0.0,0.0,0.0,0.0,0.0,0.0,0.0,0.0,0.0,0.0,0.0,0.0,0.0,0.0,0.0,0.0,0.0,0.0,0.0,0.0,0.0,0.0,0.0,0.0,0.0,0.0,0.0,0.0,0.0,0.0,0.0,0.0,0.0,0.0,0.0,0.0,0.0,0.0,0.0,0.0,0.0,0.0,0.0,0.0,0.0,0.0,0.0,0.0,0.0,0.0,0.0,0.0,0.0,0.0,0.0,0.0,0.0,0.0,0.0,0.0,0.0,0.0,0.0,0.0,0.0,0.0,0.0,0.0,0.0,0.0,0.0,0.0,0.0,0.0,0.0,0.0,0.0,0.0,0.0,0.0,0.0,0.0,0.0,0.0,0.0,0.0,0.0,0.0,0.0,0.0,0.0,0.0,0.0,0.0,0.0,0.0,0.0,0.0,0.0,0.0,0.0,0.0,0.0,0.0,0.0,0.0,0.0,0.0,0.0,-4.3421,0.0,-4.3314,-4.2998,-4.2938,-4.2618,0.0,0.0,0.0,0.0,0.0,0.0,0.0,0.0,0.0,0.0,0.0,0.0,0.0,0.0,0.0,0.0,0.0,0.0,0.0,0.0,0.0,0.0,0.0,0.0,0.0,0.0,0.0,0.0,0.0,0.0,0.0,0.0,0.0,0.0,0.0,0.0,0.0,0.0,0.0,0.0,0.0,0.0,0.0,0.0,0.0,0.0,0.0,0.0,0.0,0.0,0.0,0.0,0.0,0.0,0.0,0.0,0.0,0.0,0.0,0.0,0.0,0.0,0.0,0.0,0.0,0.0,0.0,0.0,0.0,0.0,0.0,0.0,0.0,0.0,0.0,0.0,0.0,0.0,0.0,0.0,0.0,0.0,0.0,0.0,0.0,0.0,0.0,0.0,0.0,0.0,0.0,0.0,0.0,0.0,0.0,0.0,0.0,0.0,0.0,0.0,0.0,0.0,0.0,0.0,0.0,0.0,0.0,0.0,-4.2294,-4.3721,-4.345,-4.3341,-4.3603,-4.2969,-4.2449,0.0,0.0,0.0,0.0,0.0,0.0,0.0,0.0,0.0,0.0,0.0,0.0,0.0,0.0,0.0,0.0,0.0,0.0,0.0,0.0,0.0,0.0,0.0,0.0,0.0,0.0,0.0,0.0,0.0,0.0,0.0,0.0,0.0,0.0,0.0,0.0,0.0,0.0,0.0,0.0,0.0,0.0,0.0,0.0,0.0,0.0,0.0,0.0,0.0,0.0,0.0,0.0,0.0,0.0,0.0,0.0,0.0,0.0,0.0,0.0,0.0,0.0,0.0,0.0,0.0,0.0,0.0,0.0,0.0,0.0,0.0,0.0,0.0,0.0,0.0,0.0,0.0,0.0,0.0,0.0,0.0,0.0,0.0,0.0,0.0,0.0,0.0,0.0,0.0,0.0,0.0,0.0,0.0,0.0,0.0,0.0,0.0,0.0,0.0,0.0,0.0,0.0,0.0,0.0,0.0,0.0,0.0,0.0,0.0,-4.2913,-4.3012,-4.3076,-4.3136,-4.2797,-4.2537,0.0,0.0,0.0,0.0,0.0,0.0,0.0,0.0,0.0,0.0,0.0,0.0,0.0,0.0,0.0,0.0,0.0,0.0,0.0,0.0,0.0,0.0,0.0,0.0,0.0,0.0,0.0,0.0,0.0,0.0,0.0,0.0,0.0,0.0,0.0,0.0,0.0,0.0,0.0,0.0,0.0,0.0,0.0,0.0,0.0,0.0,0.0,0.0,0.0,0.0,0.0,0.0,0.0,0.0,0.0,0.0,0.0,0.0,0.0,0.0,0.0,0.0,0.0,0.0,0.0,0.0,0.0,0.0,0.0,0.0,0.0,0.0,0.0,0.0,0.0,0.0,0.0,0.0,0.0,0.0,0.0,0.0,0.0,0.0,0.0,0.0,0.0,0.0,0.0,0.0,0.0,0.0,0.0,0.0,0.0,0.0,0.0,0.0,0.0,0.0,0.0,0.0,0.0,0.0,0.0,0.0,0.0,0.0,0.0,-4.3582,-4.3314,-4.3149,-4.3239,-4.3195,-4.3027,-4.2653,0.0,0.0,0.0,0.0,0.0,0.0,0.0,0.0,0.0,0.0,0.0,0.0,0.0,0.0,0.0,0.0,0.0,0.0,0.0,0.0,0.0,0.0,0.0,0.0,0.0,0.0,0.0,0.0,0.0,0.0,0.0,0.0,0.0,0.0,0.0,0.0,0.0,0.0,0.0,0.0,0.0,0.0,0.0,0.0,0.0,0.0,0.0,0.0,0.0,0.0,0.0,0.0,0.0,0.0,0.0,0.0,0.0,0.0,0.0,0.0,0.0,0.0,0.0,0.0,0.0,0.0,0.0,0.0,0.0,0.0,0.0,0.0,0.0,0.0,0.0,0.0,0.0,0.0,0.0,0.0,0.0,0.0,0.0,0.0,0.0,0.0,0.0,0.0,0.0,0.0,0.0,0.0,0.0,0.0,0.0,0.0,0.0,0.0,0.0,0.0,0.0,0.0,0.0,0.0,0.0,0.0,0.0,0.0,-4.5228,-4.4228,-4.3758,-4.4004,-4.41,-4.377,0.0,0.0,0.0,0.0,0.0,0.0,0.0,0.0,0.0,0.0,0.0,0.0,0.0,0.0,0.0,0.0,0.0,0.0,0.0,0.0,0.0,0.0,0.0,0.0,0.0,0.0,0.0,0.0,0.0,0.0,0.0,0.0,0.0,0.0,0.0,0.0,0.0,0.0,0.0,0.0,0.0,0.0,0.0,0.0,0.0,0.0,0.0,0.0,0.0,0.0,0.0,0.0,0.0,0.0,0.0,0.0,0.0,0.0,0.0,0.0,0.0,0.0,0.0,0.0,0.0,0.0,0.0,0.0,0.0,0.0,0.0,0.0,0.0,0.0,0.0,0.0,0.0,0.0,0.0,0.0,0.0,0.0,0.0,0.0,0.0,0.0,0.0,0.0,0.0,0.0,0.0,0.0,0.0,0.0,0.0,0.0,0.0,0.0,0.0,0.0,0.0,0.0,0.0,0.0,0.0,0.0,0.0,0.0,0.0,-4.5064,-4.5176,-4.5328,-4.5616,-4.4903,-4.4328,0.0,0.0,0.0,0.0,0.0,0.0,0.0,0.0,0.0,0.0,0.0,0.0,0.0,0.0,0.0,0.0,0.0,0.0,0.0,0.0,0.0,0.0,0.0,0.0,0.0,0.0,0.0,0.0,0.0,0.0,0.0,0.0,0.0,0.0,0.0,0.0,0.0,0.0,0.0,0.0,0.0,0.0,0.0,0.0,0.0,0.0,0.0,0.0,0.0,0.0,0.0,0.0,0.0,0.0,0.0,0.0,0.0,0.0,0.0,0.0,0.0,0.0,0.0,0.0,0.0,0.0,0.0,0.0,0.0,0.0,0.0,0.0,0.0,0.0,0.0,0.0,0.0,0.0,0.0,0.0,0.0,0.0,0.0,0.0,0.0,0.0,0.0,0.0,0.0,0.0,0.0,0.0,0.0,0.0,0.0,0.0,0.0,0.0,0.0,0.0,0.0,0.0,0.0,0.0,0.0,0.0,0.0,0.0,-4.5315,-4.611,-4.6723,-4.7131,-4.7459,-4.591,-4.4947,0.0,0.0,0.0,0.0,0.0,0.0,0.0,0.0,0.0,0.0,0.0,0.0,0.0,0.0,0.0,0.0,0.0,0.0,0.0,0.0,0.0,0.0,0.0,0.0,0.0,0.0,0.0,0.0,0.0,0.0,0.0,0.0,0.0,0.0,0.0,0.0,0.0,0.0,0.0,0.0,0.0,0.0,0.0,0.0,0.0,0.0,0.0,0.0,0.0,0.0,0.0,0.0,0.0,0.0,0.0,0.0,0.0,0.0,0.0,0.0,0.0,0.0,0.0,0.0,0.0,0.0,0.0,0.0,0.0,0.0,0.0,0.0,0.0,0.0,0.0,0.0,0.0,0.0,0.0,0.0,0.0,0.0,0.0,0.0,0.0,0.0,0.0,0.0,0.0,0.0,0.0,0.0,0.0,0.0,0.0,0.0,0.0,0.0,0.0,0.0,0.0,0.0,0.0,0.0,0.0,0.0,0.0,0.0,-4.6256,-4.7596,-4.8263,-4.8778,-4.8977,-4.701,-4.5742,0.0,0.0,0.0,0.0,0.0,0.0,0.0,0.0,0.0,0.0,0.0,0.0,0.0,0.0,0.0,0.0,0.0,0.0,0.0,0.0,0.0,0.0,0.0,0.0,0.0,0.0,0.0,0.0,0.0,0.0,0.0,0.0,0.0,0.0,0.0,0.0,0.0,0.0,0.0,0.0,0.0,0.0,0.0,0.0,0.0,0.0,0.0,0.0,0.0,0.0,0.0,0.0,0.0,0.0,0.0,0.0,0.0,0.0,0.0,0.0,0.0,0.0,0.0,0.0,0.0,0.0,0.0,0.0,0.0,0.0,0.0,0.0,0.0,0.0,0.0,0.0,0.0,0.0,0.0,0.0,0.0,0.0,0.0,0.0,0.0,0.0,0.0,0.0,0.0,0.0,0.0,0.0,0.0,0.0,0.0,0.0,0.0,0.0,0.0,0.0,0.0,0.0,0.0,0.0,0.0,0.0,0.0,0.0,-4.6161,-4.7391,-4.8443,-4.8986,-4.893,-4.805,-4.7052,0.0,0.0,0.0,0.0,0.0,0.0,0.0,0.0,0.0,0.0,0.0,0.0,0.0,0.0,0.0,0.0,0.0,0.0,0.0,0.0,0.0,0.0,0.0,0.0,0.0,0.0,0.0,0.0,0.0,0.0,0.0,0.0,0.0,0.0,0.0,0.0,0.0,0.0,0.0,0.0,0.0,0.0,0.0,0.0,0.0,0.0,0.0,0.0,-4.4433,0.0,0.0,0.0,0.0,0.0,0.0,0.0,0.0,0.0,0.0,0.0,0.0,0.0,0.0,0.0,0.0,0.0,0.0,0.0,0.0,0.0,0.0,0.0,0.0,0.0,0.0,0.0,0.0,0.0,0.0,0.0,0.0,0.0,0.0,0.0,0.0,0.0,0.0,0.0,0.0,0.0,0.0,0.0,0.0,0.0,0.0,0.0,0.0,0.0,0.0,0.0,0.0,0.0,0.0,0.0,0.0,0.0,0.0,0.0,-4.6545,-4.8116,-4.9162,-4.9816,-4.9904,-4.9314,-4.8167,0.0,0.0,0.0,0.0,0.0,0.0,0.0,0.0,0.0,0.0,0.0,0.0,0.0,0.0,0.0,0.0,0.0,0.0,0.0,0.0,0.0,0.0,0.0,0.0,0.0,0.0,0.0,0.0,0.0,0.0,0.0,0.0,0.0,0.0,0.0,0.0,0.0,0.0,0.0,0.0,0.0,0.0,0.0,0.0,0.0,0.0,0.0,0.0,0.0,0.0,0.0,0.0,0.0,0.0,0.0,0.0,0.0,0.0,0.0,0.0,0.0,0.0,0.0,0.0,0.0,0.0,0.0,0.0,0.0,0.0,0.0,0.0,0.0,0.0,0.0,0.0,0.0,0.0,0.0,0.0,0.0,0.0,0.0,0.0,0.0,0.0,0.0,0.0,0.0,0.0,0.0,0.0,0.0,0.0,0.0,0.0,0.0,0.0,0.0,0.0,0.0,0.0,0.0,0.0,0.0,0.0,0.0,-4.5731,-4.7218,-4.9028,-5.0154,-5.0677,-5.0888,-5.0269,-4.8939,-4.6769,0.0,0.0,0.0,0.0,0.0,0.0,0.0,0.0,0.0,0.0,0.0,0.0,0.0,0.0,0.0,0.0,0.0,0.0,0.0,0.0,0.0,0.0,0.0,0.0,0.0,0.0,0.0,0.0,0.0,0.0,0.0,0.0,0.0,0.0,0.0,0.0,0.0,0.0,-4.1873,-4.2537,0.0,0.0,0.0,0.0,0.0,0.0,0.0,0.0,-4.5823,0.0,0.0,0.0,0.0,0.0,0.0,0.0,0.0,0.0,0.0,0.0,0.0,0.0,0.0,0.0,0.0,0.0,0.0,0.0,0.0,0.0,0.0,0.0,0.0,0.0,0.0,0.0,0.0,0.0,0.0,0.0,0.0,0.0,0.0,0.0,0.0,0.0,0.0,0.0,0.0,0.0,0.0,0.0,0.0,0.0,0.0,0.0,0.0,0.0,0.0,0.0,0.0,0.0,0.0,0.0,0.0,-4.4719,-4.655,-4.7965,-4.9083,-5.0543,-5.1095,-5.0888,-5.0269,-4.9033,-4.7221,0.0,0.0,0.0,0.0,0.0,0.0,0.0,0.0,0.0,0.0,0.0,0.0,0.0,0.0,0.0,0.0,0.0,0.0,0.0,0.0,0.0,0.0,0.0,0.0,0.0,0.0,0.0,0.0,0.0,0.0,0.0,0.0,0.0,0.0,0.0,0.0,0.0,0.0,0.0,-4.3927,-4.4654,0.0,0.0,0.0,0.0,0.0,0.0,0.0,0.0,-4.5823,0.0,0.0,0.0,0.0,0.0,0.0,0.0,0.0,0.0,0.0,0.0,0.0,0.0,0.0,0.0,0.0,0.0,0.0,0.0,0.0,0.0,0.0,0.0,0.0,0.0,0.0,0.0,0.0,0.0,0.0,0.0,0.0,0.0,0.0,0.0,0.0,0.0,0.0,0.0,0.0,0.0,0.0,0.0,0.0,0.0,0.0,0.0,0.0,0.0,0.0,0.0,0.0,0.0,0.0,0.0,-4.4746,-4.6846,-4.837,-4.9111,-5.0735,-5.1565,-5.1337,-5.0438,-4.923,0.0,0.0,0.0,0.0,0.0,0.0,0.0,0.0,0.0,0.0,0.0,0.0,0.0,0.0,0.0,0.0,0.0,0.0,0.0,0.0,0.0,0.0,0.0,0.0,0.0,0.0,0.0,0.0,0.0,0.0,0.0,0.0,0.0,0.0,0.0,0.0,0.0,0.0,0.0,0.0,-4.4496,-4.497,-4.5697,0.0,0.0,0.0,0.0,0.0,0.0,-4.5823,-4.5918,0.0,0.0,0.0,0.0,0.0,0.0,0.0,0.0,0.0,0.0,0.0,0.0,0.0,0.0,0.0,0.0,0.0,0.0,0.0,0.0,0.0,0.0,0.0,0.0,0.0,0.0,0.0,0.0,0.0,0.0,0.0,0.0,0.0,0.0,0.0,0.0,0.0,0.0,0.0,0.0,0.0,0.0,0.0,0.0,0.0,0.0,0.0,0.0,0.0,0.0,0.0,0.0,0.0,0.0,0.0,-4.4746,-4.7163,-4.8586,-4.9111,-5.0816,-5.1787,-5.1759,-5.0607,-4.937,0.0,0.0,0.0,0.0,0.0,0.0,0.0,0.0,0.0,0.0,0.0,0.0,0.0,0.0,0.0,0.0,0.0,0.0,0.0,0.0,0.0,0.0,0.0,0.0,0.0,0.0,0.0,0.0,0.0,0.0,0.0,0.0,0.0,0.0,0.0,0.0,0.0,0.0,0.0,0.0,0.0,-4.5159,-4.5728,-4.5823,0.0,0.0,0.0,0.0,-4.5823,-4.5792,0.0,0.0,0.0,0.0,0.0,0.0,0.0,0.0,0.0,0.0,0.0,0.0,0.0,0.0,0.0,0.0,0.0,0.0,0.0,0.0,0.0,0.0,0.0,0.0,0.0,0.0,0.0,0.0,0.0,0.0,0.0,0.0,0.0,0.0,0.0,0.0,0.0,0.0,0.0,0.0,0.0,0.0,0.0,0.0,0.0,0.0,0.0,0.0,0.0,0.0,0.0,0.0,0.0,0.0,0.0,0.0,-4.4773,-4.7499,-4.9028,-4.9138,-5.0816,-5.1787,-5.1759,-5.0607,-4.9398,0.0,0.0,0.0,0.0,0.0,0.0,0.0,0.0,0.0,0.0,0.0,0.0,0.0,0.0,0.0,0.0,0.0,0.0,0.0,0.0,0.0,0.0,0.0,0.0,0.0,0.0,0.0,0.0,0.0,0.0,0.0,0.0,0.0,0.0,0.0,0.0,0.0,0.0,0.0,0.0,0.0,-4.5728,-4.5792,-4.5823,-4.5823,0.0,0.0,-4.5823,-4.5823,-4.5968,0.0,0.0,0.0,0.0,0.0,0.0,0.0,0.0,0.0,0.0,0.0,0.0,0.0,0.0,0.0,0.0,0.0,0.0,0.0,0.0,0.0,0.0,0.0,0.0,0.0,0.0,0.0,0.0,0.0,0.0,0.0,0.0,0.0,0.0,0.0,0.0,0.0,0.0,0.0,0.0,0.0,0.0,0.0,0.0,0.0,0.0,0.0,0.0,0.0,0.0,0.0,0.0,0.0,0.0,0.0,-4.4719,-4.4773,-4.7448,-4.9003,-4.9138,-5.0735,-5.1706,-5.1787,-5.0607,-4.937,0.0,0.0,0.0,0.0,0.0,0.0,0.0,0.0,0.0,0.0,0.0,0.0,0.0,0.0,0.0,0.0,0.0,0.0,0.0,0.0,0.0,0.0,0.0,0.0,0.0,0.0,0.0,0.0,0.0,0.0,0.0,0.0,0.0,0.0,0.0,0.0,0.0,0.0,0.0,0.0,0.0,0.0,-4.5823,-4.5823,0.0,0.0,0.0,-4.595,-4.6329,0.0,0.0,0.0,0.0,0.0,0.0,0.0,0.0,0.0,0.0,0.0,0.0,0.0,0.0,0.0,0.0,0.0,0.0,0.0,0.0,0.0,0.0,0.0,0.0,0.0,0.0,0.0,0.0,0.0,0.0,0.0,0.0,0.0,0.0,0.0,0.0,0.0,0.0,0.0,0.0,0.0,0.0,0.0,0.0,0.0,0.0,0.0,0.0,0.0,0.0,0.0,0.0,0.0,0.0,0.0,0.0,0.0,-4.4963,-4.7425,-4.8951,-4.9359,-5.071,-5.1486,-5.1759,-5.0607,0.0,0.0,0.0,0.0,0.0,0.0,0.0,0.0,0.0,0.0,0.0,0.0,0.0,0.0,0.0,0.0,0.0,0.0,0.0,0.0,0.0,0.0,0.0,0.0,0.0,0.0,0.0,-4.1972,0.0,0.0,0.0,0.0,0.0,0.0,0.0,0.0,0.0,0.0,0.0,0.0,0.0,0.0,-4.5823,-4.5823,-4.5823,-4.5886,0.0,0.0,-4.6297,-4.7035,-4.731,-4.7914,0.0,0.0,0.0,0.0,0.0,0.0,0.0,0.0,0.0,0.0,0.0,0.0,0.0,0.0,0.0,0.0,0.0,0.0,0.0,0.0,0.0,0.0,0.0,0.0,0.0,0.0,0.0,0.0,0.0,0.0,0.0,0.0,0.0,0.0,0.0,0.0,0.0,0.0,0.0,0.0,0.0,0.0,0.0,0.0,0.0,0.0,0.0,0.0,0.0,0.0,0.0,0.0,0.0,0.0,0.0,-4.5587,-4.7643,-4.9063,-4.9939,-5.0932,-5.1486,-5.1759,-5.0607,-4.9651,0.0,0.0,0.0,0.0,0.0,0.0,0.0,0.0,0.0,0.0,0.0,0.0,0.0,0.0,0.0,0.0,0.0,0.0,0.0,0.0,0.0,0.0,0.0,0.0,0.0,0.0,0.0,0.0,0.0,0.0,0.0,0.0,0.0,0.0,0.0,0.0,0.0,0.0,0.0,0.0,0.0,-4.5823,-4.5823,-4.5823,-4.6044,0.0,-4.674,-4.7067,-4.7988,-4.8265,-4.8743,-4.9598,0.0,0.0,0.0,0.0,0.0,0.0,0.0,0.0,0.0,0.0,0.0,0.0,0.0,0.0,0.0,0.0,0.0,0.0,0.0,0.0,0.0,0.0,0.0,0.0,0.0,0.0,0.0,0.0,0.0,0.0,0.0,0.0,0.0,0.0,0.0,0.0,0.0,0.0,0.0,0.0,0.0,0.0,0.0,0.0,0.0,0.0,0.0,0.0,0.0,0.0,0.0,0.0,0.0,-4.499,-4.5587,-4.743,-4.8845,-4.9776,-5.0602,-5.1266,-5.1596,-5.05,-4.9651,0.0,0.0,0.0,0.0,0.0,0.0,0.0,0.0,0.0,0.0,0.0,0.0,0.0,0.0,0.0,0.0,0.0,0.0,0.0,0.0,0.0,0.0,0.0,0.0,0.0,0.0,0.0,0.0,-4.4617,-4.5011,-4.5923,0.0,0.0,0.0,0.0,0.0,0.0,0.0,0.0,0.0,0.0,-4.6279,-4.6725,-4.6789,0.0,0.0,-4.784,-4.8137,-4.8882,-4.916,-4.9566,-5.0381,-5.0629,0.0,0.0,0.0,0.0,0.0,0.0,0.0,0.0,0.0,0.0,0.0,0.0,0.0,0.0,0.0,0.0,0.0,0.0,0.0,0.0,0.0,0.0,0.0,0.0,0.0,0.0,0.0,0.0,0.0,0.0,0.0,0.0,0.0,0.0,0.0,0.0,0.0,0.0,0.0,0.0,0.0,0.0,0.0,0.0,0.0,0.0,0.0,0.0,0.0,0.0,0.0,0.0,-4.518,-4.6102,-4.7513,-4.8736,-4.983,-5.0491,-5.0934,-5.1348,-5.0393,-4.9659,0.0,0.0,0.0,0.0,0.0,0.0,0.0,0.0,0.0,0.0,0.0,0.0,0.0,0.0,0.0,0.0,0.0,0.0,0.0,0.0,0.0,0.0,0.0,0.0,0.0,0.0,0.0,0.0,-4.5387,-4.5757,-4.662,0.0,0.0,0.0,0.0,0.0,0.0,0.0,0.0,0.0,0.0,-4.6845,-4.7325,-4.7581,-4.7965,-4.8669,-4.8765,-4.9096,-4.9769,-5.0048,-5.0317,-5.0876,0.0,0.0,0.0,0.0,0.0,0.0,0.0,0.0,0.0,0.0,0.0,0.0,0.0,0.0,0.0,0.0,0.0,0.0,0.0,0.0,0.0,0.0,0.0,0.0,0.0,0.0,0.0,0.0,0.0,0.0,-4.0409,0.0,0.0,0.0,0.0,0.0,0.0,0.0,0.0,0.0,0.0,0.0,0.0,0.0,0.0,0.0,0.0,0.0,0.0,0.0,0.0,0.0,0.0,-4.556,-4.7296,-4.792,-4.8926,-5.0432,-5.0487,-5.085,-5.1376,-5.0178,-4.9616,-4.9876,0.0,0.0,0.0,0.0,0.0,0.0,0.0,0.0,0.0,0.0,0.0,0.0,0.0,0.0,0.0,0.0,0.0,0.0,0.0,0.0,0.0,0.0,0.0,0.0,0.0,0.0,-4.6048,-4.6372,-4.662,0.0,0.0,0.0,0.0,0.0,0.0,0.0,0.0,0.0,0.0,-4.6941,-4.7389,-4.7453,-4.8029,-4.8775,-4.9341,-4.9544,-4.9801,-5.0735,-5.0864,-5.0972,0.0,0.0,0.0,0.0,0.0,0.0,0.0,0.0,0.0,0.0,0.0,0.0,0.0,0.0,0.0,0.0,0.0,0.0,0.0,0.0,0.0,0.0,0.0,0.0,0.0,0.0,0.0,-4.0199,-4.0694,0.0,0.0,0.0,0.0,0.0,0.0,0.0,0.0,0.0,0.0,0.0,-4.432,-4.4509,0.0,0.0,0.0,0.0,0.0,0.0,0.0,0.0,0.0,0.0,0.0,0.0,-4.556,-4.7269,-4.792,-4.8816,-5.0096,-5.0402,-5.0711,-5.1017,-5.046,-4.9671,-4.878,0.0,0.0,0.0,0.0,0.0,0.0,0.0,0.0,0.0,0.0,0.0,0.0,0.0,0.0,0.0,0.0,0.0,0.0,0.0,0.0,0.0,0.0,0.0,0.0,0.0,-4.5864,0.0,0.0,0.0,0.0,0.0,0.0,0.0,0.0,0.0,0.0,0.0,-4.7426,-4.7426,-4.8006,-4.8619,-4.9102,-4.936,-4.9779,0.0,0.0,0.0,0.0,0.0,0.0,0.0,0.0,0.0,0.0,0.0,0.0,0.0,0.0,-5.3915,-5.398,-5.4239,-5.4494,-5.4494,0.0,0.0,0.0,0.0,0.0,0.0,0.0,0.0,0.0,0.0,0.0,0.0,0.0,0.0,-4.1114,0.0,-4.1457,0.0,0.0,0.0,0.0,0.0,0.0,0.0,0.0,-4.4388,-4.4888,-4.5017,-4.5234,-4.5207,0.0,-4.5017,-4.4501,0.0,0.0,0.0,0.0,0.0,0.0,0.0,0.0,-4.6075,-4.7595,-4.8219,-4.9033,-4.9956,-5.0375,-5.0599,-5.0878,-5.0432,-4.9581,-4.8162,-4.725,-4.6514,0.0,0.0,0.0,0.0,0.0,0.0,0.0,0.0,0.0,0.0,0.0,0.0,0.0,0.0,0.0,0.0,0.0,0.0,0.0,0.0,0.0,0.0,0.0,-4.608,0.0,0.0,0.0,0.0,0.0,0.0,0.0,0.0,0.0,-4.7378,-4.7896,-4.8382,-4.835,-4.8965,-4.958,-5.0034,0.0,0.0,0.0,0.0,0.0,0.0,0.0,-5.135,-5.1573,-5.1573,-5.1786,-5.2309,-5.3047,-5.371,-5.4126,0.0,0.0,-5.4148,-5.4303,-5.4529,-5.4592,-5.478,-5.4904,-5.5053,-5.5199,-5.5354,0.0,0.0,0.0,0.0,0.0,0.0,0.0,0.0,-4.0804,-4.1155,0.0,-4.1619,0.0,0.0,0.0,0.0,0.0,-4.3774,0.0,0.0,-4.5294,-4.5668,-4.5723,-4.6265,-4.6238,-4.5695,-4.5695,-4.5397,-4.4854,-4.4827,0.0,0.0,0.0,0.0,0.0,0.0,-4.7079,-4.8246,-4.8816,-4.944,-5.001,-5.0402,-5.0599,-5.0878,-5.0314,-4.9454,-4.8246,-4.7843,-4.7133,-4.6252,-4.6419,0.0,0.0,0.0,0.0,0.0,0.0,0.0,0.0,0.0,0.0,0.0,0.0,0.0,0.0,0.0,0.0,0.0,0.0,0.0,0.0,-4.6008,0.0,0.0,0.0,0.0,0.0,0.0,0.0,0.0,0.0,0.0,-4.8188,-4.8673,-4.9062,-4.9062,0.0,0.0,0.0,0.0,-5.1242,-5.1275,-5.1275,-5.1307,-5.1531,-5.1564,-5.1671,-5.186,0.0,0.0,-5.3367,-5.4539,-5.5404,-5.5649,-5.5928,-5.5824,-5.4552,-5.4505,-5.4661,-5.4849,-5.4973,-5.5088,-5.5234,-5.5529,-5.5683,-4.2808,0.0,0.0,0.0,0.0,-4.1794,-4.2079,-4.2311,-4.2659,-4.2782,-4.2725,-4.2907,0.0,0.0,0.0,0.0,0.0,0.0,-4.5418,-4.5917,-4.6998,-4.7486,-4.7486,-4.7676,-4.7649,-4.7486,-4.7486,-4.7378,-4.7242,-4.7242,-4.6374,-4.4746,0.0,0.0,0.0,0.0,-4.7269,-4.8789,-4.906,-4.963,-5.0634,-5.0594,-5.0738,-5.1266,-5.0813,-5.0241,-4.9454,-4.8692,-4.7957,-4.7424,-4.685,0.0,0.0,0.0,0.0,0.0,0.0,0.0,0.0,0.0,0.0,0.0,0.0,0.0,0.0,0.0,0.0,0.0,0.0,0.0,-4.5709,-4.6525,-4.7101,0.0,0.0,0.0,0.0,0.0,0.0,0.0,0.0,0.0,-4.9733,-4.9718,-4.9848,0.0,0.0,-5.1099,-5.132,-5.1484,-5.1647,-5.1614,-5.2072,0.0,-5.2473,-5.2899,-5.3301,-5.3643,-5.3937,-5.4328,-5.4745,-5.5232,-5.5753,-5.603,-5.6235,-5.6267,-5.6088,-5.5602,-5.5421,-5.5513,-5.5702,-5.5889,-5.6073,-5.6615,-5.7122,-4.502,-4.3818,-4.3289,-4.276,-4.2327,-4.2639,-4.2879,-4.3117,-4.3472,-4.3629,-4.354,-4.379,-4.3914,-4.4002,-4.4106,0.0,0.0,0.0,-4.6625,-4.7215,-4.792,-4.8246,-4.8246,-4.8246,-4.8246,-4.8246,-4.8246,-4.8246,-4.8246,-4.8246,-4.7541,-4.6157,0.0,0.0,-4.7161,-4.7405,-4.8165,-4.9413,-4.9711,-5.0308,-5.1231,-5.1144,-5.1293,-5.1821,-5.1229,-5.0578,-4.996,-4.9416,-4.8653,-4.7966,-4.7606,-4.7462,0.0,0.0,0.0,0.0,0.0,0.0,0.0,0.0,0.0,0.0,0.0,-4.7281,-4.7034,0.0,0.0,0.0,-4.6684,-4.6831,-4.6719,-4.7435,0.0,0.0,0.0,0.0,0.0,0.0,0.0,-4.9451,-5.0245,-5.0815,-5.0815,-5.0815,-5.0815,-5.0961,-5.1353,-5.1647,-5.1794,0.0,-5.222,-5.222,-5.281,-5.3344,-5.3494,-5.3856,-5.427,-5.4715,-5.5314,-5.5804,-5.598,-5.6396,-5.6915,-5.7192,-5.7329,-5.75,-5.7635,-5.7047,-5.6491,-5.6472,-5.6564,-5.669,-5.6904,-5.7412,-5.779,-4.6872,-4.6655,-4.4708,-4.3577,-4.3024,-4.3,-4.3024,-4.3144,-4.3741,-4.3954,-4.3905,-4.4561,-4.5067,-4.5679,-4.6247,0.0,-4.7393,-4.742,-4.7806,-4.8382,-4.8436,-4.849,-4.8517,-4.8545,-4.8517,-4.8545,-4.8517,-4.8517,-4.8545,-4.8545,-4.8545,-4.8517,-4.8517,-4.849,-4.8409,-4.8924,-4.9521,-5.0146,-5.0688,-5.1258,-5.1801,-5.1889,-5.2239,-5.2686,-5.159,-5.0719,-5.0178,-4.9944,-4.9338,-4.8138,-4.848,-4.8545,-4.8214,0.0,0.0,0.0,0.0,0.0,0.0,0.0,0.0,0.0,0.0,0.0,0.0,0.0,0.0,0.0,-4.768,0.0,-4.8072,-4.836,0.0,0.0,0.0,-4.9192,-4.9192,-4.9775,-5.0196,-5.0196,0.0,0.0,-5.1671,-5.1852,-5.2032,-5.2032,-5.1966,-5.1933,-5.1933,-5.2589,-5.3049,-5.3123,-5.3682,-5.4185,-5.4593,-5.4767,-5.5088,-5.5414,-5.6179,-5.6904,-5.7009,-5.7698,-5.8492,-5.8598,-5.8771,-5.8806,-5.8944,-5.8357,-5.7838,-5.7508,-5.7428,-5.752,-5.7771,-5.8035,-5.8141,-4.8267,-4.7882,-4.7353,-4.6391,-4.5188,-4.5164,-4.529,-4.5542,-4.5942,-4.6069,-4.5894,-4.586,-4.58,-4.5679,-4.6473,-4.7033,-4.7393,-4.807,-4.8834,-4.963,-5.0064,-5.0525,-5.096,-5.0987,-5.0987,-5.0987,-5.0987,-5.0987,-5.0987,-5.0987,-5.0987,-5.096,-5.0987,-5.0525,-4.963,-4.9739,-5.0335,-5.1394,-5.1529,-5.1898,-5.2471,-5.2917,-5.2986,-5.2742,-5.2433,-5.1759,-5.0691,-5.0597,-5.0195,-4.9395,-4.8942,-4.8748,-4.8887,-4.8458,0.0,0.0,0.0,0.0,0.0,0.0,0.0,0.0,0.0,-4.8543,-4.8389,0.0,-4.8469,0.0,-4.7963,-4.7909,-4.7953,-4.87,0.0,0.0,-5.0102,-5.0681,-5.0681,-5.0811,-5.1015,-5.1164,-5.2039,-5.2613,-5.2696,-5.3338,-5.3923,-5.407,-5.3353,-5.2844,-5.3023,-5.3798,-5.4336,-5.4402,-5.5114,-5.5621,-5.5836,-5.6566,-5.7089,-5.7195,-5.7725,-5.8075,-5.8075,-5.8424,-5.8701,-5.8771,-5.8909,-5.8944,-5.9012,-5.884,-5.877,-5.8764,-5.8446,-5.8223,-5.845,-5.8997,-5.9545,-4.9638,-4.9301,-4.8844,-4.8257,-4.7544,-4.6843,-4.6408,-4.6445,-4.6929,-4.7133,-4.6985,-4.7302,-4.7427,-4.7287,-4.8105,-4.8709,-4.8965,-4.963,-5.0182,-5.0824,-5.1177,-5.1502,-5.1828,-5.1828,-5.1828,-5.1828,-5.1828,-5.1828,-5.1828,-5.1828,-5.1828,-5.1828,-5.1828,-5.1611,-5.1231,-5.096,-5.1285,-5.2208,-5.2479,-5.297,-5.3558,-5.3613,-5.343,-5.3192,-5.2854,-5.2124,-5.0916,-5.0824,-5.0509,-4.9852,-4.9375,-4.9243,-4.9339,-4.9104,-4.906,0.0,0.0,0.0,0.0,0.0,0.0,0.0,0.0,0.0,0.0,0.0,-4.9004,-4.884,-4.8781,-4.8794,-4.8794,-4.9528,-4.9981,-4.9981,-5.0714,-5.1297,-5.1588,-5.1729,-5.1934,-5.2411,-5.3072,-5.356,-5.375,-5.4229,-5.4749,-5.4895,-5.4649,-5.4409,-5.425,-5.4895,-5.5436,-5.5469,-5.6144,-5.6761,-5.6908,-5.7538,-5.8061,-5.8205,-5.8419,-5.8631,-5.8631,-5.8771,-5.8909,-5.8909,-5.8944,-5.9012,-5.9012,-5.9012,-5.9012,-5.908,-5.9039,-5.906,-5.9155,-5.9663,-6.0072,-5.0912,-5.0816,-4.9806,-4.9624,-4.9728,-4.8401,-4.7475,-4.6963,-4.7527,-4.7807,-4.7783,-4.8655,-4.9219,-4.9386,-5.0138,-5.0618,-5.0857,-5.1239,-5.1647,-5.1936,-5.1936,-5.1991,-5.2045,-5.2072,-5.2045,-5.2045,-5.2045,-5.2045,-5.2045,-5.2045,-5.2045,-5.2072,-5.2045,-5.2316,-5.2778,-5.2316,-5.2316,-5.2832,-5.332,-5.3981,-5.4607,-5.4055,-5.3708,-5.381,-5.3164,-5.2293,-5.1169,-5.0995,-5.068,-5.0109,-4.9894,-4.9814,-4.9785,-4.9685,-4.9616,0.0,-5.0035,0.0,0.0,0.0,0.0,0.0,0.0,0.0,0.0,-4.914,-4.9241,-4.9613,-4.9773,-4.99,-4.99,-5.042,-5.0717,-5.0717,-5.1166,-5.1685,-5.2268,-5.2551,-5.2932,-5.3551,-5.4033,-5.4402,-5.4626,-5.4915,-5.5162,-5.5515,-5.6023,-5.6124,-5.5655,-5.6023,-5.6352,-5.6426,-5.7036,-5.756,-5.7814,-5.8099,-5.8348,-5.849,-5.8701,-5.884,-5.884,-5.8875,-5.9012,-5.9012,-5.9012,-5.9047,-5.9116,-5.9185,-5.9219,-5.9461,-5.9768,-5.9864,-5.9783,-6.0048,-6.0247,-5.197,-5.1922,-5.1559,-5.1309,-5.0847,-5.0801,-5.0454,-4.9909,-4.9619,-4.9311,-4.9014,-4.9739,-4.9852,-4.9507,-5.0379,-5.0857,-5.0976,-5.1476,-5.1981,-5.2561,-5.2533,-5.2805,-5.3239,-5.3266,-5.3266,-5.3266,-5.3266,-5.3266,-5.3266,-5.3266,-5.3266,-5.3266,-5.3266,-5.332,-5.3429,0.0,0.0,0.0,-5.3537,-5.3981,-5.4607,-5.4497,-5.4463,-5.4428,-5.381,0.0,-5.2377,-5.1846,-5.1509,-5.1366,-5.0789,0.0,0.0,0.0,0.0,0.0,0.0,0.0,0.0,0.0,0.0,0.0,-5.0901,-5.0306,-4.9863,-4.9634,-4.9613,-4.9852,-4.9821,-4.99,-4.9931,-5.0834,-5.1389,-5.1421,-5.2326,-5.2981,-5.311,-5.3266,-5.3563,-5.3815,-5.4569,-5.5236,-5.5572,-5.6188,-5.6705,-5.7009,-5.7358,-5.7645,-5.7548,-5.7398,-5.7352,-5.7566,-5.7925,-5.8277,-5.8419,-5.8595,-5.8699,-5.8771,-5.8909,-5.8978,-5.9047,-5.9013,-5.9047,-5.9081,-5.9012,-5.9254,-5.984,-5.9978,-6.022,-6.0947,-6.1259,-6.1083,-5.9966,-6.0438,-6.109,-5.2937,0.0,-5.2766,-5.2686,0.0,-5.2436,-5.2454,-5.2402,-5.1297,-5.0912,-5.0998,-5.1097,-5.119,-5.1249,-5.1599,-5.1857,-5.1977,-5.2458,-5.2859,-5.3158,-5.3158,-5.3293,-5.3592,-5.3592,-5.3592,-5.3619,-5.389,-5.4026,-5.4053,-5.4351,-5.4487,-5.4487,-5.4514,-5.4487,-5.4487,-5.4487,-5.4351,-5.4026,-5.4026,-5.4391,-5.5049,-5.5049,-5.4845,-5.4625,-5.4288,0.0,0.0,0.0,0.0,0.0,0.0,0.0,0.0,0.0,0.0,-5.1444,-5.2407,-5.2822,-5.2518,-5.2611,-5.2575,-5.2383,-5.2082,-5.1537,-5.0882,-5.0838,-5.0781,-5.0943,-5.0974,-5.0943,-5.0974,-5.1694,-5.2157,-5.2157,-5.2875,-5.3434,-5.379,-5.4092,-5.4456,-5.4939,-5.5655,-5.6269,-5.6529,-5.6947,-5.7406,-5.7808,-5.7954,-5.8133,-5.8277,-5.8171,-5.8099,-5.8171,-5.8314,-5.8697,-5.911,-5.925,-5.9562,-5.9907,-6.0081,-6.0151,-6.0151,-6.0151,-6.0151,-6.0151,-6.0151,-6.0323,-6.0599,-6.0807,-6.1051,-6.1467,-6.1814,-6.1846,-6.1008,-6.1383,-6.1827,-5.374,-5.3839,-5.3763,-5.3829,-5.4091,-5.3686,-5.3973,-5.4326,0.0,0.0,0.0,-5.2465,-5.2642,-5.3097,-5.2997,-5.3155,-5.3428,-5.3795,-5.3917,-5.3917,-5.3917,-5.3917,-5.3917,-5.3917,-5.3917,-5.3944,-5.4406,-5.465,-5.4677,-5.5166,-5.541,-5.541,-5.541,-5.541,-5.541,-5.541,-5.522,-5.4813,-5.4704,-5.5019,-5.5657,-5.5546,-5.5261,-5.4934,-5.4681,-5.4091,-5.3079,-5.2682,-5.2386,-5.2109,-5.1661,-5.1597,-5.1788,-5.2134,-5.2376,-5.2417,-5.3398,-5.3732,-5.3216,-5.3622,-5.3744,-5.3548,-5.334,-5.2879,-5.2052,-5.1998,-5.2017,-5.2017,-5.2017,-5.2017,-5.2099,-5.2554,-5.2893,-5.2973,-5.339,-5.3952,-5.4503,-5.4966,-5.5398,-5.6034,-5.6702,-5.7263,-5.749,-5.7808,-5.814,-5.854,-5.8715,-5.8723,-5.8937,-5.8903,-5.8832,-5.904,-5.9213,-5.9387,-5.9904,-6.0146,-6.0492,-6.1011,-6.122,-6.1323,-6.1323,-6.1323,-6.1323,-6.1185,-6.1289,-6.1323,-6.1532,-6.1708,-6.1883,-6.2092,-6.2335,-6.261,-6.2643,-6.2778,-6.2775,-5.4448,-5.4721,-5.462,-5.4688,-5.4663,-5.4804,-5.5,-5.5177,-5.3963,-5.3163,-5.2802,-5.3398,-5.3629,-5.3757,-5.4287,-5.4611,-5.4638,-5.5014,-5.5166,-5.5166,-5.5166,-5.5166,-5.5166,-5.5166,-5.5166,-5.5166,-5.5247,-5.5274,-5.5301,-5.5383,-5.541,-5.5437,-5.541,-5.5437,-5.541,-5.541,-5.5627,-5.6007,-5.5545,-5.5675,-5.6265,-5.5767,-5.565,-5.6142,-5.5131,-5.4512,-5.4316,-5.3951,-5.3692,-5.3366,-5.298,-5.2722,-5.2484,-5.2471,-5.2352,-5.2446,-5.3398,-5.3945,-5.3854,-5.4326,-5.473,-5.5127,-5.5274,-5.4694,-5.3039,-5.2365,-5.2017,-5.2017,-5.2144,-5.2099,-5.2295,-5.3113,-5.3743,-5.3938,-5.46,-5.5183,-5.5312,-5.5716,-5.602,-5.6184,-5.7165,-5.803,-5.8294,-5.8959,-5.9524,-6.0001,-6.0018,-6.0408,-6.0593,-6.0215,-6.0041,-6.0522,-6.0765,-6.0976,-6.1045,-6.108,-6.1183,-6.1254,-6.1392,-6.1496,-6.1496,-6.1496,-6.1496,-6.1358,-6.1461,-6.1705,-6.2331,-6.2506,-6.2891,-6.3625,-6.3904,-6.4008,-6.4146,-6.425,-6.4074,-5.5608,-5.5708,-5.5629,-5.5697,-5.5937,-5.6071,-5.6096,-5.5831,-5.5382,-5.4811,-5.4394,-5.434,-5.4596,-5.4981,-5.4915,-5.5006,-5.5159,-5.5284,-5.541,-5.541,-5.541,-5.541,-5.541,-5.541,-5.541,-5.5437,-5.5762,-5.5898,-5.5925,-5.6224,-5.6359,-5.6359,-5.6387,-5.6359,-5.6387,-5.6387,-5.6495,-5.6766,-5.6323,-5.6374,-5.6872,-5.6747,-5.6809,-5.6957,-5.603,-5.5412,-5.5102,-5.4599,-5.4318,-5.4137,-5.3932,-5.3942,-5.4139,-5.4328,-5.4348,-5.4038,-5.496,-5.525,-5.4522,-5.4727,-5.5101,-5.5499,-5.5649,-5.5543,-5.4861,-5.4482,-5.4261,-5.4261,-5.4292,-5.4347,-5.4464,-5.5091,-5.5505,-5.5622,-5.6247,-5.6575,-5.6658,-5.6988,-5.7233,-5.7314,-5.8171,-5.8842,-5.9031,-5.9573,-6.0114,-6.0523,-6.0818,-6.1246,-6.1875,-6.1597,-6.1215,-6.118,-6.1218,-6.1496,-6.1841,-6.1944,-6.2117,-6.2461,-6.253,-6.2565,-6.2565,-6.253,-6.2603,-6.271,-6.271,-6.2885,-6.3447,-6.3623,-6.3904,-6.4148,-6.4498,-6.4637,-6.4637,-6.4706,-6.4601,-5.6551,-5.6551,-5.657,-5.6757,-5.704,-5.7178,-5.711,-5.6704,-5.6783,-5.6662,-5.6213,-5.5497,-5.5439,-5.5929,-5.5626,-5.5537,-5.5817,-5.5817,-5.5817,-5.5817,-5.5817,-5.5817,-5.5817,-5.5817,-5.5817,-5.5871,-5.6278,-5.6495,-5.6549,-5.6956,-5.7174,-5.7174,-5.7174,-5.7174,-5.7174,-5.7174,-5.7174,-5.7146,-5.7123,-5.7256,-5.7508,-5.7744,-5.7685,-5.7603,-5.6957,-5.6423,-5.5945,-5.5327,-5.4939,-5.477,-5.4823,-5.4902,-5.5307,-5.5859,-5.5947,-5.5706,-5.6449,-5.6607,-5.5804,-5.5776,-5.5876,-5.6154,-5.6182,-5.6392,-5.6663,-5.6663,-5.6505,-5.6252,-5.6062,-5.6094,-5.6208,-5.6535,-5.6861,-5.6947,-5.7324,-5.7482,-5.7631,-5.7967,-5.8215,-5.8298,-5.9079,-5.9689,-5.9767,-6.0213,-6.0732,-6.1251,-6.1624,-6.2082,-6.2599,-6.2737,-6.2461,-6.2048,-6.1806,-6.2082,-6.2634,-6.2737,-6.2944,-6.3531,-6.3531,-6.3462,-6.3462,-6.3531,-6.3747,-6.3716,-6.3823,-6.3933,-6.4145,-6.4252,-6.4358,-6.4463,-6.4568,-6.4706,-6.4706,-6.4706,-6.4706,-5.7049,-5.7047,-5.7268,-5.7524,-5.781,-5.785,-5.7937,-5.7999,-5.8032,-5.81,-5.7973,-5.6954,-5.6601,-5.6601,-5.6882,-5.6956,-5.6956,-5.7011,-5.6984,-5.6984,-5.7011,-5.7011,-5.6956,-5.6984,-5.7011,-5.6984,-5.7038,-5.7038,-5.7038,-5.7146,-5.7201,-5.7174,-5.7174,-5.7228,-5.7201,-5.7228,-5.7201,-5.7174,-5.7761,-5.8115,-5.8088,-5.7966,-5.7908,-5.8221,-5.7603,-5.7266,-5.7154,-5.6592,-5.6063,-5.582,-5.5594,-5.531,-5.5209,-5.5584,-5.5945,-5.6249,-5.672,-5.7359,-5.7922,-5.7937,-5.7862,-5.8182,-5.7809,-5.7776,-5.8085,-5.8085,-5.7516,-5.6663,-5.6283,-5.6373,-5.6423,-5.6782,-5.714,-5.7345,-5.7538,-5.7547,-5.7761,-5.7967,-5.8215,-5.8215,-5.9496,-6.0345,-6.0571,-6.1177,-6.2009,-6.248,-6.2822,-6.3151,-6.3324,-6.3358,-6.3358,-6.3289,-6.3324,-6.3324,-6.3427,-6.3496,-6.3462,-6.36,-6.36,-6.36,-6.36,-6.3747,-6.3927,-6.3927,-6.4037,-6.4251,-6.4358,-6.4393,-6.4463,-6.4568,-6.4637,-6.4706,-6.4706,-6.4706,-6.4706,-5.8227,-5.8227,-5.7744,-5.7747,-5.7979,-5.8355,-5.8674,-5.8718,-5.8764,-5.8883,-5.886,-5.8346,-5.7938,-5.7559,-5.7363,-5.7174,-5.7174,-5.7174,-5.7174,-5.7174,-5.7174,-5.7174,-5.7174,-5.7174,-5.7174,-5.7174,-5.7174,-5.7174,-5.7174,-5.7174,-5.7363,-5.7662,-5.7716,-5.7879,-5.8232,-5.8259,-5.8259,-5.8259,-5.8886,-5.911,-5.8823,-5.8648,-5.8716,-5.8783,-5.825,-5.794,-5.7856,-5.7322,-5.6992,-5.7066,-5.7135,-5.6967,-5.6707,-5.722,-5.7319,-5.6957,-5.7334,-5.7849,-5.8359,-5.8516,-5.8659,-5.9149,-5.8996,-5.9032,-5.9475,-5.9475,-5.9191,-5.8654,-5.7895,-5.7512,-5.7571,-5.7962,-5.8229,-5.8318,-5.8581,-5.8842,-5.8842,-5.9239,-5.9493,-5.961,-6.0341,-6.1032,-6.1274,-6.1908,-6.2503,-6.3,-6.3227,-6.352,-6.3634,-6.36,-6.36,-6.36,-6.36,-6.36,-6.36,-6.36,-6.36,-6.36,-6.36,-6.36,-6.3673,-6.3747,-6.3927,-6.4072,-6.4251,-6.4358,-6.4568,-6.4568,-6.4637,-6.4706,-6.4706,-6.4706,-6.4706,-6.4706,-6.4706,-5.9135,-5.9135,-5.8218,-5.8114,-5.8447,-5.8858,-5.9228,-5.9455,-5.9445,-5.9559,-5.9642,-5.9373,-5.8992,-5.853,-5.7933,-5.7689,-5.7689,-5.7689,-5.7689,-5.7689,-5.7689,-5.7689,-5.7689,-5.7689,-5.7689,-5.7689,-5.7716,-5.7689,-5.7689,-5.7689,-5.7906,-5.8259,-5.834,-5.8557,-5.8937,-5.8992,-5.8992,-5.8992,-5.9627,-5.9642,-5.9358,-5.9428,-5.9445,-5.9233,-5.8783,-5.8559,-5.8531,-5.7969,-5.7753,-5.7966,-5.8189,-5.8229,-5.8002,-5.8579,-5.8537,-5.79,-5.8414,-5.8814,-5.8838,-5.896,-5.9271,-5.9768,-5.9742,-5.9781,-6.0201,-6.0297,-6.0297,-6.017,-5.9412,-5.8812,-5.8905,-5.9306,-5.958,-5.958,-6.0032,-6.0299,-6.0299,-6.0619,-6.0913,-6.1086,-6.1513,-6.1983,-6.2312,-6.2944,-6.3485,-6.3717,-6.3802,-6.3996,-6.4146,-6.4289,-6.4255,-6.422,-6.4255,-6.4048,-6.3738,-6.36,-6.36,-6.36,-6.36,-6.36,-6.3673,-6.382,-6.4037,-6.4217,-6.4358,-6.4498,-6.4637,-6.4637,-6.4706,-6.4706,-6.4706,-6.4706,-6.4706,-6.4706,-6.4843,-5.9463,-5.9311,-5.8955,-5.9215,-5.9827,-5.9352,-5.9508,-6.0039,-6.0123,-6.0426,-6.0593,-6.0104,-5.9833,-5.9724,-5.9154,-5.891,-5.8883,-5.8829,-5.8802,-5.8802,-5.8829,-5.8883,-5.8937,-5.891,-5.8883,-5.8747,-5.8747,-5.8802,-5.8829,-5.8883,-5.8937,-5.8964,-5.8964,-5.8992,-5.91,-5.9127,-5.9046,-5.9127,-5.9527,-5.9654,-5.9966,-6.0329,-6.0002,-5.943,-5.9205,-5.9177,-5.9121,-5.8587,-5.825,-5.825,-5.839,-5.8292,-5.8308,-5.884,-5.9217,-5.9168,-6.0126,-6.0502,-6.0,-5.9838,-5.9981,-6.0391,-6.0054,-5.9844,-6.0422,-6.0518,-6.0518,-6.036,-6.0329,-6.0202,-6.0202,-6.0454,-6.0828,-6.086,-6.1354,-6.1504,-6.1627,-6.171,-6.2175,-6.2376,-6.2541,-6.296,-6.3601,-6.4397,-6.4631,-6.4868,-6.5172,-6.537,-6.5455,-6.5635,-6.56,-6.56,-6.5531,-6.5255,-6.4014,-6.3945,-6.3876,-6.3738,-6.3841,-6.3742,-6.3927,-6.4037,-6.4251,-6.4358,-6.4498,-6.4637,-6.4706,-6.4706,-6.4706,-6.4706,-6.4706,-6.4706,-6.4775,-6.4843,-6.4979,-5.9947,-6.0165,-6.0493,-6.0329,-5.9906,-6.0287,-6.0275,-6.0204,-6.048,-6.0618,-6.0728,-6.0538,-6.0457,-6.043,-6.024,-5.9724,-5.9046,-5.8992,-5.8992,-5.8992,-5.8992,-5.8992,-5.8992,-5.8992,-5.8992,-5.8992,-5.8992,-5.8992,-5.8992,-5.8992,-5.9209,-5.9534,-5.9561,-5.9724,-6.005,-6.0131,-6.0131,-6.0131,-6.0537,-6.0615,-6.0601,-6.0837,-6.084,-6.0469,-6.002,-5.9795,-5.9795,-5.9205,-5.8896,-5.8896,-5.9228,-5.9342,-5.8965,-5.948,-5.9883,-5.9989,-6.0715,-6.1074,-6.0684,-6.073,-6.0917,-6.0998,-6.0951,-6.0965,-6.1361,-6.1558,-6.1656,-6.1624,-6.1656,-6.1656,-6.1466,-6.1186,-6.0897,-6.1116,-6.1395,-6.1703,-6.1821,-6.2035,-6.2305,-6.2573,-6.3012,-6.3496,-6.3935,-6.4285,-6.4695,-6.5062,-6.5333,-6.5524,-6.5799,-6.5876,-6.5945,-6.5911,-6.5876,-6.5704,-6.529,-6.5083,-6.4979,-6.4531,-6.4289,-6.4122,-6.4204,-6.4211,-6.4356,-6.4568,-6.4673,-6.4706,-6.4706,-6.4706,-6.4706,-6.4706,-6.4706,-6.4775,-6.4878,-6.4979,-6.5114,-6.0506,-6.0924,-6.1458,-6.1397,-6.08,-6.097,-6.0989,-6.0585,-6.0699,-6.0755,-6.0755,-6.0755,-6.0755,-6.0755,-6.0755,-6.0375,-5.9616,-5.9589,-5.9589,-5.9589,-5.9589,-5.9561,-5.9561,-5.9589,-5.9589,-5.9589,-5.9561,-5.9589,-5.9561,-5.9589,-5.9778,-6.0158,-6.0185,-6.0375,-6.0701,-6.0755,-6.0755,-6.0892,-6.1057,-6.1083,-6.113,-6.1314,-6.1546,-6.1417,-6.0931,-6.0638,-6.0441,-5.9851,-5.9514,-5.9514,-5.9974,-6.0062,-5.9956,-6.0326,-6.0586,-6.0639,-6.1291,-6.1519,-6.1304,-6.1507,-6.1752,-6.1815,-6.1845,-6.2027,-6.233,-6.2373,-6.2347,-6.2446,-6.2446,-6.2446,-6.2256,-6.1658,-6.1408,-6.1694,-6.2009,-6.2289,-6.2534,-6.2658,-6.2965,-6.3326,-6.3892,-6.4261,-6.4537,-6.4858,-6.5309,-6.5812,-6.5892,-6.6131,-6.6445,-6.66,-6.66,-6.66,-6.6669,-6.6738,-6.66,-6.6566,-6.5979,-6.5462,-6.5158,-6.4853,-6.4689,-6.4665,-6.4635,-6.4778,-6.4778,-6.4707,-6.4706,-6.4706,-6.4706,-6.4706,-6.4775,-6.4843,-6.4979,-6.5149,-6.5247,-6.1041,-6.1391,-6.1642,-6.1967,-6.1992,-6.1541,-6.1426,-6.1461,-6.1027,-6.0837,-6.0782,-6.0755,-6.0755,-6.0755,-6.0755,-6.0728,-6.062,-6.0565,-6.0593,-6.0593,-6.062,-6.062,-6.062,-6.0565,-6.0565,-6.0593,-6.0701,-6.0701,-6.062,-6.0647,-6.0728,-6.0755,-6.0837,-6.0918,-6.0837,-6.0945,-6.0891,-6.0918,-6.0972,-6.1138,-6.1329,-6.1681,-6.203,-6.2214,-6.2108,-6.1706,-6.1172,-6.0497,-6.0132,-6.0076,-6.0183,-6.0488,-6.0923,-6.1377,-6.138,-6.1232,-6.1719,-6.1958,-6.2001,-6.2238,-6.261,-6.2867,-6.2747,-6.2746,-6.2856,-6.2751,-6.2635,-6.2572,-6.2541,-6.2477,-6.2477,-6.2288,-6.2421,-6.3068,-6.3164,-6.3449,-6.3735,-6.3926,-6.4146,-6.4447,-6.4926,-6.5537,-6.5975,-6.6067,-6.634,-6.6792,-6.7073,-6.7249,-6.7422,-6.766,-6.7945,-6.7945,-6.7704,-6.7532,-6.7807,-6.7945,-6.7118,-6.6359,-6.6125,-6.5855,-6.5773,-6.5642,-6.5615,-6.5654,-6.5233,-6.5127,-6.4706,-6.4706,-6.4706,-6.4775,-6.4843,-6.4979,-6.5114,-6.5282,-6.5379,-6.1193,-6.1796,-6.2508,-6.2485,-6.2431,-6.2606,-6.2269,-6.1624,-6.1407,-6.1135,-6.081,-6.0755,-6.0755,-6.0782,-6.0755,-6.0782,-6.0755,-6.0755,-6.0782,-6.081,-6.0782,-6.0755,-6.0755,-6.0782,-6.0755,-6.0755,-6.0755,-6.0782,-6.0864,-6.1162,-6.1352,-6.1407,-6.1759,-6.1976,-6.1949,-6.1976,-6.1976,-6.1976,-6.2004,-6.1953,-6.1987,-6.2179,-6.2422,-6.2409,-6.2585,-6.2549,-6.2324,-6.1369,-6.0835,-6.0778,-6.0637,-6.0622,-6.0825,-6.1284,-6.1644,-6.1851,-6.2172,-6.245,-6.2637,-6.2737,-6.2774,-6.3025,-6.3171,-6.3392,-6.3464,-6.3657,-6.3615,-6.3268,-6.3141,-6.2983,-6.2572,-6.2446,-6.2707,-6.3131,-6.3325,-6.3517,-6.3897,-6.4085,-6.4333,-6.4702,-6.4976,-6.5369,-6.578,-6.6129,-6.6388,-6.6896,-6.7229,-6.7557,-6.7799,-6.7959,-6.8083,-6.8083,-6.8083,-6.8083,-6.8083,-6.8083,-6.7669,-6.7195,-6.6919,-6.6796,-6.6676,-6.6551,-6.6491,-6.6179,-6.5829,-6.5373,-6.4952,-6.4706,-6.4775,-6.4843,-6.4979,-6.5114,-6.5349,-6.548,-6.551,-6.1193,-6.2123,-6.2842,-6.2925,-6.2725,-6.3262,-6.3008,-6.2302,-6.2031,-6.1759,-6.1488,-6.1434,-6.1434,-6.1434,-6.1434,-6.1434,-6.1407,-6.1434,-6.1407,-6.1325,-6.0891,-6.0782,-6.081,-6.1,-6.1081,-6.1135,-6.1325,-6.1434,-6.1461,-6.1759,-6.1949,-6.2058,-6.2356,-6.2519,-6.2546,-6.2546,-6.2546,-6.2546,-6.2519,-6.2497,-6.2477,-6.2784,-6.3003,-6.2943,-6.3096,-6.3251,-6.3167,-6.2296,-6.1678,-6.1441,-6.1033,-6.0879,-6.0991,-6.1338,-6.1642,-6.1998,-6.2321,-6.2609,-6.3049,-6.3213,-6.3396,-6.3408,-6.3671,-6.3972,-6.4015,-6.4308,-6.4177,-6.3963,-6.3868,-6.371,-6.3331,-6.3236,-6.3404,-6.38,-6.3419,-6.3453,-6.3929,-6.4085,-6.4333,-6.461,-6.4885,-6.5189,-6.5692,-6.5922,-6.6268,-6.6643,-6.7146,-6.7475,-6.7719,-6.7959,-6.8039,-6.8118,-6.8083,-6.8083,-6.8083,-6.8083,-6.8083,-6.792,-6.7757,-6.7669,-6.7585,-6.7357,-6.7155,-6.6635,-6.6216,-6.5759,-6.5338,-6.495,-6.4878,-6.5014,-6.5117,-6.5247,-6.5445,-6.5611,-6.5675,-6.1193,-6.2123,-6.2842,-6.3111,-6.3152,-6.3452,-6.3442,-6.3279,-6.2818,-6.2519,-6.2465,-6.2356,-6.2411,-6.2465,-6.2356,-6.2329,-6.2492,-6.2383,-6.2356,-6.2112,-6.1515,-6.1054,-6.1135,-6.1488,-6.1651,-6.1759,-6.2166,-6.2411,-6.2356,-6.2519,-6.2601,-6.2601,-6.2709,-6.2682,-6.2818,-6.2682,-6.279,-6.2818,-6.2763,-6.2736,-6.2601,-6.3249,-6.3584,-6.3474,-6.3716,-6.3813,-6.3616,-6.3083,-6.2521,-6.1931,-6.1529,-6.1432,-6.1422,-6.1299,-6.164,-6.2027,-6.2116,-6.2555,-6.3249,-6.3759,-6.3954,-6.4137,-6.4289,-6.4443,-6.4702,-6.4643,-6.461,-6.4626,-6.4563,-6.4532,-6.4405,-6.4342,-6.4444,-6.4684,-6.3994,-6.3742,-6.3929,-6.4056,-6.4435,-6.4774,-6.4892,-6.514,-6.5935,-6.6256,-6.6517,-6.681,-6.7353,-6.7837,-6.8002,-6.8314,-6.828,-6.8428,-6.8635,-6.8532,-6.8635,-6.8532,-6.8463,-6.8128,-6.8146,-6.8274,-6.8287,-6.8129,-6.7823,-6.7267,-6.6742,-6.6286,-6.5864,-6.5547,-6.5299,-6.5399,-6.5463,-6.5485,-6.5611,-6.5675,-6.5811,-6.1193,-6.2123,-6.2842,-6.3111,-6.3232,-6.383,-6.3822,-6.3442,-6.3279,-6.298,-6.2655,-6.2546,-6.2601,-6.2546,-6.2573,-6.2546,-6.2601,-6.2601,-6.2546,-6.2492,-6.2275,-6.2085,-6.2085,-6.2221,-6.2302,-6.2329,-6.2519,-6.2546,-6.2573,-6.3008,-6.3197,-6.3225,-6.3577,-6.3794,-6.3849,-6.3767,-6.3849,-6.3849,-6.3822,-6.3577,-6.3367,-6.388,-6.4054,-6.375,-6.4162,-6.4263,-6.3813,-6.3251,-6.2661,-6.2071,-6.238,-6.2051,-6.1404,-6.1582,-6.187,-6.2116,-6.2116,-6.2468,-6.3279,-6.3766,-6.4075,-6.4382,-6.4751,-6.5126,-6.5451,-6.554,-6.5481,-6.5376,-6.529,-6.51,-6.469,-6.4563,-6.4767,-6.498,-6.4671,-6.4256,-6.4188,-6.4445,-6.4926,-6.5461,-6.5914,-6.639,-6.6883,-6.7368,-6.7602,-6.7812,-6.8301,-6.8811,-6.8842,-6.9125,-6.9267,-6.967,-6.9808,-6.9463,-6.9222,-6.9084,-6.8773,-6.83,-6.8284,-6.8559,-6.8717,-6.8728,-6.8456,-6.8076,-6.7655,-6.7199,-6.6743,-6.6321,-6.6178,-6.6065,-6.5916,-6.5936,-6.5818,-6.5875,-6.5982,-6.1193,-6.2123,-6.2842,-6.3111,-6.3259,-6.3992,-6.4093,-6.3849,-6.3794,-6.3632,-6.3333,-6.3279,-6.3279,-6.3279,-6.3279,-6.3279,-6.3279,-6.3279,-6.3306,-6.3306,-6.3306,-6.3008,-6.2709,-6.2736,-6.2899,-6.2953,-6.317,-6.3279,-6.336,-6.3632,-6.3767,-6.3849,-6.4147,-6.431,-6.4256,-6.431,-6.431,-6.4283,-6.431,-6.412,-6.3822,-6.4511,-6.4658,-6.4526,-6.4888,-6.4769,-6.3897,-6.3476,-6.3026,-6.2624,-6.2778,-6.2679,-6.1994,-6.1986,-6.2191,-6.2262,-6.2175,-6.2468,-6.3049,-6.3622,-6.4075,-6.43,-6.4746,-6.5297,-6.5592,-6.5947,-6.5941,-6.5975,-6.6017,-6.5796,-6.5511,-6.5385,-6.5433,-6.5485,-6.5372,-6.5156,-6.4867,-6.5254,-6.564,-6.6089,-6.6602,-6.6992,-6.746,-6.8011,-6.8249,-6.8395,-6.8823,-6.9254,-6.9543,-6.9932,-7.0285,-7.0519,-7.0532,-7.0153,-6.9911,-6.9773,-6.9405,-6.8898,-6.857,-6.8844,-6.8967,-6.9192,-6.9021,-6.8708,-6.8428,-6.8076,-6.7658,-6.72,-6.7055,-6.6837,-6.6647,-6.6601,-6.6595,-6.6446,-6.6482,-6.1193,-6.1947,-6.2693,-6.3111,-6.3259,-6.3873,-6.4283,-6.4283,-6.4256,-6.4229,-6.4201,-6.4256,-6.4147,-6.431,-6.4066,-6.4229,-6.4229,-6.412,-6.4174,-6.4147,-6.4093,-6.3713,-6.3035,-6.3333,-6.3496,-6.3577,-6.4093,-6.4174,-6.412,-6.4229,-6.4283,-6.4229,-6.4283,-6.431,-6.431,-6.431,-6.431,-6.431,-6.431,-6.4283,-6.4346,-6.4923,-6.5324,-6.5498,-6.5391,-6.5162,-6.4347,-6.3869,-6.3504,-6.3054,-6.309,-6.3108,-6.2978,-6.2447,-6.2389,-6.252,-6.2439,-6.2411,-6.2731,-6.3508,-6.3993,-6.4106,-6.4554,-6.5108,-6.5592,-6.57,-6.5991,-6.6491,-6.6586,-6.6459,-6.6428,-6.6491,-6.6311,-6.6147,-6.6192,-6.6309,-6.6288,-6.6258,-6.6323,-6.6646,-6.6933,-6.7188,-6.7565,-6.7995,-6.8517,-6.9142,-6.9613,-6.9998,-7.0345,-7.0635,-7.0854,-7.1084,-7.0946,-7.0739,-7.0601,-7.0498,-6.9992,-6.9485,-6.9099,-6.9129,-6.9188,-6.9302,-6.9376,-6.92,-6.8884,-6.8711,-6.8609,-6.8293,-6.7971,-6.7753,-6.7567,-6.7772,-6.7909,-6.7552,-6.741,-6.1041,-6.1672,-6.2422,-6.2842,-6.3111,-6.358,-6.4019,-6.431,-6.431,-6.431,-6.431,-6.431,-6.431,-6.431,-6.431,-6.431,-6.431,-6.431,-6.431,-6.431,-6.431,-6.4201,-6.3903,-6.4039,-6.4066,-6.412,-6.4229,-6.431,-6.431,-6.431,-6.431,-6.431,-6.431,-6.431,-6.431,-6.431,-6.431,-6.431,-6.431,-6.4455,-6.4745,-6.5204,-6.5633,-6.5834,-6.5754,-6.5612,-6.5162,-6.4319,-6.3919,-6.3932,-6.3818,-6.3637,-6.3463,-6.3497,-6.3233,-6.2842,-6.2761,-6.2795,-6.285,-6.3394,-6.3993,-6.4106,-6.4554,-6.5108,-6.5592,-6.57,-6.6023,-6.648,-6.6586,-6.6586,-6.6586,-6.6586,-6.6596,-6.6615,-6.6894,-6.717,-6.7282,-6.7163,-6.7101,-6.7427,-6.7948,-6.8599,-6.8888,-6.9263,-6.9636,-7.0013,-7.0344,-7.077,-7.1056,-7.1302,-7.1422,-7.1587,-7.1705,-7.1532,-7.1256,-7.1166,-7.0695,-7.0119,-6.9732,-6.952,-6.9543,-6.9376,-6.9376,-6.9376,-6.927,-6.9206,-6.9139,-6.8965,-6.8609,-6.8499,-6.8524,-6.852,-6.8551,-6.8373,-6.8409,-6.0737,-6.1495,-6.1947,-6.2545,-6.3111,-6.358,-6.3873,-6.431,-6.431,-6.431,-6.431,-6.431,-6.431,-6.431,-6.431,-6.431,-6.431,-6.431,-6.431,-6.431,-6.431,-6.431,-6.431,-6.431,-6.431,-6.431,-6.431,-6.431,-6.431,-6.431,-6.431,-6.431,-6.431,-6.431,-6.431,-6.431,-6.431,-6.431,-6.431,-6.4455,-6.4889,-6.5347,-6.5775,-6.6145,-6.6118,-6.6005,-6.5583,-6.4933,-6.4583,-6.4557,-6.4438,-6.4239,-6.3993,-6.393,-6.3669,-6.3281,-6.2966,-6.2943,-6.291,-6.3394,-6.3993,-6.3993,-6.4554,-6.5077,-6.5515,-6.57,-6.6023,-6.6374,-6.6586,-6.6586,-6.6586,-6.6586,-6.6691,-6.6796,-6.7181,-6.7388,-6.7529,-6.7677,-6.7683,-6.8013,-6.8536,-6.8863,-6.9285,-6.9798,-7.0143,-7.0155,-7.0464,-7.0951,-7.1396,-7.1591,-7.1919,-7.2141,-7.2414,-7.2395,-7.205,-7.1753,-7.1399,-7.0868,-7.0297,-7.012,-7.0073,-6.9762,-6.9376,-6.9376,-6.934,-6.956,-6.9458,-6.9318,-6.9318,-6.956,-6.9519,-6.9337,-6.9265,-6.9408,-6.9479,-6.0584,-6.1344,-6.1646,-6.222,-6.2964,-6.3433,-6.3873,-6.4165,-6.431,-6.431,-6.431,-6.431,-6.431,-6.431,-6.431,-6.431,-6.431,-6.431,-6.431,-6.431,-6.431,-6.431,-6.431,-6.431,-6.431,-6.431,-6.431,-6.431,-6.431,-6.431,-6.431,-6.431,-6.431,-6.431,-6.431,-6.431,-6.431,-6.431,-6.4455,-6.46,-6.5033,-6.549,-6.5917,-6.6426,-6.6539,-6.6314,-6.6003,-6.5521,-6.5305,-6.505,-6.4842,-6.4627,-6.4496,-6.4405,-6.4047,-6.3778,-6.3436,-6.3179,-6.3118,-6.3514,-6.3993,-6.4106,-6.4666,-6.5187,-6.5592,-6.5808,-6.6054,-6.6374,-6.6586,-6.6586,-6.6586,-6.6586,-6.6586,-6.6691,-6.7109,-6.7285,-6.7491,-6.7899,-6.8136,-6.8236,-6.8535,-6.8896,-6.9188,-6.9607,-7.0049,-7.0423,-7.0733,-7.1007,-7.1423,-7.1776,-7.2038,-7.2331,-7.2586,-7.2671,-7.2395,-7.2306,-7.1905,-7.1527,-7.1002,-7.0678,-7.0529,-7.0148,-6.9762,-6.9446,-6.9449,-6.956,-6.9705,-6.9637,-6.9849,-7.0341,-7.0371,-6.9979,-7.0122,-7.0443,-7.0371,-6.0406,-6.0889,-6.1344,-6.1947,-6.272,-6.3138,-6.3433,-6.3873,-6.4165,-6.431,-6.431,-6.431,-6.431,-6.431,-6.431,-6.431,-6.431,-6.431,-6.431,-6.431,-6.431,-6.431,-6.431,-6.431,-6.431,-6.431,-6.431,-6.431,-6.431,-6.431,-6.431,-6.431,-6.431,-6.431,-6.431,-6.431,-6.431,-6.431,-6.46,-6.4889,-6.5347,-6.5747,-6.6173,-6.6595,-6.6595,-6.6511,-6.6482,-6.6223,-6.5901,-6.5679,-6.5446,-6.516,-6.4955,-6.4851,-6.4697,-6.4305,-6.3906,-6.3712,-6.371,-6.3924,-6.4167,-6.4412,-6.4857,-6.5297,-6.5592,-6.5947,-6.6192,-6.648,-6.6586,-6.6586,-6.6586,-6.6586,-6.6586,-6.6691,-6.7005,-6.7388,-6.7491,-6.7797,-6.8201,-6.8201,-6.8501,-6.8797,-6.9091,-6.9382,-6.9765,-7.0236,-7.0515,-7.0825,-7.1278,-7.16,-7.2038,-7.2245,-7.2501,-7.2586,-7.2602,-7.2617,-7.2424,-7.2232,-7.1778,-7.1272,-7.1014,-7.0564,-7.0218,-6.9656,-6.9449,-6.956,-6.9705,-6.9813,-7.0132,-7.041,-7.0445,-7.0514,-7.0514,-7.0514,-7.0514,-5.9971,-6.0431,-6.0889,-6.1495,-6.2246,-6.2815,-6.3286,-6.3726,-6.4165,-6.431,-6.431,-6.431,-6.431,-6.431,-6.431,-6.431,-6.431,-6.431,-6.431,-6.431,-6.431,-6.431,-6.431,-6.431,-6.431,-6.431,-6.431,-6.431,-6.431,-6.431,-6.431,-6.431,-6.431,-6.431,-6.431,-6.431,-6.431,-6.4455,-6.4745,-6.5176,-6.549,-6.6031,-6.6455,-6.6595,-6.6595,-6.6735,-6.6901,-6.6696,-6.6343,-6.6118,-6.5852,-6.5506,-6.517,-6.5163,-6.5086,-6.4817,-6.4293,-6.4128,-6.4183,-6.4159,-6.4106,-6.4382,-6.4967,-6.5406,-6.5731,-6.5947,-6.6299,-6.6512,-6.6586,-6.6586,-6.6586,-6.6586,-6.6586,-6.6691,-6.7109,-6.7285,-6.7491,-6.7899,-6.8101,-6.8201,-6.8501,-6.8699,-6.8994,-6.9285,-6.9703,-6.9955,-7.033,-7.0699,-7.1098,-7.1457,-7.1864,-7.2245,-7.2501,-7.2671,-7.2671,-7.2636,-7.2769,-7.2649,-7.244,-7.1936,-7.1357,-7.095,-7.0253,-6.9551,-6.9484,-6.9522,-6.9705,-6.9885,-7.0132,-7.0341,-7.0445,-7.0514,-7.0514,-7.0514,-7.0514,-5.9663,-6.0125,-6.0584,-6.1193,-6.1921,-6.2693,-6.3286,-6.358,-6.4019,-6.4165,-6.431,-6.431,-6.431,-6.431,-6.431,-6.431,-6.431,-6.431,-6.431,-6.431,-6.431,-6.431,-6.431,-6.431,-6.431,-6.431,-6.431,-6.431,-6.431,-6.431,-6.431,-6.431,-6.431,-6.431,-6.431,-6.431,-6.431,-6.46,-6.4745,-6.5176,-6.5775,-6.6314,-6.6595,-6.6595,-6.6595,-6.6735,-6.7097,-6.7033,-6.6757,-6.6499,-6.6128,-6.5809,-6.5269,-6.5348,-6.5492,-6.5211,-6.4597,-6.4427,-6.4597,-6.4159,-6.4218,-6.4524,-6.5077,-6.5406,-6.5731,-6.6054,-6.6406,-6.6512,-6.6586,-6.6586,-6.6586,-6.6586,-6.6586,-6.6723,-6.7005,-6.7388,-6.7491,-6.7797,-6.8101,-6.8301,-6.8401,-6.8699,-6.8896,-6.9091,-6.9382,-6.9893,-7.0176,-7.0456,-7.0825,-7.1244,-7.1688,-7.2072,-7.2416,-7.2586,-7.2671,-7.2671,-7.2887,-7.3078,-7.2777,-7.245,-7.1917,-7.1377,-7.0604,-6.9902,-6.9411,-6.9522,-6.9705,-6.9991,-7.0132,-7.0272,-7.0445,-7.0514,-7.0514,-7.0514,-7.0514,-5.9328,-6.0125,-6.0584,-6.1041,-6.1495,-6.2273,-6.2868,-6.3286,-6.358,-6.4019,-6.431,-6.431,-6.431,-6.431,-6.431,-6.431,-6.431,-6.431,-6.431,-6.431,-6.431,-6.431,-6.431,-6.431,-6.431,-6.431,-6.431,-6.431,-6.431,-6.431,-6.431,-6.431,-6.431,-6.431,-6.431,-6.431,-6.4455,-6.4889,-6.5176,-6.5775,-6.6314,-6.6595,-6.6595,-6.6595,-6.6595,-6.6875,-6.7293,-6.737,-6.7265,-6.6499,-6.6693,-6.6287,-6.5611,-6.5475,-6.5853,-6.5784,-6.5318,-6.4815,-6.5339,-6.4661,-6.4331,-6.4746,-6.5297,-6.5592,-6.5915,-6.6268,-6.6512,-6.6617,-6.6586,-6.6586,-6.6586,-6.6586,-6.6586,-6.6796,-6.7109,-6.7285,-6.7491,-6.7899,-6.8201,-6.8201,-6.8301,-6.86,-6.8896,-6.8994,-6.9188,-6.9703,-7.0082,-7.0363,-7.0699,-7.1154,-7.16,-7.1985,-7.2416,-7.2586,-7.2671,-7.2671,-7.2922,-7.3252,-7.309,-7.2903,-7.2407,-7.1833,-7.1307,-7.0639,-7.0043,-6.9698,-7.0024,-7.0204,-7.0203,-7.0272,-7.0445,-7.0514,-7.0514,-7.0514,-7.0514,-5.9043,-5.9792,-6.0431,-6.0889,-6.1193,-6.2123,-6.272,-6.2868,-6.3433,-6.3753,-6.4019,-6.4165,-6.431,-6.431,-6.431,-6.431,-6.431,-6.431,-6.431,-6.431,-6.431,-6.431,-6.431,-6.431,-6.431,-6.431,-6.431,-6.431,-6.431,-6.431,-6.431,-6.431,-6.431,-6.431,-6.431,-6.431,-6.46,-6.4889,-6.5462,-6.6031,-6.6455,-6.6595,-6.6595,-6.6595,-6.6875,-6.7154,-6.7431,-6.7845,-6.7487,-6.6909,-6.6883,-6.6403,-6.5826,-6.5727,-6.6103,-6.6634,-6.5742,-6.541,-6.5637,-6.4775,-6.4708,-6.4967,-6.5515,-6.5808,-6.6161,-6.6374,-6.6586,-6.6586,-6.6586,-6.6586,-6.6586,-6.6586,-6.6586,-6.6691,-6.7109,-6.7317,-6.7491,-6.7899,-6.8201,-6.8201,-6.8201,-6.8501,-6.8699,-6.8994,-6.9188,-6.9478,-6.9988,-7.027,-7.0733,-7.1334,-7.1688,-7.1985,-7.2331,-7.2671,-7.2671,-7.2671,-7.2922,-7.317,-7.3334,-7.3078,-7.2836,-7.2325,-7.1833,-7.1271,-7.0639,-7.0476,-7.0521,-7.0275,-7.0097,-7.0272,-7.0514,-7.0514,-7.0514,-7.0514,-7.0582,-5.8756,-5.9328,-6.0278,-6.0584,-6.0737,-6.1823,-6.2448,-6.2746,-6.3312,-6.358,-6.3726,-6.4165,-6.431,-6.431,-6.431,-6.431,-6.431,-6.431,-6.431,-6.431,-6.431,-6.431,-6.431,-6.431,-6.431,-6.431,-6.431,-6.431,-6.431,-6.431,-6.431,-6.431,-6.431,-6.431,-6.431,-6.431,-6.46,-6.5176,-6.5747,-6.6314,-6.6595,-6.6595,-6.6595,-6.6735,-6.7014,-6.7293,-6.7679,-6.8011,-6.7815,-6.7041,-6.7014,-6.6692,-6.5865,-6.6007,-6.6506,-6.6729,-6.6102,-6.5732,-6.5687,-6.5155,-6.49,-6.5187,-6.5623,-6.6054,-6.648,-6.6586,-6.6586,-6.6586,-6.6586,-6.6586,-6.6586,-6.6586,-6.6586,-6.6796,-6.7109,-6.7181,-6.7491,-6.7899,-6.8201,-6.8201,-6.8201,-6.8301,-6.8501,-6.8797,-6.9091,-6.9382,-6.9798,-7.0176,-7.0733,-7.1334,-7.1722,-7.1985,-7.2245,-7.2586,-7.2671,-7.2755,-7.2922,-7.3088,-7.3252,-7.3276,-7.3107,-7.2886,-7.2395,-7.1833,-7.1307,-7.1251,-7.1334,-7.0628,-6.9991,-7.0272,-7.0514,-7.0514,-7.0514,-7.0514,-7.065,-5.8575,-5.9043,-5.9817,-6.0431,-6.0737,-6.1193,-6.1973,-6.2598,-6.299,-6.3433,-6.3726,-6.4165,-6.431,-6.431,-6.431,-6.431,-6.431,-6.431,-6.431,-6.431,-6.431,-6.431,-6.431,-6.431,-6.431,-6.431,-6.431,-6.431,-6.431,-6.431,-6.431,-6.431,-6.431,-6.431,-6.431,-6.4455,-6.4772,-6.5347,-6.6031,-6.6455,-6.6595,-6.6595,-6.6595,-6.6735,-6.7014,-6.7293,-6.7679,-6.8062,-6.795,-6.6941,-6.7028,-6.692,-6.6118,-6.6287,-6.6753,-6.7064,-6.6458,-6.6174,-6.6009,-6.5238,-6.4869,-6.5297,-6.5839,-6.6299,-6.6617,-6.6586,-6.6586,-6.6586,-6.6586,-6.6586,-6.6586,-6.6586,-6.6586,-6.6691,-6.7005,-6.7285,-6.7491,-6.7899,-6.8201,-6.8201,-6.8201,-6.8301,-6.8401,-6.8699,-6.8994,-6.9285,-6.9798,-7.0176,-7.0641,-7.1154,-7.16,-7.1985,-7.2159,-7.2416,-7.2671,-7.2755,-7.2838,-7.3088,-7.317,-7.3415,-7.3517,-7.3221,-7.2992,-7.2641,-7.2184,-7.2096,-7.1932,-7.1228,-7.0771,-7.0555,-7.0514,-7.0514,-7.0582,-7.0582,-7.0821,-5.8443,-5.8575,-5.9353,-6.0099,-6.0737,-6.1193,-6.1672,-6.2273,-6.2571,-6.3138,-6.3753,-6.4165,-6.431,-6.431,-6.431,-6.431,-6.431,-6.431,-6.431,-6.431,-6.431,-6.431,-6.431,-6.431,-6.431,-6.431,-6.431,-6.431,-6.431,-6.431,-6.431,-6.431,-6.431,-6.431,-6.431,-6.4745,-6.5204,-6.549,-6.6173,-6.6595,-6.6595,-6.6595,-6.6595,-6.6595,-6.7293,-6.7569,-6.7759,-6.7852,-6.762,-6.732,-6.6954,-6.6608,-6.6464,-6.6659,-6.7091,-6.7547,-6.6752,-6.6406,-6.6414,-6.5576,-6.5029,-6.5483,-6.6054,-6.6512,-6.6586,-6.6586,-6.6586,-6.6586,-6.6586,-6.6586,-6.6586,-6.6586,-6.6586,-6.6691,-6.7005,-6.7285,-6.7593,-6.7899,-6.8201,-6.8201,-6.8201,-6.8201,-6.8401,-6.8699,-6.8896,-6.9188,-6.9703,-7.0176,-7.0549,-7.0973,-7.1457,-7.1898,-7.2159,-7.2416,-7.2671,-7.2755,-7.2755,-7.3005,-7.317,-7.3415,-7.3577,-7.3782,-7.3553,-7.3273,-7.2992,-7.2759,-7.2458,-7.1935,-7.1552,-7.1302,-7.0838,-7.0514,-7.0582,-7.0793,-7.1211,-5.8129,-5.8286,-5.9043,-5.9792,-6.0584,-6.1041,-6.1495,-6.1823,-6.2448,-6.3017,-6.3726,-6.4019,-6.4165,-6.431,-6.431,-6.431,-6.431,-6.431,-6.431,-6.431,-6.431,-6.431,-6.431,-6.431,-6.431,-6.431,-6.431,-6.431,-6.431,-6.431,-6.431,-6.431,-6.431,-6.431,-6.4455,-6.5033,-6.549,-6.5633,-6.6173,-6.6595,-6.6595,-6.6595,-6.6735,-6.6875,-6.7403,-6.7707,-6.781,-6.7872,-6.777,-6.7363,-6.7037,-6.6744,-6.6773,-6.6939,-6.7336,-6.7363,-6.7077,-6.6514,-6.6252,-6.588,-6.5328,-6.5839,-6.6268,-6.648,-6.6586,-6.6586,-6.6586,-6.6586,-6.6586,-6.6586,-6.6586,-6.6586,-6.6586,-6.6691,-6.7109,-6.7388,-6.7593,-6.7899,-6.8101,-6.8201,-6.8201,-6.8201,-6.8401,-6.8699,-6.9091,-6.9382,-6.9798,-7.0176,-7.0515,-7.0882,-7.1367,-7.1722,-7.2072,-7.2331,-7.2671,-7.2671,-7.2755,-7.2838,-7.3088,-7.3334,-7.3496,-7.3852,-7.401,-7.3729,-7.3448,-7.3393,-7.3123,-7.2745,-7.2403,-7.2015,-7.1622,-7.1299,-7.1547,-7.183,-7.2072,-5.7971,-5.831,-5.8731,-5.9353,-6.0125,-6.0584,-6.1041,-6.1495,-6.2273,-6.3017,-6.358,-6.3726,-6.4019,-6.4165,-6.431,-6.431,-6.431,-6.431,-6.431,-6.431,-6.431,-6.431,-6.431,-6.431,-6.431,-6.431,-6.431,-6.431,-6.431,-6.431,-6.431,-6.431,-6.431,-6.431,-6.4455,-6.506,-6.549,-6.5633,-6.6314,-6.6595,-6.6595,-6.6595,-6.6735,-6.7154,-6.7403,-6.7845,-6.7832,-6.7881,-6.764,-6.726,-6.7019,-6.6782,-6.6966,-6.7305,-6.7516,-6.7413,-6.6858,-6.6269,-6.5934,-6.5778,-6.5794,-6.6085,-6.6406,-6.6586,-6.6586,-6.6586,-6.6586,-6.6586,-6.6586,-6.6586,-6.6586,-6.6586,-6.6586,-6.6796,-6.7213,-6.7491,-6.7593,-6.7899,-6.8101,-6.8201,-6.8201,-6.8201,-6.8401,-6.8699,-6.9188,-6.9574,-6.9988,-7.027,-7.0515,-7.0791,-7.1188,-7.1722,-7.2072,-7.2331,-7.2586,-7.2671,-7.2755,-7.2838,-7.3005,-7.3252,-7.3496,-7.3772,-7.3931,-7.3975,-7.3869,-7.3667,-7.3716,-7.3734,-7.3358,-7.3047,-7.2691,-7.2441,-7.2654,-7.2724,-7.2791,-5.7813,-5.8286,-5.8731,-5.9198,-5.9792,-6.0431,-6.0889,-6.1521,-6.2273,-6.2868,-6.3286,-6.358,-6.3873,-6.4165,-6.431,-6.431,-6.431,-6.431,-6.431,-6.431,-6.431,-6.431,-6.431,-6.431,-6.431,-6.431,-6.431,-6.431,-6.431,-6.431,-6.431,-6.431,-6.431,-6.4455,-6.4745,-6.5319,-6.5633,-6.589,-6.6314,-6.6595,-6.6595,-6.6595,-6.6735,-6.7154,-6.7541,-6.7616,-6.7708,-6.7638,-6.7334,-6.7137,-6.6765,-6.6922,-6.7274,-6.7638,-6.7634,-6.7408,-6.6882,-6.6447,-6.6009,-6.5902,-6.6117,-6.6299,-6.6406,-6.6586,-6.6586,-6.6586,-6.6586,-6.6586,-6.6586,-6.6586,-6.6586,-6.6586,-6.6586,-6.6901,-6.7213,-6.7491,-6.7695,-6.8,-6.8201,-6.8201,-6.8201,-6.8501,-6.8699,-6.8797,-6.9188,-6.9574,-6.9893,-7.0176,-7.0423,-7.0608,-7.0882,-7.1634,-7.2072,-7.2331,-7.2501,-7.2586,-7.2671,-7.2755,-7.3005,-7.3252,-7.3496,-7.3737,-7.3852,-7.3975,-7.401,-7.3975,-7.4033,-7.4046,-7.4279,-7.4112,-7.3582,-7.3226,-7.3119,-7.3119,-7.3187,-5.7813,-5.8286,-5.8575,-5.9043,-5.9663,-6.0431,-6.1041,-6.1646,-6.2123,-6.2693,-6.3111,-6.3433,-6.3873,-6.4165,-6.431,-6.431,-6.431,-6.431,-6.431,-6.431,-6.431,-6.431,-6.431,-6.431,-6.431,-6.431,-6.431,-6.431,-6.431,-6.431,-6.431,-6.431,-6.431,-6.46,-6.5033,-6.549,-6.5633,-6.6031,-6.6314,-6.6595,-6.6595,-6.6735,-6.6875,-6.7207,-6.7479,-6.7466,-6.7353,-6.7218,-6.7008,-6.6892,-6.6915,-6.7025,-6.7517,-6.7877,-6.7836,-6.7396,-6.6611,-6.6115,-6.5872,-6.6009,-6.6192,-6.6406,-6.648,-6.6586,-6.6586,-6.6586,-6.6586,-6.6586,-6.6586,-6.6586,-6.6586,-6.6617,-6.6691,-6.7005,-6.7213,-6.7491,-6.7797,-6.8101,-6.8201,-6.8201,-6.8201,-6.86,-6.8896,-6.8994,-6.9188,-6.9478,-6.9798,-7.0082,-7.0423,-7.0515,-7.0791,-7.1512,-7.1985,-7.2245,-7.2416,-7.2586,-7.2671,-7.2671,-7.2922,-7.3252,-7.3415,-7.3577,-7.3817,-7.401,-7.401,-7.4088,-7.4167,-7.4293,-7.4416,-7.4464,-7.4294,-7.3939,-7.3654,-7.369,-7.3833,-5.7497,-5.8286,-5.8286,-5.8756,-5.9508,-6.0431,-6.1193,-6.1973,-6.1973,-6.2396,-6.3111,-6.3111,-6.358,-6.4165,-6.431,-6.431,-6.431,-6.431,-6.431,-6.431,-6.431,-6.431,-6.431,-6.431,-6.431,-6.431,-6.431,-6.431,-6.431,-6.431,-6.431,-6.431,-6.4455,-6.4745,-6.5204,-6.5633,-6.5747,-6.6173,-6.6455,-6.6595,-6.6595,-6.6595,-6.7014,-6.7289,-6.725,-6.7285,-6.7273,-6.71,-6.6744,-6.6744,-6.7004,-6.7451,-6.7789,-6.8233,-6.7703,-6.695,-6.5973,-6.5685,-6.5762,-6.5978,-6.6299,-6.6512,-6.6617,-6.6586,-6.6586,-6.6586,-6.6586,-6.6586,-6.6586,-6.6586,-6.6586,-6.6691,-6.6691,-6.7005,-6.7213,-6.7523,-6.7797,-6.8,-6.8201,-6.8201,-6.8201,-6.8401,-6.8896,-6.9091,-6.9188,-6.9574,-6.9798,-6.9988,-7.027,-7.0423,-7.0791,-7.1423,-7.1864,-7.2072,-7.2331,-7.2586,-7.2671,-7.2671,-7.2838,-7.317,-7.3334,-7.3496,-7.3737,-7.3931,-7.401,-7.4088,-7.4167,-7.4287,-7.4593,-7.4606,-7.4541,-7.4652,-7.4404,-7.4582,-7.4762,-5.7497,-5.8286,-5.8286,-5.8756,-5.9483,-6.0431,-6.1193,-6.1973,-6.1973,-6.2396,-6.3111,-6.3111,-6.358,-6.431,-6.431,-6.431,-6.431,-6.431,-6.431,-6.431,-6.431,-6.431,-6.431,-6.431,-6.431,-6.431,-6.431,-6.431,-6.431,-6.431,-6.431,-6.431,-6.46,-6.5033,-6.5347,-6.5775,-6.6031,-6.6314,-6.6595,-6.6595,-6.6595,-6.6595,-6.7125,-6.7341,-6.7022,-6.6998,-6.6999,-6.685,-6.6647,-6.6332,-6.6987,-6.7576,-6.8,-6.8203,-6.7973,-6.695,-6.6195,-6.5592,-6.5808,-6.6161,-6.6512,-6.6617,-6.6586,-6.6586,-6.6586,-6.6586,-6.6586,-6.6586,-6.6586,-6.6586,-6.6586,-6.6586,-6.6796,-6.7109,-6.742,-6.7593,-6.7899,-6.8101,-6.8201,-6.8201,-6.8201,-6.8401,-6.8896,-6.8994,-6.9188,-6.9607,-6.9893,-6.9988,-7.0176,-7.0423,-7.0699,-7.1334,-7.1776,-7.2072,-7.2245,-7.2501,-7.2586,-7.2755,-7.2838,-7.3088,-7.3252,-7.3496,-7.3737,-7.3931,-7.401,-7.401,-7.4088,-7.4287,-7.4517,-7.4669,-7.4677,-7.4897,-7.5116,-7.5189,-7.5189,-5.7655,-5.8286,-5.8443,-5.9043,-5.992,-6.0328,-6.0857,-6.151,-6.1868,-6.2396,-6.3111,-6.3111,-6.3553,-6.4165,-6.431,-6.431,-6.431,-6.431,-6.431,-6.431,-6.431,-6.431,-6.431,-6.431,-6.431,-6.431,-6.431,-6.431,-6.431,-6.431,-6.431,-6.431,-6.4745,-6.5033,-6.549,-6.5747,-6.6173,-6.6455,-6.6595,-6.6595,-6.6595,-6.6707,-6.704,-6.7142,-6.69,-6.6776,-6.6694,-6.6667,-6.6391,-6.6376,-6.7238,-6.7728,-6.7848,-6.7867,-6.7696,-6.6817,-6.6182,-6.5748,-6.5808,-6.6268,-6.648,-6.6586,-6.6586,-6.6586,-6.6586,-6.6586,-6.6586,-6.6586,-6.6586,-6.6586,-6.6586,-6.6586,-6.7005,-6.7285,-6.7491,-6.7593,-6.7899,-6.8101,-6.8201,-6.8201,-6.8301,-6.8501,-6.8699,-6.8896,-6.9188,-6.9607,-6.9798,-6.9988,-7.0176,-7.033,-7.0641,-7.1098,-7.1634,-7.2072,-7.2245,-7.2416,-7.2586,-7.2671,-7.2755,-7.2922,-7.3252,-7.3415,-7.3657,-7.3852,-7.401,-7.401,-7.401,-7.4209,-7.4364,-7.4517,-7.4744,-7.4968,-7.5116,-7.5189,-7.5297,-5.7813,-5.8286,-5.8681,-5.9537,-6.0431,-6.007,-6.0289,-6.111,-6.1529,-6.2238,-6.2751,-6.3005,-6.3419,-6.3975,-6.4229,-6.431,-6.431,-6.431,-6.431,-6.431,-6.431,-6.431,-6.431,-6.431,-6.431,-6.431,-6.431,-6.431,-6.431,-6.431,-6.431,-6.431,-6.4745,-6.5176,-6.549,-6.589,-6.6314,-6.6455,-6.6595,-6.6595,-6.6707,-6.6901,-6.698,-6.6822,-6.6596,-6.6301,-6.637,-6.6226,-6.6132,-6.6748,-6.7361,-6.791,-6.7783,-6.7402,-6.702,-6.6571,-6.6027,-6.581,-6.5808,-6.6268,-6.648,-6.6586,-6.6586,-6.6586,-6.6586,-6.6586,-6.6586,-6.6586,-6.6586,-6.6586,-6.6586,-6.6691,-6.7005,-6.7285,-6.7491,-6.7695,-6.8,-6.8201,-6.8201,-6.8201,-6.8201,-6.8501,-6.8699,-6.8896,-6.9091,-6.9607,-6.9798,-6.9893,-7.0082,-7.0236,-7.0641,-7.0916,-7.1457,-7.1898,-7.2072,-7.2331,-7.2586,-7.2671,-7.2755,-7.2838,-7.317,-7.3334,-7.3496,-7.3737,-7.401,-7.401,-7.401,-7.4132,-7.4287,-7.4441,-7.4669,-7.4894,-7.5042,-7.5116,-7.5225,-5.7813,-5.8418,-5.8902,-5.9642,-6.0019,-5.9779,-5.999,-6.0457,-6.0881,-6.1371,-6.1886,-6.2496,-6.3172,-6.3515,-6.4066,-6.4229,-6.4256,-6.4283,-6.431,-6.431,-6.431,-6.431,-6.431,-6.431,-6.431,-6.431,-6.431,-6.431,-6.431,-6.431,-6.431,-6.4455,-6.4889,-6.5347,-6.5633,-6.6031,-6.6426,-6.6483,-6.6483,-6.6426,-6.637,-6.6505,-6.6441,-6.6422,-6.6251,-6.6085,-6.6078,-6.6109,-6.6346,-6.6936,-6.7546,-6.7938,-6.7942,-6.7204,-6.6704,-6.6201,-6.5933,-6.5717,-6.5808,-6.6268,-6.648,-6.6586,-6.6586,-6.6586,-6.6586,-6.6586,-6.6586,-6.6586,-6.6586,-6.6586,-6.6586,-6.6796,-6.7005,-6.7285,-6.7593,-6.7899,-6.8201,-6.8201,-6.8201,-6.8201,-6.8201,-6.8401,-6.8699,-6.8896,-6.9188,-6.9382,-6.9703,-6.9893,-6.9988,-7.0176,-7.0456,-7.0825,-7.1334,-7.1688,-7.1985,-7.2245,-7.2501,-7.2671,-7.2671,-7.2838,-7.3088,-7.3334,-7.3577,-7.3852,-7.401,-7.401,-7.401,-7.401,-7.4167,-7.4364,-7.4517,-7.4744,-7.4968,-7.5042,-7.5116,-5.8006,-5.8204,-5.8706,-5.9207,-5.943,-5.9359,-5.9539,-6.0093,-6.017,-6.0465,-6.1051,-6.1836,-6.2579,-6.3116,-6.3659,-6.393,-6.3984,-6.4201,-6.4283,-6.431,-6.431,-6.431,-6.431,-6.431,-6.431,-6.431,-6.431,-6.431,-6.431,-6.431,-6.431,-6.46,-6.5204,-6.5633,-6.5747,-6.6286,-6.6426,-6.6202,-6.6202,-6.6061,-6.6087,-6.6081,-6.6065,-6.607,-6.5865,-6.5809,-6.5972,-6.6155,-6.6595,-6.7091,-6.7789,-6.7993,-6.7819,-6.7258,-6.6611,-6.6077,-6.5761,-6.57,-6.5915,-6.6161,-6.6586,-6.6586,-6.6586,-6.6586,-6.6586,-6.6586,-6.6586,-6.6586,-6.6586,-6.6586,-6.6691,-6.6796,-6.7109,-6.7317,-6.7593,-6.7899,-6.8101,-6.8201,-6.8201,-6.8201,-6.8201,-6.8301,-6.86,-6.8896,-6.9091,-6.9382,-6.9607,-6.9798,-6.9893,-6.9988,-7.0363,-7.0733,-7.1154,-7.16,-7.1985,-7.2159,-7.2416,-7.2586,-7.2671,-7.2838,-7.3005,-7.3415,-7.3772,-7.3852,-7.3931,-7.401,-7.401,-7.401,-7.4088,-7.4287,-7.4441,-7.4517,-7.4744,-7.4968,-7.5042,-5.8105,-5.8096,-5.8302,-5.8646,-5.8866,-5.8791,-5.9111,-5.9747,-5.9748,-5.9814,-6.0392,-6.128,-6.1993,-6.2459,-6.3035,-6.3252,-6.355,-6.3876,-6.4093,-6.4283,-6.431,-6.431,-6.431,-6.431,-6.431,-6.431,-6.431,-6.431,-6.431,-6.431,-6.4455,-6.4889,-6.5319,-6.5633,-6.6003,-6.6146,-6.6202,-6.5864,-6.5612,-6.5218,-6.5408,-6.5816,-6.5631,-6.5515,-6.542,-6.5775,-6.5933,-6.6132,-6.6629,-6.7245,-6.7907,-6.7862,-6.7512,-6.695,-6.6334,-6.58,-6.5716,-6.5623,-6.5808,-6.6268,-6.648,-6.6586,-6.6586,-6.6586,-6.6586,-6.6586,-6.6586,-6.6617,-6.6617,-6.6691,-6.6691,-6.6901,-6.7213,-6.742,-6.7695,-6.7899,-6.8101,-6.8201,-6.8201,-6.8201,-6.8301,-6.8301,-6.8501,-6.8797,-6.9091,-6.9285,-6.9511,-6.9703,-6.9798,-6.9893,-7.0176,-7.0456,-7.0791,-7.1244,-7.181,-7.2072,-7.2331,-7.2501,-7.2586,-7.2755,-7.3005,-7.3334,-7.3577,-7.3772,-7.3852,-7.3931,-7.401,-7.401,-7.4167,-7.4209,-7.4364,-7.4441,-7.4593,-7.4819,-7.4968,-5.7368,-5.8001,-5.8167,-5.8232,-5.8448,-5.8511,-5.8822,-5.9246,-5.9588,-5.9787,-6.0258,-6.078,-6.1325,-6.1814,-6.2438,-6.2818,-6.317,-6.3496,-6.393,-6.4256,-6.4147,-6.4229,-6.4283,-6.4256,-6.4283,-6.431,-6.431,-6.4283,-6.4147,-6.4201,-6.4401,-6.4752,-6.5264,-6.5522,-6.5892,-6.5894,-6.5724,-6.5387,-6.5021,-6.4628,-6.4448,-6.466,-6.5032,-6.5028,-6.5044,-6.5455,-6.5786,-6.6037,-6.6753,-6.7457,-6.7928,-6.7696,-6.7135,-6.6519,-6.5934,-6.5522,-6.5468,-6.5654,-6.5915,-6.6268,-6.6512,-6.6586,-6.6586,-6.6586,-6.6586,-6.6586,-6.6617,-6.6617,-6.6617,-6.6796,-6.6901,-6.7213,-6.742,-6.7695,-6.8,-6.8101,-6.8201,-6.8201,-6.8201,-6.8201,-6.8201,-6.8301,-6.8301,-6.86,-6.8797,-6.9091,-6.9382,-6.9478,-6.9798,-6.9893,-6.9988,-7.027,-7.0515,-7.0973,-7.1512,-7.1898,-7.2159,-7.2331,-7.2586,-7.2755,-7.2922,-7.3135,-7.3415,-7.3577,-7.3772,-7.3931,-7.401,-7.401,-7.401,-7.4167,-7.4209,-7.4364,-7.4517,-7.4669,-7.4819]}]]